     2              OBSERVATION DATA    GPS                 RINEX VERSION / TYPE
teqc 1997Sep10 19971010 23:20:53UTC                         PGM / RUN BY / DATE
                                                            COMMENT
Original Marker Name: TAMA                                  COMMENT
Campaign Name: NGS Salton Trough 1991                       COMMENT
4-Character Station Name: TAMA                              COMMENT
6-Character Antenna Code: TRMSST                            COMMENT
Vertical Measurement Point: BGP                             COMMENT
Vertical Offset to Rinex Ref. Point: 0.0597                 COMMENT
Radial Measurement Point: NGP                               COMMENT
Radial Offset to Rinex Ref. Point: 0.2334                   COMMENT
Antenna Height from Field Measurement: 1.7170 m             COMMENT
Original XYZ: -2306342.0516 -4840072.8497 3443026.2071      COMMENT
New XYZ position is based on association with SCEC monument COMMENT
E1C8W3R0+0011. Position of that monument is believed to be  COMMENT
valid to within 1 m horizontally; vertical accuracy         COMMENT
should be no worse than 3-times this value.                 COMMENT
                                                            COMMENT
Revised Rinex header created by UCSD GPS archive for        COMMENT
GSAC on 10-Apr-1999 (1999:100) 06:08:22 GMT                 COMMENT
For assistance contact dagnew@ucsd.edu or hjohnson@ucsd.edu COMMENT
                                                            COMMENT
TAMARISK 3 1967 1979                                        MARKER NAME
unknown NATIONAL GEODETIC SURVEY                            OBSERVER / AGENCY
483 TRIMBLE 4000 SST NP 4.30 / SP 4.20                      REC # / TYPE / VERS
19 TR 4000SST L1/L2 GEO                                     ANT # / TYPE
 -2306343.0000 -4840065.0000  3443024.0000                  APPROX POSITION XYZ
        1.6414        0.0000        0.0000                  ANTENNA: DELTA H/E/N
     1     1     0                                          WAVELENGTH FACT L1/2
     3    C1    L1    L2                                    # / TYPES OF OBSERV
     0                                                      INTERVAL
  1991     3    29    21    35   45.000000                  TIME OF FIRST OBS
  1991     3    30     3     5   60.000000                  TIME OF LAST OBS
     0                                                      # OF SATELLITES
                                                            END OF HEADER
 91  3 29 21 35 45.0000000  0  4G18G 2G11G19
  20579122.406          -0.34718        -0.14632
  23936802.461          -0.72215        -0.12131
  23536397.4304         -0.65456        -0.43371
  21007827.414          -0.63716        -0.06032
 91  3 29 21 36  0.0000000  0  4G18G 2G11G19
  20581799.500       14065.329 8     10960.09622
  23927921.430      -46672.378 5    -36367.45121
  23530576.8984     -30578.89146    -23827.50561
  21006748.055       -5674.421 6     -4421.17322
 91  3 29 21 36 15.0000000  0  4G18G 2G11G19
  20584491.266       28213.370 8     21984.52922
  23919042.336      -93331.182 5    -72724.78221
  23524770.6724     -61091.12246    -47603.12961
  21005668.664      -11344.029 6     -8839.03022
 91  3 29 21 36 30.0000000  0  4G18G 2G11G19
  20587199.641       42442.679 8     33072.28222
  23910168.7814    -139978.17845   -109072.88661
  23518975.828      -91538.132 6    -71327.93121
  21004591.039      -17010.659 6    -13254.56522
 91  3 29 21 36 45.0000000  0  4G18G 2G11G19
  20589923.711       56756.318 8     44225.75222
  23901292.258     -186609.901 5   -145409.10321
  23513196.4534    -121916.19346    -94999.02161
  21003513.719      -22670.944 6    -17665.15622
 91  3 29 21 37  0.0000000  0  4G18G 2G11G19
  20592665.352       71164.959 8     55453.24622
  23892423.8674    -233215.39445   -181724.90161
  23507429.6174    -152214.40646   -118607.91961
  21002436.047      -28314.589 6    -22062.78222
 91  3 29 21 37 15.0000000  0  4G18G 2G11G19
  20595425.570       85673.971 8     66758.95022
  23883562.3984    -279789.32145   -218016.08561
  23501680.789     -182427.048 6   -142150.12721
  21001369.578      -33936.112 6    -26443.16722
 91  3 29 21 37 30.0000000  0  4G18G 2G11G19
  20598207.125      100290.280 8     78148.26122
  23874707.4144    -326324.74145   -254277.26761
  23495947.875     -212546.953 6   -165620.05721
  21000306.461      -39528.536 6    -30800.88422
 91  3 29 21 37 45.0000000  0  4G18G 2G11G19
  20601008.273      115011.519 8     89619.34522
  23865858.8984    -372823.57246   -290509.93661
  23490233.914     -242576.032 6   -189019.20021
  20999247.336      -45094.126 6    -35137.68622
 91  3 29 21 38  0.0000000  0  4G18G 2G11G19
  20603830.148      129839.135 8    101173.31322
  23857015.406     -419284.397 5   -326712.99221
  23484538.3054    -272512.57746   -212346.25361
  20998190.789      -50631.484 6    -39452.48822
 91  3 29 21 38 15.0000000  0  4G18G 2G11G19
  20606672.383      144774.982 8    112811.62022
  23848182.3364    -465704.93345   -362884.65861
  23478859.758     -302354.076 6   -235599.25621
  20997144.977      -56138.709 6    -43743.80622
 91  3 29 21 38 30.0000000  0  4G18G 2G11G19
  20609534.711      159817.402 8    124532.96922
  23839357.000     -512086.628 6   -399026.05121
  23473198.4304    -332101.83946   -258779.23861
  20996099.914      -61617.462 6    -48012.94422
 91  3 29 21 38 45.0000000  0  4G18G 2G11G19
  20612418.469      174971.877 8    136341.63722
  23830538.9924    -558424.21946   -435133.07661
  23467555.6484    -361750.24746   -281881.78861
  20995066.500      -67062.276 6    -52255.63822
 91  3 29 21 39  0.0000000  0  4G18G 2G11G19
  20615323.234      190236.526 7    148236.14722
  23821729.602     -604719.171 6   -471206.88121
  23461934.0084    -391300.73946   -304908.02461
  20994035.344      -72475.073 6    -56473.37822
 91  3 29 21 39 15.0000000  0  4G18G 2G11G19
  20618247.023      205603.210 8    160210.17022
  23812926.1804    -650979.46245   -507253.67361
  23456326.9144    -420761.08946   -327864.02761
  20993011.281      -77863.937 6    -60672.47722
 91  3 29 21 39 30.0000000  0  4G18G 2G11G19
  20621192.188      221075.897 8    172266.79522
  23804129.6644    -697201.05145   -543270.29961
  23450738.156     -450127.039 6   -350746.47821
  20991986.531      -83224.902 6    -64849.83022
 91  3 29 21 39 45.0000000  0  4G18G 2G11G19
  20624156.992      236656.508 8    184407.51822
  23795342.2194    -743381.75845   -579255.08661
  23445168.328     -479396.118 6   -373553.44121
  20990976.828      -88555.877 6    -69003.81622
 91  3 29 21 40  0.0000000  0  4G18G 2G11G19
  20627142.641      252344.588 8    196631.97822
  23786560.6954    -789521.76545   -615208.15561
  23439616.438     -508568.394 6   -396284.98021
  20989964.477      -93857.222 6    -73134.71522
 91  3 29 21 40 15.0000000  0  4G18G 2G11G19
  20630147.297      268138.597 8    208938.97922
  23777787.8364    -835622.58945   -651130.66661
  23434083.758     -537645.193 6   -418942.11621
  20988962.773      -99130.659 6    -77243.86922
 91  3 29 21 40 30.0000000  0  4G18G 2G11G19
  20633173.953      284043.327 7    221332.25422
  23769024.359     -881679.418 5   -687018.91121
  23428569.2194    -566621.44046   -441520.91161
  20987963.477     -104371.533 6    -81327.64922
 91  3 29 21 40 45.0000000  0  4G18G 2G11G19
  20636222.086      300059.836 7    233812.63522
  23760268.148     -927691.108 5   -722871.99321
  23423075.0944    -595495.64646   -464020.18761
  20986975.313     -109578.635 6    -85385.10922
 91  3 29 21 41  0.0000000  0  4G18G 2G11G19
  20639291.422      316187.544 8    246379.66222
  23751520.0554    -973657.68945   -758689.91261
  23417600.828     -624267.726 6   -486439.88521
  20985988.070     -114752.250 6    -89416.47822
 91  3 29 21 41 15.0000000  0  4G18G 2G11G19
  20642381.578      332424.299 8    259031.66322
  23742781.078    -1019581.160 5   -794474.24421
  23412143.8284    -652939.67946   -508781.54661
  20985012.242     -119894.719 6    -93423.58222
 91  3 29 21 41 30.0000000  0  4G18G 2G11G19
  20645491.539      348769.342 7    271768.04422
  23734050.1954   -1065462.12945   -830225.46461
  23406706.367     -681511.959 6   -531045.55021
  20984037.164     -125006.808 6    -97407.01122
 91  3 29 21 41 45.0000000  0  4G18G 2G11G19
  20648622.961      365221.701 8    284588.04722
  23725327.5314   -1111301.55645   -865944.31761
  23401288.352     -709985.150 6   -553232.36621
  20983072.227     -130089.581 6   -101367.59722
 91  3 29 21 42  0.0000000  0  4G18G 2G11G19
  20651773.758      381781.863 8    297492.04822
  23716611.9384   -1157098.66645   -901630.19261
  23395890.125     -738358.379 6   -575341.28921
  20982107.859     -135142.319 6   -105304.77922
 91  3 29 21 42 15.0000000  0  4G18G 2G11G19
  20654945.445      398449.434 8    310479.74822
  23707904.328    -1202853.696 5   -937283.27121
  23390509.555     -766631.589 6   -597372.27021
  20981154.781     -140165.276 6   -109218.75722
 91  3 29 21 42 30.0000000  0  4G18G 2G11G19
  20658137.211      415226.100 7    323552.45422
  23699206.3134   -1248564.61145   -972901.97261
  23385147.039     -794802.719 6   -619323.69821
  20980203.391     -145156.838 6   -113108.27222
 91  3 29 21 42 45.0000000  0  4G18G 2G11G19
  20661350.477      432113.465 8    336711.42422
  23690517.6094   -1294229.91745  -1008485.13961
  23379807.4304    -822869.88746   -641194.11761
  20979262.445     -150115.412 6   -116972.08222
 91  3 29 21 43  0.0000000  0  4G18G 2G11G19
  20664586.148      449110.924 8    349956.18322
  23681837.125    -1339850.056 5  -1044033.12521
  23374485.625     -850833.467 6   -662983.80621
  20978322.5394    -155041.60046   -120810.65862
 91  3 29 21 43 15.0000000  0  4G18G 2G11G19
  20667841.734      466216.511 8    363285.19722
  23673162.3984   -1385426.65645  -1079547.17761
  23369184.164     -878694.780 6   -684693.84721
  20977391.469     -159937.074 6   -124625.30222
 91  3 29 21 43 30.0000000  0  4G18G 2G11G19
  20671116.820      483432.882 8    376700.53222
  23664496.0474   -1430957.01545  -1115025.19361
  23363901.4924    -906451.07646   -706322.05261
  20976464.703     -164799.387 6   -128414.10422
 91  3 29 21 43 45.0000000  0  4G18G 2G11G19
  20674413.586      500759.357 8    390201.66322
  23655839.883    -1476441.154 5  -1150467.21521
  23358642.0234    -934102.11146   -727868.22861
  20975548.828     -169628.801 6   -132177.27022
 91  3 29 21 44  0.0000000  0  4G18G 2G11G19
  20677731.719      518194.474 8    403787.44523
  23647194.297    -1521880.686 5  -1185874.46721
  23353398.031     -961649.314 6   -749333.47821
  20974632.8364    -174427.00946   -135916.12562
 91  3 29 21 44 15.0000000  0  4G18G 2G11G19
  20681071.383      535740.493 8    417459.64523
  23638557.7194   -1567273.34245  -1221245.19661
  23348176.203     -989090.386 6   -770716.04521
  20973729.133     -179192.002 6   -139629.09322
 91  3 29 21 44 30.0000000  0  4G18G 2G11G19
  20684430.797      553397.189 8    431218.08322
  23629930.3134   -1612619.24345  -1256579.48861
  23342976.625    -1016425.083 6   -792015.73421
  20972825.4694    -183923.88546   -143316.26562
 91  3 29 21 44 45.0000000  0  4G18G 2G11G19
  20687813.148      571172.966 8    445069.31922
  23621310.484    -1657909.537 5  -1291870.45821
  23337795.1484   -1043644.45046   -813225.56461
  20971935.836     -188614.197 6   -146971.04322
 91  3 29 21 45  0.0000000  0  4G18G 2G11G19
  20691216.867      589057.226 8    459005.08922
  23612699.516    -1703154.674 5  -1327126.23521
  23332634.141    -1070758.731 6   -834353.49121
  20971047.1334    -193273.18546   -150601.41362
 91  3 29 21 45 15.0000000  0  4G18G 2G11G19
  20694641.727      607053.917 8    473028.46723
  23604098.711    -1748350.519 5  -1362343.59721
  23327495.4064   -1097763.60546   -855396.16261
  20970168.8284    -197896.86146   -154204.27162
 91  3 29 21 45 30.0000000  0  4G18G 2G11G19
  20698087.516      625160.034 8    487137.11223
  23595508.250    -1793499.925 5  -1397524.78621
  23322376.859    -1124661.733 6   -876355.66021
  20969292.9064    -202488.27146   -157781.98362
 91  3 29 21 45 45.0000000  0  4G18G 2G11G19
  20701553.594      643375.692 7    501331.10823
  23586924.727    -1838602.527 5  -1432669.48921
  23317278.961    -1151452.558 6   -897231.56421
  20968428.359     -207047.276 6   -161334.44322
 91  3 29 21 46  0.0000000  0  4G18G 2G11G19
  20705041.477      661704.518 8    515613.29423
  23578350.594    -1883654.779 6  -1467774.98321
  23312202.7584   -1178132.25646   -918020.87561
  20967568.6884    -211570.24846   -164858.83162
 91  3 29 21 46 15.0000000  0  4G18G 2G11G19
  20708550.391      680143.007 8    529980.92523
  23569786.4694   -1928659.68946  -1502843.56161
  23307145.695    -1204703.716 6   -938725.82921
  20966713.250     -216060.368 6   -168357.61222
 91  3 29 21 46 30.0000000  0  4G18G 2G11G19
  20712079.086      698690.239 8    544433.28823
  23561231.9144   -1973618.18846  -1537875.99161
  23302111.367    -1231167.837 6   -959347.14721
  20965865.7664    -220518.85746   -171831.75162
 91  3 29 21 46 45.0000000  0  4G18G 2G11G19
  20715629.781      717349.141 7    558972.67523
  23552687.734    -2018526.861 6  -1572869.58621
  23297095.4144   -1257520.93646   -979881.94761
  20965022.422     -224942.570 6   -175278.78622
 91  3 29 21 47  0.0000000  0  4G18G 2G11G19
  20719202.438      736122.598 8    573601.33123
  23544149.0164   -2063382.84046  -1607822.11061
  23292101.367    -1283759.730 6  -1000327.68721
  20964188.1804    -229328.39846   -178696.30462
 91  3 29 21 47 15.0000000  0  4G18G 2G11G19
  20722796.508      755004.734 8    588314.66423
  23535622.305    -2108191.929 6  -1642738.11521
  23287128.8284   -1309889.98846  -1020688.86561
  20963360.164     -233682.328 6   -182088.96422
 91  3 29 21 47 30.0000000  0  4G18G 2G11G19
  20726410.508      773997.026 8    603113.83323
  23527105.0474   -2152952.24446  -1677616.10761
  23282177.0864   -1335909.84046  -1040963.98861
  20962535.0634    -238002.80346   -185455.55762
 91  3 29 21 47 45.0000000  0  4G18G 2G11G19
  20730046.594      793103.686 8    618002.11923
  23518597.9774   -2197659.49546  -1712452.73861
  23277248.1954   -1361814.67646  -1061149.48661
  20961722.719     -242285.672 6   -188792.84422
 91  3 29 21 48  0.0000000  0  4G18G 2G11G19
  20733702.359      812317.601 8    632973.98023
  23510098.6724   -2242320.59246  -1747253.40661
  23272338.2114   -1387611.20846  -1081250.61761
  20960909.969     -246537.852 6   -192106.21822
 91  3 29 21 48 15.0000000  0  4G18G 2G11G19
  20737379.219      831640.040 8    648030.41323
  23501610.3444   -2286934.02746  -1782016.94661
  23267451.414    -1413297.907 6  -1101266.14721
  20960109.813     -250758.005 6   -195394.63422
 91  3 29 21 48 30.0000000  0  4G18G 2G11G19
  20741078.484      851073.777 8    663173.56823
  23493129.000    -2331496.765 6  -1816740.96721
  23262581.5234   -1438871.29446  -1121193.38761
  20959313.641     -254943.015 6   -198655.66722
 91  3 29 21 48 45.0000000  0  4G18G 2G11G19
  20744796.234      870618.237 8    678403.00123
  23484659.008    -2376009.487 6  -1851426.01521
  23257739.3364   -1464332.03646  -1141032.84761
  20958523.531     -259093.839 6   -201890.05622
 91  3 29 21 49  0.0000000  0  4G18G 2G11G19
  20748537.102      890269.039 8    693715.29623
  23476196.0084   -2420476.32346  -1886075.32161
  23252913.102    -1489683.979 6  -1160787.52421
  20957739.656     -263214.699 6   -205101.10122
 91  3 29 21 49 15.0000000  0  4G18G 2G11G19
  20752296.797      910029.582 8    709113.10623
  23467742.344    -2464893.632 6  -1920686.02321
  23248111.164    -1514923.441 6  -1180454.55821
  20956961.328     -267302.158 6   -208286.11822
 91  3 29 21 49 30.0000000  0  4G18G 2G11G19
  20756076.984      929900.224 8    724596.70223
  23459300.2504   -2509260.67446  -1955257.55661
  23243332.367    -1540049.422 6  -1200033.16621
  20956186.289     -271355.513 6   -211444.56422
 91  3 29 21 49 45.0000000  0  4G18G 2G11G19
  20759880.945      949881.694 8    740166.65523
  23450868.336    -2553576.508 6  -1989789.18021
  23238571.055    -1565060.851 6  -1219522.51921
  20955425.141     -275374.006 6   -214575.83922
 91  3 29 21 50  0.0000000  0  4G18G 2G11G19
  20763704.461      969974.626 8    755823.46123
  23442445.070    -2597840.274 6  -2024280.24721
  23233831.852    -1589956.691 6  -1238921.79121
  20954668.430     -279356.880 6   -217679.35922
 91  3 29 21 50 15.0000000  0  4G18G 2G11G19
  20767547.656      990177.410 8    771565.86423
  23434030.7504   -2642053.30446  -2058731.77561
  23229119.234    -1614738.317 6  -1258232.07021
  20953915.805     -283305.775 6   -220756.40122
 91  3 29 21 50 30.0000000  0  4G18G 2G11G19
  20771413.602     1010489.270 8    787393.26223
  23425628.0554   -2686216.58946  -2093144.53061
  23224424.406    -1639406.302 6  -1277453.79521
  20953167.555     -287221.587 6   -223807.66322
 91  3 29 21 50 45.0000000  0  4G18G 2G11G19
  20775299.6564    1030909.16848    803304.84163
  23417233.1884   -2730330.93746  -2127519.16061
  23219750.852    -1663961.236 6  -1296587.43621
  20952431.773     -291105.162 6   -226833.80922
 91  3 29 21 51  0.0000000  0  4G18G 2G11G19
  20779207.2194    1051443.07448    819305.25863
  23408846.4694   -2774389.99146  -2161850.70561
  23215100.133    -1688396.602 6  -1315627.89821
  20951698.414     -294950.262 6   -229829.97022
 91  3 29 21 51 15.0000000  0  4G18G 2G11G19
  20783135.9454    1072089.56648    835393.40863
  23400473.9224   -2818395.15546  -2196140.24961
  23210473.0944   -1712713.63846  -1334576.15661
  20950976.055     -298758.402 6   -232797.32922
 91  3 29 21 51 30.0000000  0  4G18G 2G11G19
  20787085.617     1092845.233 7    851566.62523
  23392109.5084   -2862349.37245  -2230390.10561
  23205869.086    -1736915.206 6  -1353434.43721
  20950257.469     -302532.778 6   -235738.38622
 91  3 29 21 51 45.0000000  0  4G18G 2G11G19
  20791055.8364    1113709.48547    867824.45563
  23383755.289    -2906253.180 5  -2264600.68021
  23201284.8594   -1761001.64246  -1372203.01061
  20949545.563     -306273.965 6   -238653.57922
 91  3 29 21 52  0.0000000  0  4G18G 2G11G19
  20795045.727     1134678.719 7    884164.09023
  23375410.336    -2950109.814 6  -2298774.48221
  23196722.680    -1784975.926 6  -1390884.18921
  20948837.180     -309985.310 6   -241545.52022
 91  3 29 21 52 15.0000000  0  4G18G 2G11G19
  20799057.3754    1155754.09847    900586.43563
  23367071.3524   -2993918.21445  -2332910.73161
  23192181.656    -1808836.946 6  -1409477.11421
  20948139.180     -313665.700 6   -244413.34122
 91  3 29 21 52 30.0000000  0  4G18G 2G11G19
  20803086.977     1176935.099 7    917091.08723
  23358743.6334   -3037678.46946  -2367009.45161
  23187662.9144   -1832584.60346  -1427981.70361
  20947442.219     -317315.417 6   -247257.26222
 91  3 29 21 52 45.0000000  0  4G18G 2G11G19
  20807138.219     1198222.937 7    933678.98923
  23350426.906    -3081389.454 6  -2401069.78321
  23183165.008    -1856217.486 6  -1446396.85921
  20946755.930     -320933.338 6   -250076.40622
 91  3 29 21 53  0.0000000  0  4G18G 2G11G19
  20811210.836     1219620.751 7    950352.58623
  23342118.5314   -3125047.95046  -2435089.20961
  23178690.227    -1879732.371 6  -1464720.07121
  20946071.4694    -324516.57846   -252868.53062
 91  3 29 21 53 15.0000000  0  4G18G 2G11G19
  20815302.4384    1241126.45047    967110.24363
  23333819.008    -3168655.412 6  -2469068.88721
  23174237.828    -1903130.422 6  -1482952.24121
  20945398.766     -328066.632 6   -255634.79022
 91  3 29 21 53 30.0000000  0  4G18G 2G11G19
  20819415.297     1262738.070 7    983950.43923
  23325532.4304   -3212213.53246  -2503010.09661
  23169807.727    -1926413.174 6  -1501094.56221
  20944726.3284    -331585.24246   -258376.55462
 91  3 29 21 53 45.0000000  0  4G18G 2G11G19
  20823547.625     1284455.441 7   1000873.04023
  23317251.172    -3255722.442 6  -2536912.97521
  23165398.3674   -1949580.69146  -1519147.10361
  20944066.328     -335072.623 6   -261093.98122
 91  3 29 21 54  0.0000000  0  4G18G 2G11G19
  20827700.3444    1306277.23647   1017877.01263
  23308981.664    -3299183.127 6  -2570778.26921
  23161011.1724   -1972633.76546  -1537110.47361
  20943405.5864    -338529.92046   -263787.96762
 91  3 29 21 54 15.0000000  0  4G18G 2G11G19
  20831873.328     1328208.143 7   1034966.00223
  23300721.547    -3342591.118 6  -2604602.51121
  23156647.328    -1995567.838 6  -1554981.09821
  20942756.664     -341952.832 6   -266455.16222
 91  3 29 21 54 30.0000000  0  4G18G 2G11G19
  20836066.8134    1350244.46547   1052137.13263
  23292469.500    -3385949.394 6  -2638388.01221
  23152304.508    -2018385.472 6  -1572761.00521
  20942108.1024    -345344.28146   -269097.83862
 91  3 29 21 54 45.0000000  0  4G18G 2G11G19
  20840280.1724    1372389.30147   1069392.81763
  23284229.4844   -3429254.81646  -2672132.34161
  23147986.1564   -2041083.64946  -1590447.81961
  20941472.6334    -348701.33046   -271713.71162
 91  3 29 21 55  0.0000000  0  4G18G 2G11G19
  20844515.0784    1394638.32747   1086729.69563
  23275997.664    -3472511.506 6  -2705838.68821
  23143688.883    -2063666.405 6  -1608044.69921
  20940835.2894    -352028.36046   -274306.19162
 91  3 29 21 55 15.0000000  0  4G18G 2G11G19
  20848769.0084    1416991.20147   1104147.48563
  23267775.586    -3515719.860 6  -2739507.38321
  23139412.164    -2086133.782 6  -1625551.67121
  20940210.914     -355325.626 6   -276875.47922
 91  3 29 21 55 30.0000000  0  4G18G 2G11G19
  20853041.9534    1439446.38847   1121644.99963
  23259561.4694   -3558880.93546  -2773139.23561
  23135158.352    -2108486.706 6  -1642969.45821
  20939588.4064    -358594.35346   -279422.52962
 91  3 29 21 55 45.0000000  0  4G18G 2G11G19
  20857334.3204    1462005.96047   1139223.85763
  23251358.234    -3601992.622 6  -2806732.59621
  23130927.9064   -2130722.93146  -1660296.32661
  20938973.0084    -361832.50546   -281945.75462
 91  3 29 21 56  0.0000000  0  4G18G 2G11G19
  20861646.9614    1484666.62247   1156881.48963
  23243162.8134   -3645057.94846  -2840289.83861
  23126718.0554   -2152845.39146  -1677534.54061
  20938358.8754    -365043.15546   -284447.55062
 91  3 29 21 56 15.0000000  0  4G18G 2G11G19
  20865978.3364    1507428.44747   1174617.94263
  23234976.9144   -3688076.49846  -2873810.63961
  23122529.1334   -2174853.34346  -1694683.52861
  20937755.7504    -368225.96846   -286927.65362
 91  3 29 21 56 30.0000000  0  4G18G 2G11G19
  20870329.7814    1530292.39447   1192433.97663
  23226799.0084   -3731047.25046  -2907294.18361
  23118363.5234   -2196745.82446  -1711742.53361
  20937154.3134    -371380.13246   -289385.43362
 91  3 29 21 56 45.0000000  0  4G18G 2G11G19
  20874699.7194    1553260.30447   1210331.01963
  23218630.8914   -3773968.36846  -2940739.05961
  23114220.234    -2218520.636 6  -1728709.84621
  20936562.039     -374503.744 6   -291819.40322
 91  3 29 21 57  0.0000000  0  4G18G 2G11G19
  20879089.7814    1576333.24447   1228309.90563
  23210473.6804   -3816838.47046  -2974144.18861
  23110100.0864   -2240176.19946  -1745584.25261
  20935970.8524    -377595.56846   -294228.60762
 91  3 29 21 57 15.0000000  0  4G18G 2G11G19
  20883498.7894    1599502.72347   1246364.01563
  23202324.000    -3859665.290 6  -3007515.59721
  23105998.789    -2261720.392 6  -1762371.87721
  20935389.219     -380663.729 6   -296619.36622
 91  3 29 21 57 30.0000000  0  4G18G 2G11G19
  20887928.3444    1622776.20547   1264499.16063
  23194183.531    -3902441.611 6  -3040847.64821
  23101922.0784   -2283145.60246  -1779066.77961
  20934809.328     -383700.788 6   -298985.89122
 91  3 29 21 57 45.0000000  0  4G18G 2G11G19
  20892376.8444    1646152.87947   1282714.71363
  23186053.359    -3945167.906 6  -3074140.72321
  23097867.2114   -2304452.26546  -1795669.31161
  20934239.602     -386707.449 6   -301328.73222
 91  3 29 21 58  0.0000000  0  4G18G 2G11G19
  20896844.1334    1669629.46847   1301008.12263
  23177930.9534   -3987847.51946  -3107397.43161
  23093834.7894   -2325643.49546  -1812181.89961
  20933670.211     -389687.048 6   -303650.48722
 91  3 29 21 58 15.0000000  0  4G18G 2G11G19
  20901331.1174    1693208.88647   1319381.66463
  23169819.6174   -4030477.09046  -3140615.13061
  23089826.1414   -2346715.84446  -1828601.85261
  20933111.313     -392636.249 6   -305948.54722
 91  3 29 21 58 30.0000000  0  4G18G 2G11G19
  20905837.2194    1716887.91847   1337832.82263
  23161715.648    -4073059.637 6  -3173796.19121
  23085838.2344   -2367672.05946  -1844931.30861
  20932555.977     -395558.208 6   -308225.38722
 91  3 29 21 58 45.0000000  0  4G18G 2G11G19
  20910362.9924    1740671.04647   1356365.09263
  23153622.719    -4115590.426 6  -3206936.93521
  23081872.3204   -2388507.34346  -1861166.53361
  20932004.7894    -398448.19446   -310477.31562
 91  3 29 21 59  0.0000000  0  4G18G 2G11G19
  20914907.6804    1764554.85347   1374975.81563
  23145538.398    -4158072.506 6  -3240039.71621
  23077929.0314   -2409224.82446  -1877309.96561
  20931461.1024    -401309.55246   -312706.93062
 91  3 29 21 59 15.0000000  0  4G18G 2G11G19
  20919473.5084    1788545.13347   1393669.51163
  23137464.672    -4200500.028 6  -3273099.98421
  23074011.3594   -2429818.23146  -1893356.71261
  20930923.7894    -404136.29446   -314909.57462
 91  3 29 21 59 30.0000000  0  4G18G 2G11G19
  20924057.7034    1812637.02747   1412442.37563
  23129399.766    -4242877.702 6  -3306121.41421
  23070114.961    -2450292.239 6  -1909310.43421
  20930390.711     -406933.318 6   -317089.06322
 91  3 29 21 59 45.0000000  0  4G18G 2G11G19
  20928663.2274    1836836.74747   1431299.26663
  23121345.195    -4285198.837 6  -3339098.78621
  23066243.1094   -2470640.01546  -1925165.78761
  20929865.727     -409694.154 6   -319240.35022
 91  3 29 22  0  0.0000000  0  4G18G 2G11G19
  20933287.4534    1861137.16847   1450234.62063
  23113301.555    -4327470.696 6  -3372037.76521
  23062393.5394   -2490868.64246  -1940928.30161
  20929341.8674    -412426.07046   -321369.10762
 91  3 29 22  0 15.0000000  0  4G18G 2G11G19
  20937930.6644    1885537.97347   1469248.19363
  23105268.102    -4369693.217 6  -3404938.29621
  23058567.1484   -2510978.01546  -1956597.88061
  20928829.8984    -415129.04346   -323475.30762
 91  3 29 22  0 30.0000000  0  4G18G 2G11G19
  20942593.4694    1910039.72947   1488340.43463
  23097242.008    -4411865.634 6  -3437799.79121
  23054763.6334   -2530967.14446  -1972173.75961
  20928320.1414    -417802.37046   -325558.40962
 91  3 29 22  0 45.0000000  0  4G18G 2G11G19
  20947275.3834    1934641.74947   1507510.79763
  23089225.4224   -4453988.23546  -3470622.47361
  23050981.7584   -2550836.26746  -1987656.13261
  20927817.3284    -420446.47446   -327618.74362
 91  3 29 22  1  0.0000000  0  4G18G 2G11G19
  20951975.5784    1959345.00347   1526760.05063
  23081219.828    -4496059.928 6  -3503405.48521
  23047224.641    -2570584.133 6  -2003044.02621
  20927321.5784    -423060.33546   -329655.51162
 91  3 29 22  1 15.0000000  0  4G18G 2G11G19
  20956696.266     1984149.198 7   1546087.95023
  23073223.9694   -4538081.01946  -3536149.06961
  23043489.039    -2590210.647 6  -2018337.35721
  20926827.9384    -425644.09046   -331668.81962
 91  3 29 22  1 30.0000000  0  4G18G 2G11G19
  20961435.2424    2009054.27847   1565494.46763
  23065236.7274   -4580051.28146  -3568853.04561
  23039777.0784   -2609715.67446  -2033536.01861
  20926344.7424    -428197.69746   -333658.63962
 91  3 29 22  1 45.0000000  0  4G18G 2G11G19
  20966194.2894    2034060.71647   1584979.96663
  23057259.7114   -4621969.73546  -3601516.64961
  23036089.4454   -2629098.15046  -2048639.18561
  20925862.7974    -430720.50446   -335624.46062
 91  3 29 22  2  0.0000000  0  4G18G 2G11G19
  20970971.9924    2059168.85647   1604544.70963
  23049293.7034   -4663836.08146  -3634139.65061
  23032424.5784   -2648357.39046  -2063646.32461
  20925386.1094    -433212.11346   -337565.96862
 91  3 29 22  2 15.0000000  0  4G18G 2G11G19
  20975770.1334    2084381.84947   1624191.15863
  23041336.5394   -4705646.88046  -3666719.36561
  23028783.0314   -2667489.90946  -2078554.72161
  20924921.3914    -435669.19146   -339480.57262
 91  3 29 22  2 30.0000000  0  4G18G 2G11G19
  20980586.5084    2109693.88547   1643914.78463
  23033389.5864   -4747407.69746  -3699260.13861
  23025164.9384   -2686501.22146  -2093368.67461
  20924461.6644    -438097.19846   -341372.52162
 91  3 29 22  2 45.0000000  0  4G18G 2G11G19
  20985422.5634    2135108.23147   1663718.13363
  23025453.7034   -4789115.28546  -3731759.43961
  23021571.758    -2705388.012 6  -2108085.60621
  20924003.0394    -440493.05446   -343239.42162
 91  3 29 22  3  0.0000000  0  4G18G 2G11G19
  20990278.5634    2160627.80247   1683603.47863
  23017526.867    -4830766.273 6  -3764214.63521
  23018001.195    -2724146.652 6  -2122702.67721
  20923551.6724    -442853.57246   -345078.78462
 91  3 29 22  3 15.0000000  0  4G18G 2G11G19
  20995153.7274    2186248.99347   1703568.00363
  23009610.8284   -4872364.03246  -3796628.35461
  23014456.9694   -2742780.35146  -2137222.38661
  20923110.8284    -445182.19046   -346893.29162
 91  3 29 22  3 30.0000000  0  4G18G 2G11G19
  21000050.1724    2211976.97147   1723615.73763
  23001706.5164   -4913903.28846  -3828996.48561
  23010934.2894   -2761283.68746  -2151640.51561
  20922672.8524    -447473.55646   -348678.76962
 91  3 29 22  3 45.0000000  0  4G18G 2G11G19
  21004965.7734    2237810.24647   1743745.51763
  22993813.133    -4955385.028 6  -3861319.79521
  23007437.875    -2779657.738 6  -2165957.89721
  20922245.5864    -449728.89846   -350436.17362
 91  3 29 22  4  0.0000000  0  4G18G 2G11G19
  21009902.1644    2263749.67847   1763958.02363
  22985929.3984   -4996808.28146  -3893597.52961
  23003967.313    -2797901.299 6  -2180173.61221
  20921824.4534    -451947.15346   -352164.67962
 91  3 29 22  4 15.0000000  0  4G18G 2G11G19
  21014859.7424    2289800.65747   1784257.44863
  22978059.1334   -5038167.48146  -3925825.35761
  23000521.133    -2816008.554 6  -2194283.11621
  20921409.0394    -454122.63346   -353859.85762
 91  3 29 22  4 30.0000000  0  4G18G 2G11G19
  21019839.063     2315964.150 7   1804644.54323
  22970200.672    -5079461.571 6  -3958002.45921
  22997101.305    -2833978.448 6  -2208285.58321
  20921002.2974    -456254.74246   -355521.23962
 91  3 29 22  4 45.0000000  0  4G18G 2G11G19
  21024839.164     2342243.472 7   1825121.89023
  22962356.4454   -5120687.00946  -3990126.05961
  22993708.0944   -2851807.22046  -2222178.09161
  20920607.4614    -458339.68346   -357145.86662
 91  3 29 22  5  0.0000000  0  4G18G 2G11G19
  21029861.891     2368640.420 7   1845690.90023
  22954525.5084   -5161841.66946  -4022194.51261
  22990343.688    -2869492.661 6  -2235958.90321
  20920218.1884    -460375.47546   -358732.19362
 91  3 29 22  5 15.0000000  0  4G18G 2G11G19
  21034907.953     2395154.972 7   1866351.53523
  22946706.773    -5202925.229 6  -4054207.56621
  22987003.938    -2887034.423 6  -2249627.76721
  20919841.1564    -462361.99846   -360280.13562
 91  3 29 22  5 30.0000000  0  4G18G 2G11G19
  21039977.469     2421793.288 7   1887108.61823
  22938903.1724   -5243931.47246  -4086160.36561
  22983695.117    -2904426.277 6  -2263179.81721
  20919472.0394    -464293.10846   -361784.88862
 91  3 29 22  5 45.0000000  0  4G18G 2G11G19
  21045070.695     2448562.026 7   1907967.32923
  22931116.445    -5284853.566 6  -4118047.60321
  22980415.797    -2921661.123 6  -2276609.52621
  20919117.7194    -466162.05446   -363241.20762
 91  3 29 22  6  0.0000000  0  4G18G 2G11G19
  21050190.8754    2475464.94147   1928930.59763
  22923345.7344   -5325687.25546  -4149865.94461
  22977167.2194   -2938734.44046  -2289913.36861
  20918773.4774    -467964.43746   -364645.65462
 91  3 29 22  6 15.0000000  0  4G18G 2G11G19
  21055336.984     2502507.919 7   1950003.00923
  22915592.859    -5366426.775 6  -4181610.91021
  22973949.242    -2955640.491 6  -2303086.87521
  20918445.8204    -469694.68246   -365993.89162
 91  3 29 22  6 30.0000000  0  4G18G 2G11G19
  21060511.3284    2529698.89147   1971190.73963
  22907860.703    -5407063.715 6  -4213275.94121
  22970766.4454   -2972370.66046  -2316123.33461
  20918131.9304    -471344.34146   -367279.33762
 91  3 29 22  6 45.0000000  0  4G18G 2G11G19
  21065714.0474    2557038.29347   1992494.12963
  22900147.039    -5447597.550 6  -4244860.64121
  22967615.6644   -2988924.25446  -2329022.20361
  20917833.9614    -472912.94046   -368501.61662
 91  3 29 22  7  0.0000000  0  4G18G 2G11G19
  21070945.516     2584531.049 7   2013917.01423
  22892453.7974   -5488023.16546  -4276361.00561
  22964500.625    -3005296.211 6  -2341779.52621
  20917549.9064    -474395.55046   -369656.88862
 91  3 29 22  7 15.0000000  0  4G18G 2G11G19
  21076209.000     2612187.922 7   2035467.77823
  22884783.617    -5528329.191 6  -4307768.19021
  22961423.2734   -3021475.04946  -2354386.37961
  20917286.9384    -475780.96746   -370736.42862
 91  3 29 22  7 30.0000000  0  4G18G 2G11G19
  21081503.906     2640014.315 7   2057150.63223
  22877137.898    -5568510.115 6  -4339077.88921
  22958381.7034   -3037455.27446  -2366838.46661
  20917041.4144    -477063.62446   -371735.89762
 91  3 29 22  7 45.0000000  0  4G18G 2G11G19
  21086833.594     2668019.894 7   2078973.11123
  22869517.047    -5608556.391 6  -4370282.67421
  22955378.8364   -3053226.96646  -2379128.05561
  20916821.6884    -478233.85446   -372647.75662
 91  3 29 22  8  0.0000000  0  4G18G 2G11G19
  21092197.086     2696208.886 7   2100938.51223
  22861922.1024   -5648463.31746  -4401378.86761
  22952418.625    -3068785.285 6  -2391251.36521
  20916620.2734    -479287.04346   -373468.41762
 91  3 29 22  8 15.0000000  0  4G18G 2G11G19
  21097598.555     2724592.390 7   2123055.48523
  22854356.500    -5688219.594 6  -4432357.67221
  22949502.188    -3084118.793 6  -2403199.51221
  20916443.617     -480211.962 6   -374189.12222
 91  3 29 22  8 30.0000000  0  4G18G 2G11G19
  21103037.6254    2753177.61747   2145329.64563
  22846821.352    -5727817.752 6  -4463213.26621
  22946627.6644   -3099220.05446  -2414966.69061
  20916293.1804    -481001.17946   -374804.08762
 91  3 29 22  8 45.0000000  0  4G18G 2G11G19
  21108517.4304    2781971.55247   2167766.43763
  22839318.1174   -5767250.29546  -4493939.81161
  22943798.9304   -3114081.58746  -2426547.07261
  20916171.7344    -481647.42746   -375307.65162
 91  3 29 22  9  0.0000000  0  4G18G 2G11G19
  21114038.5944    2810983.12147   2190372.81363
  22831847.969    -5806508.562 6  -4524530.55821
  22941018.4064   -3128694.33546  -2437933.59261
  20916076.9924    -482141.85946   -375692.91762
 91  3 29 22  9 15.0000000  0  4G18G 2G11G19
  21119601.461     2840219.946 7   2213154.70823
  22824410.5164   -5845584.59346  -4554979.30061
  22938286.406    -3143050.263 6  -2449119.98621
  20916013.9924    -482476.56146   -375953.71662
 91  3 29 22  9 30.0000000  0  4G18G 2G11G19
  21125210.250     2869692.676 7   2236120.42023
  22817013.3444   -5884467.11146  -4585277.24961
  22935606.7274   -3157138.06246  -2460097.45061
  20915981.6564    -482640.47046
 91  3 29 22  9 45.0000000  0  5G18G 2G11G16G19
  21130864.563     2899407.547 7   2259274.81123
  22809651.898    -5923150.144 6  -4615419.76221
  22932977.2344   -3170951.58146  -2470861.20161
  24261086.5864         -0.77455
  20915984.3444    -482627.54446
 91  3 29 22 10  0.0000000  0  5G18G 2G11G16G19
  21136565.242     2929367.344 7   2282620.05823
  22802327.422    -5961630.501 6  -4645404.34121
  22930401.6644   -3184487.59246  -2481408.71161
  24257538.0704     -18652.34645
  20916019.7194    -482434.61046
 91  3 29 22 10 15.0000000  0  5G18G 2G11G16G19
  21142314.516     2959577.233 7   2306160.18823
  22795044.9774   -5999902.83446  -4675226.82661
  22927879.3134   -3197740.59746  -2491735.69561
  24254038.3444     -37034.51245
  20916093.3834    -482056.58546
 91  3 29 22 10 30.0000000  0  5G18G 2G11G16G19
  21148111.766     2990039.086 7   2329896.64923
  22787801.781    -6037964.985 6  -4704885.52821
  22925411.617    -3210708.341 6  -2501840.38221
  24250594.2734     -55145.03845
  20916199.5634    -481491.23046   -375185.88762
 91  3 29 22 10 45.0000000  0  5G18G 2G11G16G19
  21153956.820     3020755.953 7   2353831.81723
  22780600.1334   -6075813.54246  -4734377.79461
  22922999.008    -3223387.369 6  -2511720.10521
  24247198.4774     -72980.43245
  20916344.5234    -480735.07846   -374596.67062
 91  3 29 22 11  0.0000000  0  5G18G 2G11G16G19
  21159850.656     3051727.846 7   2377965.71223
  22773438.0784   -6113448.44646  -4763703.57161
  22920640.2424   -3235777.57746  -2521374.77861
  24243859.7894     -90540.59645
  20916526.8134    -479788.11246   -373858.77062
 91  3 29 22 11 15.0000000  0  5G18G 2G11G16G19
  21165792.609     3082954.430 7   2402298.06823
  22766317.992    -6150869.652 6  -4792862.83521
  22918337.6484   -3247878.90646  -2530804.34561
  24240569.7344    -107825.43845
  20916741.9774    -478650.58646   -372972.38062
 91  3 29 22 11 30.0000000  0  5G18G 2G11G16G19
  21171783.2734    3114430.86347   2426825.11762
  22759236.2274   -6188081.52546  -4821858.98361
  22916089.4064   -3259695.70546  -2540012.20461
  24237329.2894    -124839.55445
  20916994.9694    -477326.98946   -371941.00162
 91  3 29 22 11 45.0000000  0  5G18G 2G11G16G19
  21177819.992     3146154.950 7   2451545.13822
  22752194.1484   -6225086.11446  -4850693.61061
  22913895.1024   -3271229.62246  -2548999.63861
  24234144.750     -141584.776 5        -0.19131
  20917279.8674    -475819.12446   -370766.03562
 91  3 29 22 12  0.0000000  0  5G18G 2G11G16G19
  21183902.117     3178121.029 7   2476453.72322
  22745190.5784   -6261889.09246  -4879371.13961
  22911752.8134   -3282486.21246  -2557770.97261
  24231007.711     -158066.800 5    -12843.28621
  20917602.6484    -474132.49446   -369451.77662
 91  3 29 22 12 15.0000000  0  5G18G 2G11G16G19
  21190030.633     3210322.808 7   2501545.96622
  22738223.8204   -6298496.45646  -4907896.23661
  22909661.5784   -3293471.44946  -2566330.86561
  24227920.305     -174291.693 5    -25486.03721
  20917955.3674    -472273.30346   -368003.05262
 91  3 29 22 12 30.0000000  0  5G18G 2G11G16G19
  21196202.078     3242753.004 7   2526816.19322
  22731292.5704   -6334915.66446  -4936274.71961
  22907621.289    -3304192.741 6  -2574685.07921
  24224879.875     -190266.817 5    -37934.15721
  20918339.2194    -470249.03546   -366425.70262
 91  3 29 22 12 45.0000000  0  5G18G 2G11G16G19
  21202414.7584    3275400.12747   2552255.44863
  22724396.5864   -6371157.40746  -4964514.91361
  22905629.5394   -3314660.82146  -2582841.98861
  24221885.7664    -206003.17545    -50196.22261
  20918755.3674    -468070.46746   -364728.11962
 91  3 29 22 13  0.0000000  0  5G18G 2G11G16G19
  21208666.2584    3308256.76947   2577857.97362
  22717533.6174   -6407228.85146  -4992622.41461
  22903684.492    -3324882.452 6  -2590806.87121
  24218934.086     -221507.521 5    -62277.52021
  20919197.0084    -465744.73846   -362915.85862
 91  3 29 22 13 15.0000000  0  5G18G 2G11G16G19
  21214957.172     3341314.571 7   2603617.24522
  22710699.4844   -6443138.34946  -5020603.72361
  22901784.9064   -3334865.98546  -2598586.22461
  24216025.9064    -236788.46445    -74184.71061
  20919666.9534    -463280.41446   -360995.60762
 91  3 29 22 13 30.0000000  0  5G18G 2G11G16G19
  21221283.883     3374560.849 7   2629523.38622
  22703894.1644   -6478898.32046  -5048468.51061
  22899927.4454   -3344623.74346  -2606189.63361
  24213160.3754    -251858.16345    -85927.29861
  20920161.1954    -460689.77046   -358976.92162
 91  3 29 22 13 45.0000000  0  5G18G 2G11G16G19
  21227645.117     3407988.911 7   2655571.17622
  22697115.3284   -6514515.19346  -5076221.79861
  22898112.578    -3354162.085 6  -2613622.06521
  24210329.430     -266723.117 5    -97510.34021
  20920674.7504    -457979.22646   -356864.80662
 91  3 29 22 14  0.0000000  0  5G18G 2G11G16G19
  21234039.656     3441591.857 7   2681755.23622
  22690364.8364   -6549995.69546  -5103868.82061
  22896338.117    -3363487.653 6  -2620888.69921
  24207540.0084    -281390.22045   -108939.21361
  20921215.4304    -455155.67346   -354664.63062
 91  3 29 22 14 15.0000000  0  5G18G 2G11G16G19
  21240464.586     3475351.823 7   2708061.65422
  22683635.6334   -6585357.21346  -5131423.12461
  22894601.6334   -3372617.94346  -2628003.18761
  24204783.367     -295876.932 5   -120227.52521
  20921767.9144    -452236.38946   -352389.86162
 91  3 29 22 14 30.0000000  0  5G18G 2G11G16G19
  21246917.664     3509266.602 7   2734488.69822
  22676928.7974   -6620601.83946  -5158886.34461
  22892900.2194   -3381554.67746  -2634966.85061
  24202060.2734    -310185.02045   -131376.67061
  20922339.3914    -449223.43146   -350042.09562
 91  3 29 22 14 45.0000000  0  5G18G 2G11G16G19
  21253398.938     3543327.910 7   2761029.92222
  22670242.8204   -6655737.67046  -5186264.79761
  22891234.8054   -3390306.04746  -2641786.06861
  24199370.719     -324322.819 5   -142393.10321
  20922931.7664    -446125.15246   -347627.84662
 91  3 29 22 15  0.0000000  0  5G18G 2G11G16G19
  21259906.555     3577527.339 7   2787678.77322
  22663576.0944   -6690772.63046  -5213564.63961
  22889602.8524   -3398879.79146  -2648466.86961
  24196711.359     -338298.439 5   -153283.16221
  20923537.4614    -442949.48446   -345153.29662
 91  3 29 22 15 15.0000000  0  5G18G 2G11G16G19
  21266440.828     3611858.686 7   2814430.42222
  22656926.2664   -6725712.97546  -5240790.75661
  22888005.3594   -3407282.16746  -2655014.14361
  24194079.9304    -352117.97045   -164051.60361
  20924152.6724    -439702.69046   -342623.31862
 91  3 29 22 15 30.0000000  0  5G18G 2G11G16G19
  21272997.617     3646316.377 7   2841280.51522
  22650294.9774   -6760563.72246  -5267947.07061
  22886437.6884   -3415518.20446  -2661431.80561
  24191478.8914    -365786.52045   -174702.39061
  20924780.6804    -436389.92746   -340041.94362
 91  3 29 22 15 45.0000000  0  5G18G 2G11G16G19
  21279576.805     3680891.995 7   2868222.50522
  22643677.7974   -6795333.46846  -5295040.25561
  22884900.4844   -3423596.33046  -2667726.42261
  24188905.336     -379312.499 5   -185242.09021
  20925424.4064    -433019.45746   -337415.60162
 91  3 29 22 16  0.0000000  0  5G18G 2G11G16G19
  21286178.953     3715583.499 7   2895254.80123
  22637076.4304   -6830023.86346  -5322071.61161
  22883391.8674   -3431518.04046  -2673899.14961
  24186358.7584    -392697.50745   -195671.94361
  20926076.0554    -429593.03146   -334745.65562
 91  3 29 22 16 15.0000000  0  5G18G 2G11G16G19
  21292800.930     3750381.576 7   2922370.13923
  22630488.6254   -6864643.96646  -5349048.19361
  22881913.1644   -3439292.29646  -2679956.97861
  24183834.6884    -405950.78045   -205999.13761
  20926737.2974    -426119.82546   -332039.25862
 91  3 29 22 16 30.0000000  0  5G18G 2G11G16G19
  21299442.070     3785279.040 7   2949562.91122
  22623913.430    -6899200.531 6  -5375975.27421
  22880460.3054   -3446925.82846  -2685905.16361
  24181339.023     -419079.035 5   -216228.92021
  20927408.2894    -422606.64146   -329301.71162
 91  3 29 22 16 45.0000000  0  5G18G 2G11G16G19
  21306100.320     3820271.536 7   2976829.73922
  22617346.9064   -6933697.93346  -5402856.24061
  22879033.3754   -3454422.96546  -2691747.06061
  24178863.078     -432086.718 5   -226364.75421
  20928082.0234    -419057.86846   -326536.43162
 91  3 29 22 17  0.0000000  0  5G18G 2G11G16G19
  21312777.547     3855355.219 7   3004167.61923
  22610792.6334   -6968139.58146  -5429693.76961
  22877632.5474   -3461786.95746  -2697485.20361
  24176410.1414    -444977.50245   -236409.47761
  20928762.2344    -415477.03346   -323746.17062
 91  3 29 22 17 15.0000000  0  5G18G 2G11G16G19
  21319470.883     3890530.677 7   3031577.01423
  22604250.4224   -7002524.71846  -5456487.26461
  22876255.9534   -3469017.02246  -2703118.98161
  24173978.6724    -457750.44745   -246362.38961
  20929451.2034    -411863.46446   -320930.39462
 91  3 29 22 17 30.0000000  0  5G18G 2G11G16G19
  21326180.5634    3925791.18947   3059052.68662
  22597716.6804   -7036859.79546  -5483241.74461
  22874906.180    -3476119.568 6  -2708653.41321
  24171568.9774    -470411.87645   -256228.41561
  20930143.2664    -408223.54446   -318094.09462
 91  3 29 22 17 45.0000000  0  5G18G 2G11G16G19
  21332906.422     3961134.379 7   3086592.77422
  22591193.1644   -7071146.92146  -5509958.86661
  22873576.8754   -3483096.53546  -2714089.97561
  24169182.0004    -482963.66845   -266008.99161
  20930840.4534    -404559.21746   -315238.77262
 91  3 29 22 18  0.0000000  0  5G18G 2G11G16G19
  21339645.938     3996557.825 7   3114195.40523
  22584675.563    -7105388.296 6  -5536640.34821
  22872272.6644   -3489950.03846  -2719430.33861
  24166813.7424    -495408.42545   -275706.15061
  20931541.8134    -400872.92846   -312366.33962
 91  3 29 22 18 15.0000000  0  5G18G 2G11G16G19
  21346402.914     4032059.816 7   3141859.24223
  22578168.0944   -7139585.40446  -5563287.32661
  22870992.0234   -3496681.45946  -2724675.56261
  24164463.5164    -507747.56045   -285321.06561
  20932248.2664    -397165.75346   -309477.62962
 91  3 29 22 18 30.0000000  0  5G18G 2G11G16G19
  21353173.4224    4067640.49547   3169584.38963
  22571670.2424   -7173738.01346  -5589899.63261
  22869734.0234   -3503290.65346  -2729825.54961
  24162136.0784    -519980.81245   -294853.44661
  20932955.9454    -393437.77246   -306572.70262
 91  3 29 22 18 45.0000000  0  5G18G 2G11G16G19
  21359958.695     4103297.192 7   3197368.77422
  22565178.6884   -7207848.09146  -5616478.79161
  22868499.898    -3509779.556 6  -2734881.81421
  24159830.016     -532110.387 5   -304305.04621
  20933670.3054    -389690.91546   -303653.07062
 91  3 29 22 19  0.0000000  0  5G18G 2G11G16G19
  21366759.1884    4139030.58747   3225212.92263
  22558694.5704   -7241915.16546  -5643024.44261
  22867287.5394   -3516147.66146  -2739843.94161
  24157540.2344    -544135.96745   -313675.59861
  20934386.3674    -385924.76546   -300718.40462
 91  3 29 22 19 15.0000000  0  5G18G 2G11G16G19
  21373573.875     4174841.244 7   3253117.27523
  22552220.4064   -7275938.34346  -5669535.89161
  22866099.5474   -3522393.90146  -2744711.11461
  24155274.7034    -556056.63145   -322964.40161
  20935105.7424    -382138.37046   -297767.96062
 91  3 29 22 19 30.0000000  0  5G18G 2G11G16G19
  21380401.2344    4210722.77047   3281076.84563
  22545753.203    -7309923.853 6  -5696017.99521
  22864932.3984   -3528524.35446  -2749488.05561
  24153023.164     -567878.226 5   -332176.01021
  20935828.9064    -378338.05646   -294806.67762
 91  3 29 22 19 45.0000000  0  5G18G 2G11G16G19
  21387243.4774    4246679.56847   3309095.07162
  22539294.227    -7343866.817 6  -5722466.94921
  22863789.5474   -3534534.13446  -2754170.96061
  24150792.586     -579596.244 5   -341306.89221
  20936557.2584    -374518.94746   -291830.74262
 91  3 29 22 20  0.0000000  0  5G18G 2G11G16G19
  21394101.523     4282713.617 7   3337173.49222
  22532843.844    -7377765.135 6  -5748881.11621
  22862667.766    -3540421.128 6  -2758758.20321
  24148582.5784    -591208.37445   -350355.29161
  20937287.8054    -370678.86846   -288838.46962
 91  3 29 22 20 15.0000000  0  6G18G 2G11G16G19G 6
  21400972.070     4318823.084 7   3365310.68223
  22526400.617    -7411620.406 6  -5775261.74021
  22861570.094    -3546186.894 6  -2763250.98221
  24146392.984     -602716.354 5   -359322.52821
  20938022.6564    -366819.53446   -285831.19662
  24395655.0164         -0.23554
 91  3 29 22 20 30.0000000  0  6G18G 2G11G16G19G 6
  21407856.7894    4355001.59047   3393501.66863
  22519965.969    -7445438.362 6  -5801613.29121
  22860495.9534   -3551837.10546  -2767653.71561
  24144219.7974    -614125.93245   -368213.06061
  20938760.4774    -362946.66946   -282813.37362
  24389792.2894     -30820.10144
 91  3 29 22 20 45.0000000  0  6G18G 2G11G16G19G 6
  21414755.6564    4391251.87147   3421748.58063
  22513537.070    -7479216.393 6  -5827933.72121
  22859443.477    -3557368.996 6  -2771964.25621
  24142068.5234    -625434.38345   -377024.83961
  20939500.3134    -359057.59946   -279782.92462
  24383920.9614     -61665.42944
 91  3 29 22 21  0.0000000  0  6G18G 2G11G16G19G 6
  21421666.0704    4427572.13647   3450050.02862
  22507116.445    -7512955.944 6  -5854224.17121
  22858413.6414   -3562783.91746  -2776183.64461
  24139937.8524    -636643.13945   -385758.90461
  20940241.7974    -355153.77346   -276740.98062
  24378045.852      -92537.701 4
 91  3 29 22 21 15.0000000  0  6G18G 2G11G16G19G 6
  21428591.0234    4463960.13947   3478404.25462
  22500703.727    -7546659.001 6  -5880486.19021
  22857404.320    -3568083.941 6  -2780313.51021
  24137823.648     -647754.524 5   -394417.10321
  20940988.1954    -351237.31046   -273689.18762
  24372167.7034    -123439.22644
 91  3 29 22 21 30.0000000  0  6G18G 2G11G16G19G 6
  21435529.3754    4500419.53047   3506814.11162
  22494296.742    -7580322.011 6  -5906717.00321
  22856417.852    -3573265.268 6  -2784350.88421
  24135728.1804    -658764.71945   -402996.46461
  20941735.6094    -347304.36946   -270624.55562
  24366279.609     -154366.182 4        -0.25331
 91  3 29 22 21 45.0000000  0  6G18G 2G11G16G19G 6
  21442480.7894    4536949.39747   3535278.88062
  22487898.7974   -7613945.31246  -5932916.87661
  22855455.172    -3578328.320 6  -2788296.09421
  24133649.3594    -669674.21944   -411497.34261
  20942487.8674    -343355.71346   -267547.67862
  24360388.5864    -185319.27244    -24119.38761
 91  3 29 22 22  0.0000000  0  6G18G 2G11G16G19G 6
  21449445.3754    4573549.57447   3563798.43862
  22481507.4614   -7647528.87146  -5959085.78861
  22854514.3754   -3583273.21446  -2792149.23661
  24131595.000     -680483.141 5   -419919.86521
  20943240.0394    -339391.08046   -264458.35262
  24354495.2664    -216298.73044    -48259.06361
 91  3 29 22 22 15.0000000  0  6G18G 2G11G16G19G 6
  21456424.0704    4610222.29447   3592374.52962
  22475124.867    -7681069.892 6  -5985221.54821
  22853596.898    -3588097.010 6  -2795908.01321
  24129557.070     -691188.783 5   -428261.88721
  20943999.6564    -335407.79746   -261354.49662
  24348591.922     -247301.923 3    -72417.24021
 91  3 29 22 22 30.0000000  0  6G18G 2G11G16G19G 6
  21463416.6724    4646966.26647   3621006.13862
  22468750.4384   -7714569.81346  -6011325.28361
  22852700.875    -3592800.952 6  -2799573.40821
  24127539.6174    -701792.39745   -436524.44961
  20944760.2814    -331407.08646   -258237.06162
  24342688.2194    -278330.22343    -96594.98261
 91  3 29 22 22 45.0000000  0  6G18G 2G11G16G19G 6
  21470421.4614    4683780.22547   3649692.27262
  22462383.6094   -7748029.55846  -6037397.71061
  22851827.484    -3597386.029 6  -2803146.17021
  24125539.461     -712294.952 5   -444708.24421
  20945525.3284    -327389.87046   -255106.76162
  24336783.1094    -309384.62544   -120793.07561
 91  3 29 22 23  0.0000000  0  6G18G 2G11G16G19G 6
  21477440.9144    4720665.59447   3678434.05462
  22456023.4694   -7781447.29946  -6063437.41461
  22850978.594    -3601850.326 6  -2806624.83021
  24123561.9064    -722694.96245   -452812.14861
  20946292.7974    -323354.45846   -251962.28162
  24330867.977     -340463.640 4   -145010.34321
 91  3 29 22 23 15.0000000  0  6G18G 2G11G16G19G 6
  21484473.4844    4757625.39347   3707233.83762
  22449673.797    -7814819.873 6  -6089441.91621
  22850152.3914   -3606190.37946  -2810006.67661
  24121602.961     -732989.210 5   -460833.62621
  20947065.5554    -319297.58446   -248801.08462
  24324948.406     -371563.930 3   -169244.17321
 91  3 29 22 23 30.0000000  0  6G18G 2G11G16G19G 6
  21491521.5864    4794659.22847   3736091.30562
  22443331.5394   -7848147.42846  -6115411.34161
  22849350.406    -3610406.420 6  -2813291.88621
  24119662.008     -743177.792 5   -468772.75421
  20947844.0474    -315219.26646   -245623.17262
  24319023.984     -402685.930 3   -193494.96121
 91  3 29 22 23 45.0000000  0  6G18G 2G11G16G19G 6
  21498583.3134    4831766.35647   3765005.88762
  22436997.1414   -7881430.54946  -6141346.14361
  22848572.172    -3614499.194 6  -2816481.04021
  24117744.6414    -753261.14945   -476629.91561
  20948621.4144    -311120.35846   -242429.21562
  24313097.8284    -433830.24144   -217763.12161
 91  3 29 22 24  0.0000000  0  6G18G 2G11G16G19G 6
  21505658.5784    4868948.64847   3793979.03662
  22430671.9924   -7914666.97046  -6167244.55761
  22847817.539    -3618466.313 6  -2819572.28121
  24115844.945     -763237.228 5   -484403.47021
  20949406.7424    -306998.64646   -239217.49062
  24307168.2664    -464994.80444   -242047.05361
 91  3 29 22 24 15.0000000  0  6G18G 2G11G16G19G 6
  21512748.0394    4906204.39347   3823009.42462
  22424357.1174   -7947858.00246  -6193107.61361
  22847084.789    -3622308.843 6  -2822566.44221
  24113968.6414    -773107.48845   -492094.60261
  20950194.9224    -302855.27846   -235988.89462
  24301234.5944    -496180.95544   -266347.78561
 91  3 29 22 24 30.0000000  0  6G18G 2G11G16G19G 6
  21519851.3204    4943533.38647   3852096.89362
  22418049.7664   -7981003.54446  -6218935.21761
  22846378.234    -3626026.794 6  -2825463.53421
  24112113.4924    -782871.64145   -499703.01361
  20950988.8204    -298690.13346   -232743.32762
  24295295.3284    -527388.75844   -290665.46161
 91  3 29 22 24 45.0000000  0  6G18G 2G11G16G19G 6
  21526969.8444    4980937.61947   3881242.97562
  22411750.7504   -8014101.56546  -6244725.78261
  22845693.789    -3629618.293 6  -2828262.08621
  24110271.9454    -792528.06445   -507227.49761
  20951785.0474    -294501.38446   -229479.37962
  24289352.7344    -558616.32144   -314998.46261
 91  3 29 22 25  0.0000000  0  6G18G 2G11G16G19G 6
  21534102.000     5018417.904 7   3910448.31922
  22405460.773    -8047151.349 6  -6270478.75621
  22845033.9844   -3633082.24846  -2830961.26361
  24108454.719     -802075.486 4   -514667.06521
  20952584.4694    -290287.98146   -226196.20162
  24283406.2504    -589862.77944   -339346.23961
 91  3 29 22 25 15.0000000  0  6G18G 2G11G16G19G 6
  21541247.8134    5055972.33047   3939711.43662
  22399180.3204   -8080154.20746  -6296195.17561
  22844399.273    -3636420.008 6  -2833562.09921
  24106659.3134    -811515.42245   -522022.85961
  20953392.8674    -286051.32046   -222894.90862
  24277457.2504    -621129.85144   -363710.05261
 91  3 29 22 25 30.0000000  0  6G18G 2G11G16G19G 6
  21548409.3914    5093605.19347   3969035.68062
  22392910.6414   -8113105.69646  -6321871.56861
  22843789.258    -3639627.107 6  -2836061.12721
  24104886.789     -820843.564 5   -529291.54221
  20954203.7814    -281786.98246   -219572.02963
  24271501.641     -652413.083 4   -388086.45221
 91  3 29 22 25 45.0000000  0  6G18G 2G11G16G19G 6
  21555586.5864    5131319.27647   3998423.21262
  22386651.2504   -8146002.67646  -6347505.48861
  22843205.1804   -3642700.40146  -2838455.88361
  24103133.883     -830057.117 5   -536470.94521
  20955020.3754    -277491.78246   -216225.12563
  24265546.9614    -683709.38044   -412473.03561
 91  3 29 22 26  0.0000000  0  6G18G 2G11G16G19G 6
  21562778.3984    5169110.33547   4027870.72462
  22380399.984    -8178849.279 6  -6373100.16021
  22842644.875    -3645644.024 6  -2840749.60421
  24101399.5704    -839160.06745   -543564.15361
  20955845.4144    -273169.85146   -212857.38663
  24259587.836     -715023.226 4   -436873.32521
 91  3 29 22 26 15.0000000  0  6G18G 2G11G16G19G 6
  21569983.3674    5206979.02447   4057378.72562
  22374159.9614   -8211644.56646  -6398654.84861
  22842109.430    -3648456.978 6  -2842941.50421
  24099687.7974    -848151.67145   -550570.61661
  20956672.3134    -268820.19346   -209468.04363
  24253626.1094    -746353.55044   -461286.42861
 91  3 29 22 26 30.0000000  0  6G18G 2G11G16G19G 6
  21577205.1564    5244927.81647   4086949.14562
  22367927.5234   -8244385.78046  -6424167.38561
  22841600.477    -3651136.447 6  -2845029.37921
  24098000.078     -857029.096 5   -557488.09321
  20957506.5234    -264440.22346   -206055.08563
  24247662.0474    -777697.67944   -485710.28461
 91  3 29 22 26 45.0000000  0  6G18G 2G11G16G19G 6
  21584442.7504    5282956.55147   4116581.85862
  22361708.0394   -8277072.95046  -6449637.81561
  22841114.523    -3653682.477 6  -2847013.28621
  24096331.133     -865792.335 5   -564316.61821
  20958345.1334    -260029.77346   -202618.37463
  24241695.1884    -809055.74744   -510145.00461
 91  3 29 22 27  0.0000000  0  6G18G 2G11G16G19G 6
  21591694.1094    5321062.95447   4146275.09162
  22355497.9454   -8309708.08546  -6475067.70861
  22840656.320    -3656096.871 6  -2848894.61621
  24094684.695     -874443.102 5   -571057.46721
  20959186.1644    -255590.84746   -199159.47463
  24235722.500     -840429.908 4   -534592.28021
 91  3 29 22 27 15.0000000  0  6G18G 2G11G16G19G 6
  21598961.2114    5359251.88747   4176032.63262
  22349298.3834   -8342285.96446  -6500452.98061
  22840221.781    -3658374.662 6  -2850669.50021
  24093061.336     -882976.712 5   -577707.03321
  20960039.8134    -251118.35446   -195674.41763
  24229751.5004    -871815.15944   -559048.20361
 91  3 29 22 27 30.0000000  0  6G18G 2G11G16G19G 6
  21606243.328     5397519.445 7   4205851.43622
  22343111.063    -8374809.970 6  -6525796.28021
  22839813.844    -3660519.084 6  -2852340.45821
  24091459.797     -891396.617 5   -584268.00221
  20960898.8364    -246615.70346   -192165.85563
  24223775.523     -903214.957 4   -583515.43221
 91  3 29 22 27 45.0000000  0  6G18G 2G11G16G19G 6
  21613540.8054    5435867.12447   4235732.67762
  22336931.008    -8407278.414 6  -6551096.28921
  22839433.102    -3662528.505 6  -2853906.22621
  24089878.7974    -899700.95045   -590738.91861
  20961758.5554    -242081.16546   -188632.45263
  24217799.1094    -934627.64944   -607992.70661
 91  3 29 22 28  0.0000000  0  6G18G 2G11G16G19G 6
  21620853.1024    5474294.46347   4265675.98762
  22330763.078    -8439691.531 6  -6576353.18321
  22839075.8834   -3664402.93346  -2855366.81761
  24088319.656     -907890.358 5   -597120.27821
  20962625.1564    -237514.78546   -185074.23363
  24211816.3754    -966053.53744   -632480.23461
 91  3 29 22 28 15.0000000  0  6G18G 2G11G16G19G 6
  21628181.9924    5512804.69947   4295683.89362
  22324606.633    -8472045.964 6  -6601564.34421
  22838745.313    -3666139.069 6  -2856719.63121
  24086784.7734    -915961.24345   -603409.28661
  20963503.3054    -232913.15546   -181488.54463
  24205834.797     -997489.417 5   -656975.58821
 91  3 29 22 28 30.0000000  0  6G18G 2G11G16G19G 6
  21635526.1254    5551396.14947   4325755.08362
  22318459.531    -8504342.977 6  -6626730.76521
  22838440.188    -3667738.205 6  -2857965.69121
  24085269.922     -923914.950 5   -609606.98421
  20964385.2584    -228277.63746   -177876.45363
  24199850.8984   -1028936.62244   -681479.76661
 91  3 29 22 28 45.0000000  0  6G18G 2G11G16G19G 6
  21642885.3984    5590070.30247   4355890.71962
  22312326.047    -8536581.078 6  -6651851.28521
  22838162.227    -3669198.731 6  -2859103.74521
  24083780.453     -931750.085 5   -615712.30521
  20965274.1644    -223606.61046   -174236.68363
  24193866.383    -1060393.740 4   -705991.63321
 91  3 29 22 29  0.0000000  0  6G18G 2G11G16G19G 6
  21650260.0084    5628829.76747   4386092.82962
  22306201.594    -8568757.522 6  -6676923.75221
  22837912.711    -3670517.978 6  -2860131.71621
  24082312.414     -939463.970 5   -621723.13721
  20966171.1804    -218897.27546   -170567.07363
  24187877.0704   -1091858.02545   -730509.08061
 91  3 29 22 29 15.0000000  0  6G18G 2G11G16G19G 6
  21657651.8674    5667672.00947   4416359.44662
  22300089.625    -8600874.220 6  -6701949.67421
  22837687.6724   -3671697.84546  -2861051.08561
  24080867.0864    -947058.68045   -627641.09661
  20967073.2974    -214151.62146   -166869.15563
  24181888.438    -1123331.695 5   -755033.86821
 91  3 29 22 29 30.0000000  0  6G18G 2G11G16G19G 6
  21665059.1334    5706598.22647   4446691.49662
  22293990.469    -8632929.730 6  -6726927.91721
  22837488.547    -3672736.849 6  -2861860.68121
  24079443.203     -954532.535 5   -633464.88921
  20967984.5554    -209368.29246   -163141.88263
  24175895.594    -1154813.247 5   -779564.78221
 91  3 29 22 29 45.0000000  0  6G18G 2G11G16G19G 6
  21672482.0234    5745604.21247   4477085.70362
  22287901.164    -8664928.352 6  -6751861.83221
  22837316.773    -3673639.291 6  -2862563.86321
  24078044.297     -961890.122 5   -639198.08421
  20968901.7344    -204551.43946   -159388.48763
  24169904.945    -1186307.121 5   -804105.29521
 91  3 29 22 30  0.0000000  0  6G18G 2G11G16G19G 6
  21679920.5394    5784692.15247   4507543.77062
  22281823.617    -8696867.313 6  -6776749.25921
  22837173.461    -3674402.377 6  -2863158.45721
  24076668.125     -969128.933 5   -644838.70221
  20969823.7274    -199698.36446   -155606.86363
  24163909.500    -1217810.707 5   -828653.37821
 91  3 29 22 30 15.0000000  0  6G18G 2G11G16G19G 6
  21687373.5394    5823861.09947   4538064.95562
  22275757.750    -8728747.250 6  -6801590.68821
  22837052.8284   -3675026.70146  -2863644.92861
  24075314.0164    -976249.34445   -650387.09161
  20970755.7894    -194809.62246   -151797.45263
  24157912.0394   -1249324.68245   -853209.52761
 91  3 29 22 30 30.0000000  0  6G18G 2G11G16G19G 6
  21694843.3754    5863115.09647   4568652.42062
  22269702.141    -8760563.923 6  -6826382.82121
  22836962.047    -3675508.073 6  -2864020.00821
  24073981.2584    -983247.11745   -655839.89661
  20971691.8834    -189880.82746   -147956.83563
  24151914.156    -1280844.893 5   -877770.53521
 91  3 29 22 30 45.0000000  0  6G18G 2G11G16G19G 6
  21702329.8364    5902452.04047   4599304.52062
  22263660.164    -8792319.244 6  -6851127.14621
  22836896.320    -3675848.424 6  -2864285.19521
  24072670.203     -990124.401 5   -661198.85521
  20972637.7274    -184914.13846   -144086.68863
  24145913.859    -1312373.268 5   -902337.95821
 91  3 29 22 31  0.0000000  0  6G18G 2G11G16G19G 6
  21709829.7664    5941868.30147   4630018.41962
  22257627.570    -8824016.622 6  -6875826.32421
  22836859.383    -3676050.983 6
  24071385.4694    -996884.60545   -666466.55561
  20973587.3914    -179912.88146   -140189.60463
  24139911.930    -1343913.418 5   -926914.51621
 91  3 29 22 31 15.0000000  0  6G18G 2G11G16G19G 6
  21717345.3364    5981368.16447   4660797.46862
  22251607.609    -8855651.710 6
  22836848.789    -3676111.361 6
  24070123.7114   -1003523.43145   -671639.63961
  20974549.7664    -174872.55946   -136262.07663
  24133910.313    -1375460.993 5
 91  3 29 22 31 30.0000000  0  6G18G 2G11G16G19G 6
  21724878.961     6020948.733 7   4691639.40122
  22245599.344    -8887226.971 6
  22836861.063    -3676032.120 6
  24068879.7424   -1010043.27345   -676720.06161
  20975514.9224    -169795.53146   -132305.95263
  24127905.008    -1407018.477 5
 91  3 29 22 31 45.0000000  0  6G18G 2G11G16G19G 6
  21732426.7114    6060610.15847   4722544.33662
  22239601.305    -8918741.824 6
  22836903.219    -3675812.730 6
  24067660.414    -1016444.164 5   -681707.78321
  20976486.8984    -164681.19546   -128320.75263
  24121897.453    -1438585.451 5
 91  3 29 22 32  0.0000000  0  6G18G 2G11G16G19G 6
  21739989.008     6100353.133 7   4753512.81322
  22233616.859    -8950195.575 6  -6974147.27121
  22836971.641    -3675452.365 6
  24066469.2584   -1022724.94845   -686601.90561
  20977466.5394    -159528.78246   -124305.88363
  24115887.391    -1470161.331 5  -1025288.80821
 91  3 29 22 32 15.0000000  0  6G18G 2G11G16G19G 6
  21747567.609     6140180.558 7   4784547.09722
  22227642.859    -8981584.713 6  -6998606.25221
  22837069.977    -3674947.677 6  -2863583.22421
  24065297.422    -1028882.283 5   -691399.84921
  20978455.6884    -154334.99246   -120258.76463
  24109877.453    -1501742.835 5  -1049897.56921
 91  3 29 22 32 30.0000000  0  6G18G 2G11G16G19G 6
  21755161.2504    6180086.92047   4815642.89562
  22221681.9384   -9012914.81146  -7023019.22761
  22837190.219    -3674304.108 6  -2863081.72221
  24064147.2194   -1034921.73745   -696105.90961
  20979449.6884    -149105.25446   -116183.63863
  24103864.3594   -1533335.45145  -1074515.07161
 91  3 29 22 32 45.0000000  0  6G18G 2G11G16G19G 6
  21762771.820     6220076.463 7   4846803.50222
  22215731.328    -9044181.409 6  -7047382.72621
  22837340.688    -3673517.206 6  -2862468.53421
  24063021.328    -1040839.109 5   -700716.87321
  20980454.3524    -143835.01846   -112076.95363
  24097853.4384   -1564934.70345  -1099137.68061
 91  3 29 22 33  0.0000000  0  6G18G 2G11G16G19G 6
  21770397.172     6260150.441 7   4878029.90122
  22209793.266    -9075382.968 6  -7071695.54621
  22837517.578    -3672585.295 6  -2861742.35321
  24061918.9384   -1046632.80945   -705231.45861
  20981465.7814    -138522.55646   -107937.37263
  24091839.289    -1596539.046 5  -1123764.27421
 91  3 29 22 33 15.0000000  0  6G18G 2G11G16G19G 6
  21778038.617     6300306.019 7   4909319.88322
  22203869.148    -9106522.039 6  -7095959.67421
  22837722.359    -3671510.975 6  -2860905.20321
  24060838.906    -1052305.469 5   -709651.71021
  20982486.2114    -133170.43946   -103766.89063
  24085820.688    -1628151.181 5  -1148396.96021
 91  3 29 22 33 30.0000000  0  6G18G 2G11G16G19G 6
  21785696.055     6340543.953 7   4940674.04322
  22197955.188    -9137597.571 6  -7120174.28721
  22837953.984    -3670293.340 6  -2859956.38421
  24059780.602    -1057856.033 5   -713976.84721
  20983509.4534    -127777.70946    -99564.76263
  24079805.508    -1659770.295 5  -1173035.10021
 91  3 29 22 33 45.0000000  0  6G18G 2G11G16G19G 6
  21793367.594     6380860.762 7   4972089.66822
  22192052.0164   -9168612.67046  -7144341.80761
  22838212.266    -3668935.643 6  -2858898.41821
  24058749.4694   -1063288.04345   -718209.58461
  20984542.9924    -122347.55646    -95333.47363
  24073788.5944   -1691399.61045  -1197681.16561
 91  3 29 22 34  0.0000000  0  6G18G 2G11G16G19G 6
  21801055.453     6421258.217 7   5003568.12922
  22186162.6024   -9199565.31446  -7168460.66361
  22838496.406    -3667435.686 6  -2857729.60221
  24057738.9694   -1068599.45045   -722348.36761
  20985584.6644    -116877.72046    -91071.26863
  24067765.047    -1723037.151 5  -1222333.65921
 91  3 29 22 34 15.0000000  0  6G18G 2G11G16G19G 6
  21808757.734     6461735.049 7   5035108.43922
  22180283.391    -9230456.391 6  -7192531.54821
  22838811.875    -3665794.503 6  -2856450.75421
  24056751.2344   -1073791.15745   -726393.87961
  20986631.7584    -111369.21246    -86778.92263
  24061744.602    -1754683.876 4  -1246993.26421
 91  3 29 22 34 30.0000000  0  6G18G 2G11G16G19G 6
  21816475.109     6502287.488 7   5066707.67022
  22174416.813    -9261289.565 6  -7216557.31321
  22839148.2344   -3664015.60946  -2855064.59461
  24055783.117    -1078866.710 5   -730348.86321
  20987687.6564    -105825.55646    -82459.19263
  24055716.7034   -1786343.51145  -1271662.96961
 91  3 29 22 34 45.0000000  0  6G18G 2G11G16G19G 6
  21824205.961     6542917.078 7   5098367.01322
  22168561.4534   -9292063.38046  -7240536.82761
  22839512.992    -3662097.559 6  -2853570.00121
  24054841.648    -1083824.912 5   -734212.41721
  20988750.2034    -100245.38746    -78111.00863
  24049692.3984   -1818014.59845  -1296341.61461
 91  3 29 22 35  0.0000000  0  6G18G 2G11G16G19G 6
  21831952.688     6583624.716 7   5130087.17822
  22162716.633    -9322776.212 6  -7264468.81721
  22839906.648    -3660038.766 6  -2851965.73221
  24053919.633    -1088664.335 5   -737983.41721
  20989816.9384     -94627.03646    -73733.07463
  24043663.352    -1849695.704 5  -1321028.07521
 91  3 29 22 35 15.0000000  0  6G18G 2G11G16G19G 6
  21839714.961     6624412.197 7   5161869.55122
  22156883.727    -9353426.172 6  -7288351.82321
  22840323.039    -3657837.230 6  -2850250.23721
  24053023.4144   -1093382.86345   -741660.18361
  20990896.4304     -88968.41446    -69323.75663
  24037633.367    -1881384.836 5  -1345720.75821
 91  3 29 22 35 30.0000000  0  6G18G 2G11G16G19G 6
  21847491.258     6665276.474 7   5193711.75922
  22151061.852    -9384016.098 6  -7312188.04821
  22840768.6334   -3655495.80846  -2848425.74261
  24052146.9614   -1097983.47245   -745245.09661
  20991978.8674     -83272.24546    -64885.18663
  24031600.688    -1913084.875 5  -1370421.93721
 91  3 29 22 35 45.0000000  0  6G18G 2G11G16G19G 6
  21855282.063     6706218.397 7   5225614.47922
  22145252.344    -9414544.694 6  -7335976.48221
  22841240.945    -3653013.327 6  -2846491.32921
  24051294.766    -1102465.081 5   -748737.28321
  20993071.6644     -77537.31046    -60416.40263
  24025567.0164   -1944794.67145  -1395130.74061
 91  3 29 22 36  0.0000000  0  6G18G 2G11G16G19G 6
  21863088.094     6747240.453 7   5257579.63522
  22139455.1804   -9445009.30646  -7359715.05862
  22841741.4064   -3650387.18246  -2844444.97961
  24050465.6414   -1106825.18145   -752134.78561
  20994173.4144     -71760.92546    -55915.32463
  24019530.0864   -1976511.73845  -1419845.21361
 91  3 29 22 36 15.0000000  0  6G18G 2G11G16G19G 6
  21870910.234     6788342.411 7   5289607.05322
  22133670.367    -9475409.749 6  -7383403.63022
  22842267.9304   -3647617.21046  -2842286.54361
  24049655.242    -1111063.730 5   -755437.54821
  20995277.8834     -65942.77746    -51381.70563
  24013493.109    -2008236.046 5  -1444565.31421
 91  3 29 22 36 30.0000000  0  6G18G 2G11G16G19G 6
  21878745.758     6829522.191 7   5321695.11422
  22127897.578    -9505748.171 6  -7407043.88222
  22842822.4534   -3644705.51246  -2840017.68361
  24048874.633    -1115182.904 5   -758647.31621
  20996394.6804     -60085.13046    -46817.30963
  24007454.070    -2039969.666 5  -1469292.68721
 91  3 29 22 36 45.0000000  0  6G18G 2G11G16G19G 6
  21886598.594     6870781.688 7   5353845.28522
  22122135.922    -9536022.440 6  -7430634.14922
  22843404.3284   -3641649.93046  -2837636.70761
  24048113.594    -1119180.380 5   -761762.27321
  20997515.3444     -54185.79046    -42220.42063
  24001411.8984   -2071710.45245  -1494025.65061
 91  3 29 22 37  0.0000000  0  6G18G 2G11G16G19G 6
  21894464.367     6912120.353 7   5386057.15422
  22116387.3284   -9566232.80046  -7454174.62162
  22844013.9534   -3638450.68946  -2835143.78661
  24047375.6644   -1123056.37945   -764782.53961
  20998645.5004     -48244.67146    -37590.97963
  23995371.422    -2103458.661 5  -1518764.37621
 91  3 29 22 37 15.0000000  0  6G18G 2G11G16G19G 6
  21902346.313     6953539.715 7   5418331.90522
  22110650.945    -9596377.170 6  -7477663.66522
  22844651.5474   -3635105.87546  -2832537.43461
  24046661.2344   -1126809.34145   -767706.96061
  20999782.8984     -42259.80546    -32927.44863
  23989328.414    -2135212.414 5  -1543507.41821
 91  3 29 22 37 30.0000000  0  6G18G 2G11G16G19G 6
  21910242.516     6995033.153 7   5450664.36922
  22104925.508    -9626461.938 6  -7501106.26222
  22845311.4844   -3631621.86146  -2829822.61661
  24045971.0634   -1130445.85045   -770540.61761
  21000929.8284     -36237.79246    -28234.97063
  23983284.8134   -2166978.23245  -1568259.87361
 91  3 29 22 37 45.0000000  0  6G18G 2G11G16G19G 6
  21918152.078     7036606.093 7   5483058.78922
  22099212.117    -9656481.605 6  -7524498.13022
  22846004.7114   -3627993.24546  -2826995.12061
  24045302.8134   -1133960.30445   -773279.15761
  21002083.4924     -30173.06346    -23509.20363
  23977237.4534   -2198750.64745  -1593017.44561
 91  3 29 22 38  0.0000000  0  6G18G 2G11G16G19G 6
  21926078.219     7078251.945 7   5515510.02422
  22093511.844    -9686442.343 6  -7547844.08022
  22846719.8914   -3624226.00146  -2824059.60561
  24044653.492    -1137358.558 5   -775927.16721
  21003245.7894     -24071.43046    -18754.68663
  23971191.859    -2230535.782 5  -1617784.96321
 91  3 29 22 38 15.0000000  0  6G18G 2G11G16G19G 6
  21934018.523     7119977.732 7   5548023.54322
  22087824.023    -9716337.127 6  -7571138.64422
  22847466.0164   -3620313.07646  -2821010.56761
  24044031.9614   -1140633.91445   -778479.40561
  21004413.5704     -17925.54746    -13965.68863
  23965141.281    -2262326.567 5  -1642556.85621
 91  3 29 22 38 30.0000000  0  6G18G 2G11G16G19G 6
  21941974.305     7161783.739 7   5580599.56822
  22082146.867    -9746165.169 6  -7594381.20122
  22848235.8364   -3616253.93646  -2817847.59061
  24043431.1954   -1143786.00845   -780935.60361
  21005595.4614     -11734.92346     -9141.82563
  23959090.0314   -2294122.53445  -1667332.82461
 91  3 29 22 38 45.0000000  0  6G18G 2G11G16G19G 6
  21949943.773     7203665.225 7   5613234.40822
  22076483.8984   -9775931.02446  -7617575.30662
  22849037.789    -3612053.176 6  -2814574.26321
  24042855.3984   -1146819.16945   -783299.15161
  21006778.2504      -5504.31546     -4286.80463
  23953038.438    -2325928.288 5  -1692116.35621
 91  3 29 22 39  0.0000000  0  6G18G 2G11G16G19G 6
  21957928.492     7245624.982 7   5645930.24022
  22070830.133    -9805631.716 6  -7640718.62522
  22849864.4924   -3607707.78946  -2811188.24261
  24042301.602    -1149730.535 5   -785567.76021
  21007973.3204        769.42546       601.82263
  23946985.1884   -2357740.78045  -1716905.18761
 91  3 29 22 39 15.0000000  0  6G18G 2G11G16G19G 6
  21965927.914     7287664.149 7   5678687.94822
  22065191.555    -9835265.809 6  -7663810.04322
  22850717.4844   -3603216.20346  -2807688.29661
  24041771.9534   -1152518.55845   -787740.27261
  21009174.6954       7088.10146      5525.46663
  23940928.031    -2389558.552 5  -1741698.09621
 91  3 29 22 39 30.0000000  0  6G18G 2G11G16G19G 6
  21973942.8364    7329781.97947   5711506.95462
  22059565.063    -9864833.744 6  -7686849.90922
  22851599.3524   -3598579.18446  -2804075.03061
  24041262.1724   -1155184.28945   -789817.48761
  21010383.6884      13450.97046     10483.55063
  23934873.8134   -2421382.27145  -1766495.67161
 91  3 29 22 39 45.0000000  0  6G18G 2G11G16G19G 6
  21981972.445     7371976.196 7   5744385.48021
  22053951.195    -9894337.484 6  -7709839.76522
  22852510.3834   -3593798.59346  -2800349.89461
  24040776.195    -1157729.620 5   -791800.89021
  21011604.9064      19856.13746     15474.59463
  23928812.6484   -2453213.96845  -1791299.45261
 91  3 29 22 40  0.0000000  0  6G18G 2G11G16G19G 6
  21990017.070     7414247.926 7   5777324.40622
  22048347.4614   -9923775.62546  -7732778.50362
  22853446.1094   -3588873.07746  -2796511.82861
  24040316.961    -1160153.187 5   -793689.40421
  21012834.9304      26305.30646     20499.92163
  23922755.6024   -2485052.22845  -1816108.32461
 91  3 29 22 40 15.0000000  0  6G18G 2G11G16G19G 6
  21998074.734     7456596.117 7   5810322.90922
  22042759.1334   -9953149.21346  -7755666.94362
  22854412.1564   -3583803.48946  -2792561.50161
  24039878.281    -1162456.240 5   -795484.01421
  21014067.2734      32797.52046     25558.78863
  23916696.3524   -2516897.91345  -1840923.00261
 91  3 29 22 40 30.0000000  0  6G18G 2G11G16G19G 6
  22006149.406     7499022.024 7   5843381.97122
  22037182.195    -9982456.661 6  -7778503.83422
  22855405.7344   -3578588.41246  -2788497.80661
  24039465.391    -1164636.977 5   -797183.32321
  21015308.2814      39334.36146     30652.42563
  23910634.148    -2548749.698 5  -1865742.43521
 91  3 29 22 40 45.0000000  0  6G18G 2G11G16G19G 6
  22014236.438     7541527.994 7   5876503.42122
  22031616.734   -10011695.430 6  -7801287.20922
  22856427.0634   -3573225.43246  -2784318.86061
  24039071.5864   -1166693.45945   -798785.80461
  21016562.6094      45918.37346     35782.82463
  23904575.2734   -2580605.13045  -1890564.69661
 91  3 29 22 41  0.0000000  0  6G18G 2G11G16G19G 6
  22022340.3914    7584109.70947   5909683.88762
  22026066.063   -10040869.391 6  -7824020.08822
  22857473.0234   -3567718.41146  -2780027.67561
  24038704.4694   -1168629.16545   -800294.16561
  21017826.0704      52545.73246     40946.99863
  23898509.859    -2612468.078 5  -1915392.81421
 91  3 29 22 41 15.0000000  0  6G18G 2G11G16G19G 6
  22030458.078     7626768.336 7   5942924.29322
  22020527.742   -10069977.050 6  -7846701.30522
  22858547.9614   -3562065.90546  -2775623.12461
  24038358.219    -1170442.767 5   -801707.37721
  21019095.7974      59217.95646     46146.12763
  23892442.8834   -2644337.06845  -1940225.66761
 91  3 29 22 41 30.0000000  0  6G18G 2G11G16G19G 6
  22038591.367     7669508.877 7   5976228.52621
  22015001.984   -10099013.138 6  -7869326.75622
  22859654.2034   -3556262.73346  -2771101.18161
  24038039.391    -1172129.409 5   -803021.68321
  21020374.7894      65940.38146     51384.37863
  23886380.078    -2676207.093 5  -1965059.33021
 91  3 29 22 41 45.0000000  0  6G18G 2G11G16G19G 6
  22046739.992     7712330.767 7   6009596.14822
  22009488.813   -10127977.905 6  -7891896.62622
  22860784.7894   -3550309.15246  -2766462.03661
  24037739.7894   -1173689.42945   -804237.32361
  21021663.2194      72712.80146     56661.57863
  23880315.641    -2708078.243 5  -1989893.84621
 91  3 29 22 42  0.0000000  0  6G18G 2G11G16G19G 6
  22054904.320     7755231.009 7   6043024.82621
  22003990.266   -10156874.073 6  -7914413.03822
  22861947.7504   -3544207.96746  -2761707.87661
  24037468.4064   -1175125.54245   -805356.37761
  21022958.5314      79532.41146     61975.55663
  23874249.898    -2739953.535 5  -2014731.61121
 91  3 29 22 42 15.0000000  0  6G18G 2G11G16G19G 6
  22063082.3594    7798207.88547   6076513.21862
  21998504.281   -10185703.371 6  -7936877.35022
  22863134.6174   -3537960.95646  -2756840.08761
  24037219.4454   -1176439.45545   -806380.24861
  21024266.8754      86397.61646     67325.06263
  23868181.844    -2771834.656 5  -2039573.89621
 91  3 29 22 42 30.0000000  0  6G18G 2G11G16G19G 6
  22071275.148     7841263.128 7   6110062.67522
  21993031.445   -10214463.582 7  -7959287.82722
  22864351.8054   -3531565.91146  -2751856.94461
  24036992.8754   -1177629.23645   -807307.37061
  21025582.5554      93310.69246     72711.86663
  23862115.0864   -2803719.30745  -2064418.95161
 91  3 29 22 42 45.0000000  0  6G18G 2G11G16G19G 6
  22079483.0084    7884393.50847   6143670.67661
  21987570.859   -10243157.694 7  -7981646.79522
  22865598.2734   -3525025.95146  -2746760.87661
  24036787.438    -1178697.986 5   -808140.19721
  21026905.9614     100268.87446     78133.82263
  23856044.656    -2835610.512 5  -2089269.09121
 91  3 29 22 43  0.0000000  0  6G18G 2G11G16G19G 6
  22087705.148     7927601.547 7   6177339.19221
  21982124.523   -10271782.948 6  -8003952.10922
  22866870.6644   -3518338.25146  -2741549.69761
  24036608.5164   -1179642.61745   -808876.28361
  21028238.2894     107275.11446     83593.23063
  23849977.063    -2867505.565 5  -2114122.24721
 91  3 29 22 43 15.0000000  0  6G18G 2G11G16G19G 6
  22095942.320     7970887.939 7   6211068.76422
  21976689.469   -10300338.704 6  -8026203.26422
  22868169.2894   -3511502.13746  -2736222.86361
  24036453.3204   -1180462.77045   -809515.37961
  21029583.8284     114329.92446     89090.48363
  23843906.5864   -2899403.85245  -2138977.91361
 91  3 29 22 43 30.0000000  0  6G18G 2G11G16G19G 6
  22104194.1884    8014253.15147   6244859.74861
  21971269.344   -10328824.043 7  -8048399.55622
  22869499.1564   -3504516.67646
  24036320.5784   -1181157.73945   -810056.94061
  21030934.3914     121434.36746
  23837837.180    -2931304.375 5  -2163835.33721
 91  3 29 22 43 45.0000000  0  6G18G 2G11G16G19G 6
  22112462.3364    8057696.00547   6278711.23761
  21965862.2194  -10357239.81847  -8070541.65162
  22870856.047    -3497383.073 6
  24036211.133    -1181728.582 5   -810501.81021
  21032296.6724     128587.45646    100200.25663
  23831765.0164   -2963208.28545  -2188695.38661
 91  3 29 22 44  0.0000000  0  6G18G 2G11G16G19G 6
  22120743.4774    8101218.05246   6312624.42962
  21960468.8444  -10385584.16647  -8092628.08762
  22872243.5864   -3490099.36446
  24036128.719    -1182173.674 5   -810848.67321
  21033666.8444     135791.16046    105813.52163
  23825693.359    -2995113.745 5  -2213556.65321
 91  3 29 22 44 15.0000000  0  6G18G 2G11G16G19G 6
  22129040.9064    8144818.26746   6346598.53861
  21955089.117   -10413857.621 7  -8114659.27722
  22873658.953    -3482666.167 6
  24036065.531    -1182493.579 5   -811097.95421
  21035045.8674     143045.15946    111465.98363
  23819621.555    -3027021.210 5  -2238419.48721
 91  3 29 22 44 30.0000000  0  6G18G 2G11G16G19G 6
  22137350.781     8188495.571 6   6380632.71521
  21949720.422   -10442061.519 7  -8136636.26622
  22875101.9224   -3475084.59446        -0.08371
  24036028.7344   -1182689.32245
  21036434.0554     150348.26546    117156.71063
  23813548.6414   -3058931.81645  -2263284.75761
 91  3 29 22 44 45.0000000  0  6G18G 2G11G16G19G 6
  22145678.4844    8232251.50546   6414728.16261
  21944367.430   -10470193.711 7  -8158557.37922
  22876574.2734   -3467352.71846      6024.75661
  24036016.5944   -1182759.09545
  21037835.2894     157702.54946    122887.31963
  23807474.922    -3090843.695 5  -2288151.01921
 91  3 29 22 45  0.0000000  0  6G18G 2G11G16G19G 6
  22154020.3444    8276087.14846   6448885.71761
  21939026.8984  -10498252.98347  -8180421.68162
  22878072.2034   -3459469.34146     12167.64061
  24036027.6724   -1182701.81745
  21039245.7034     165109.35046    128658.85263
  23801404.9304   -3122755.66645  -2313017.36261
 91  3 29 22 45 15.0000000  0  6G18G 2G11G16G19G 6
  22162376.1094    8319999.51546   6483103.05661
  21933701.8754  -10526242.10547  -8202231.32262
  22879601.8444   -3451437.48646     18426.22961
  24036061.6954   -1182520.38345
  21040663.7034     172565.89546    134469.14063
  23795330.0474   -3154670.56445  -2337886.01761
 91  3 29 22 45 30.0000000  0  6G18G 2G11G16G19G 6
  22170748.3204    8363991.15046   6517382.16261
  21928389.0394  -10554158.21047  -8223984.07062
  22881157.8594   -3443254.29646     24802.73261
  24036119.9924   -1182212.44045
  21042094.3594     180075.04946    140320.42563
  23789257.320    -3186585.518 5  -2362754.68021
 91  3 29 22 45 45.0000000  0  6G18G 2G11G16G19G 6
  22179134.0234    8408057.58546   6551719.55561
  21923090.1334  -10582005.33747  -8245683.06662
  22882743.2194   -3434923.88646     31293.95361
  24036203.5784   -1181782.03545   -810543.67161
  21043530.5234     187632.86546    146209.63063
  23783184.320    -3218504.649 5  -2387626.63821
 91  3 29 22 46  0.0000000  0  6G18G 2G11G16G19G 6
  22187533.9454    8452198.47146   6586114.96161
  21917804.6254  -10609783.75947  -8267328.52262
  22884355.6254   -3426446.55446     37899.66461
  24036305.6484   -1181229.41945   -810113.08461
  21044978.5084     195239.15846    152136.61463
  23777107.9924   -3250428.09945  -2412501.89961
 91  3 29 22 46 15.0000000  0  6G18G 2G11G16G19G 6
  22195947.8524    8496415.41446   6620569.61861
  21912531.8284  -10637491.48847  -8288918.89162
  22885999.0634   -3417820.42146     44621.31661
  24036434.875    -1180552.735 5   -809585.84321
  21046435.0314     202896.09546    158103.05763
  23771031.102    -3282354.093 5  -2437379.15021
 91  3 29 22 46 30.0000000  0  6G18G 2G11G16G19G 6
  22204376.6414    8540706.05646   6655081.71461
  21907271.3914  -10665130.25947  -8310455.53962
  22887667.227    -3409047.296 6     51457.50421
  24036588.023    -1179753.609 5   -808963.17321
  21047901.4614     210601.90646    164107.58063
  23764959.1804   -3314284.39645  -2462259.80661
 91  3 29 22 46 45.0000000  0  6G18G 2G11G16G19G 6
  22212818.7194    8585075.09246   6689654.89361
  21902025.2034  -10692695.79147  -8331935.10762
  22889364.5944   -3400122.81746     58411.64661
  24036764.1334   -1178828.00545   -808241.94261
  21049379.7814     218361.07646    170153.68163
  23758881.523    -3346214.688 5  -2487140.40921
 91  3 29 22 47  0.0000000  0  6G18G 2G11G16G19G 6
  22221277.2424    8629518.26547   6724285.84461
  21896793.3204  -10720192.04646  -8353360.69662
  22891091.453    -3391050.987 6     65480.58221
  24036962.7504   -1177780.05745   -807425.39961
  21050864.4384     226169.67546    176238.29863
  23752803.930    -3378148.895 5  -2512024.09021
 91  3 29 22 47 15.0000000  0  6G18G 2G11G16G19G 6
  22229748.6094    8674039.98147   6758977.99261
  21891575.1724  -10747614.04547  -8374728.42762
  22892847.9614   -3381826.94046     72668.14061
  24037187.5004   -1176604.76045   -806509.60661
  21052360.4224     234032.79546    182365.40163
  23746726.5084   -3410082.09145  -2536906.97261
 91  3 29 22 47 30.0000000  0  6G18G 2G11G16G19G 6
  22238235.3134    8718634.74946   6793727.06661
  21886370.2504  -10774967.01347  -8396042.37262
  22894630.2974   -3372456.01146     79970.15461
  24037433.4694   -1175307.53245   -805498.83161
  21053865.9614     241945.20846    188530.91563
  23740649.8284   -3442019.60645  -2561793.20861
 91  3 29 22 47 45.0000000  0  6G18G 2G11G16G19G 6
  22246734.3364    8763303.45646   6828533.75261
  21881178.313   -10802249.802 7  -8417301.63122
  22896442.7974   -3362937.22146     87387.39161
  24037702.9304   -1173887.49545   -804392.36061
  21055381.3364     249908.23046    194735.86063
  23734570.7814   -3473960.31945  -2586681.95261
 91  3 29 22 48  0.0000000  0  6G18G 2G11G16G19G 6
  22255249.8524    8808049.30946   6863400.54761
  21876000.6094  -10829459.17147  -8438503.67962
  22898283.0944   -3353267.22146     94922.45461
  24037999.328    -1172341.396 5   -803187.63821
  21056905.9304     257925.18146    200982.83463
  23728493.3444   -3505900.86345  -2611570.57061
 91  3 29 22 48 15.0000000  0  6G18G 2G11G16G19G 6
  22263779.391     8852868.715 6   6898324.65621
  21870836.1254  -10856598.47346  -8459651.11962
  22900150.2584   -3343449.45146    102572.66161
  24038315.883    -1170672.987 5   -801887.59121
  21058443.0084     265992.64446    207269.16063
  23722415.008    -3537844.657 5  -2636461.71021
 91  3 29 22 48 30.0000000  0  6G18G 2G11G16G19G 6
  22272322.625     8897764.172 6   6933308.02421
  21865685.8754  -10883664.73546  -8480741.64962
  22902045.8914   -3333481.12646    110340.18161
  24038657.242    -1168879.051 5   -800489.77421
  21059991.6644     274113.75246    213597.29063
  23716336.0784   -3569788.68945  -2661353.03861
 91  3 29 22 48 45.0000000  0  6G18G 2G11G16G19G 6
  22280878.695     8942731.879 6   6968347.68721
  21860549.250   -10910661.530 6  -8501778.05522
  22903973.0704   -3323365.73946    118222.29261
  24039023.0474   -1166963.10545   -798996.88361
  21061542.4064     282284.94346    219964.44163
  23710253.586    -3601736.698 5  -2686247.45921
 91  3 29 22 49  0.0000000  0  6G18G 2G11G16G19G 6
  22289450.492     8987775.658 6   7003446.63221
  21855425.375   -10937585.056 7  -8522757.37722
  22905927.2584   -3313099.65446    126221.83061
  24039411.5234   -1164921.88245   -797406.35761
  21063109.0164     290510.26946    226373.77663
  23704176.0704   -3633684.85745  -2711142.00661
 91  3 29 22 49 15.0000000  0  6G18G 2G11G16G19G 6
  22298036.422     9032891.222 6   7038601.51521
  21850314.305   -10964438.890 7  -8543682.39122
  22907906.7424   -3302686.70646    134335.80561
  24039823.727    -1162759.223 5   -795721.21121
  21064684.5474     298785.99346    232822.38363
  23698097.617    -3665636.928 5  -2736039.58721
 91  3 29 22 49 30.0000000  0  6G18G 2G11G16G19G 6
  22306636.664     9078082.815 6   7073815.64421
  21845219.1094  -10991218.69846  -8564549.71162
  22909918.172    -3292122.468 6    142567.66621
  24040258.180    -1160470.705 5   -793938.01721
  21066268.3134     307116.56246    239313.72863
  23692014.156    -3697588.387 5  -2760936.69621
 91  3 29 22 49 45.0000000  0  6G18G 2G11G16G19G 6
  22315250.008     9123347.971 6   7109087.08621
  21840136.1484  -11017926.78346  -8585361.13862
  22911955.3834   -3281409.32346    150915.55861
  24040716.227    -1158058.698 5   -792058.57421
  21067865.0164     315499.92246    245846.21163
  23685934.5164   -3729541.50645  -2785835.10261
 91  3 29 22 50  0.0000000  0  6G18G 2G11G16G19G 6
  22323877.430     9168686.550 6   7144415.74721
  21835067.5234  -11044563.04347  -8606116.60562
  22914022.922    -3270547.249 6    159379.50121
  24041198.539    -1155523.523 5   -790083.14621
  21069467.6024     323936.29146    252420.00063
  23679853.406    -3761496.417 5  -2810734.90521
 91  3 29 22 50 15.0000000  0  6G18G 2G11G16G19G 6
  22332518.9454    9214098.68646   7179801.72861
  21830012.063   -11071126.872 7  -8626815.64322
  22916117.9694   -3259535.70646    167959.91161
  24041704.0314   -1152864.37545   -788011.13361
  21071085.4144     332426.37846    259035.64863
  23673772.7664   -3793452.33045  -2835635.48161
 91  3 29 22 50 30.0000000  0  6G18G 2G11G16G19G 6
  22341174.820     9259583.828 6   7215244.59321
  21824971.406   -11097618.624 7  -8647458.52722
  22918242.250    -3248375.300 6    176656.31121
  24042234.563    -1150081.801 5   -785842.93721
  21072710.9454     340969.63046    265692.72063
  23667691.305    -3825409.778 5  -2860537.27521
 91  3 29 22 50 45.0000000  0  6G18G 2G11G16G19G 6
  22349844.117     9305139.550 6   7250742.45421
  21819944.508   -11124040.393 7  -8668046.86522
  22920394.703    -3237067.908 6    185467.23821
  24042788.0944   -1147177.80145   -783580.09461
  21074344.9304     349564.24046    272389.81463
  23661610.008    -3857370.671 5  -2885441.72921
 91  3 29 22 51  0.0000000  0  6G18G 2G11G16G19G 6
  22358526.992     9350766.670 6   7286295.94621
  21814927.6174  -11150391.21447  -8688579.91562
  22922574.305    -3225612.792 6    194393.28721
  24043363.281    -1144151.831 5   -781222.25621
  21075993.0944     358211.14546    279127.65363
  23655525.1334   -3889334.13545  -2910348.19961
 91  3 29 22 51 15.0000000  0  6G18G 2G11G16G19G 6
  22367223.1484    9396467.15346   7321906.61561
  21809928.3054  -11176668.88747  -8709055.96162
  22924782.0704   -3214007.96746    203435.99761
  24043962.773    -1141001.805 5   -778767.74021
  21077646.7584     366912.56446    285907.96763
  23649443.8674   -3921298.04945  -2935255.01761
 91  3 29 22 51 30.0000000  0  6G18G 2G11G16G19G 6
  22375932.7814    9442241.61846   7357574.93061
  21804942.4304  -11202872.58947  -8729474.37262
  22927019.8674   -3202252.57546    212596.02961
  24044586.0944   -1137727.33545   -776216.25561
  21079316.3444     375669.50246    292731.54463
  23643362.055    -3953261.524 5  -2960161.50221
 91  3 29 22 51 45.0000000  0  6G18G 2G11G16G19G 6
  22384656.688     9488082.407 6   7393294.91921
  21799967.922   -11229009.495 7  -8749840.73922
  22929284.8674   -3190353.84746    221867.75961
  24045233.1174   -1134335.39645   -773573.21961
  21080989.4304     384475.00046    299592.96563
  23637278.563    -3985231.751 5  -2985073.22721
 91  3 29 22 52  0.0000000  0  6G18G 2G11G16G19G 6
  22393395.453     9533996.262 6   7429071.83921
  21795008.898   -11255072.500 7  -8770149.52622
  22931577.711    -3178304.818 6    231256.59021
  24045901.617    -1130819.110 5   -770833.31721
  21082673.2034     393336.05746    306497.68063
  23631192.6254   -4017201.71045  -3009984.76361
 91  3 29 22 52 15.0000000  0  6G18G 2G11G16G19G 6
  22402146.031     9579982.264 6   7464904.97821
  21790062.883   -11281062.596 7  -8790401.49722
  22933899.086    -3166106.530 6    240761.73121
  24046592.594    -1127179.521 5   -767997.29421
  21084371.2194     402251.98946    313445.15363
  23625109.8594   -4049172.30145  -3034896.79161
 91  3 29 22 52 30.0000000  0  6G18G 2G11G16G19G 6
  22410910.156     9626039.905 6   7500793.93821
  21785131.5554  -11306979.88947  -8810596.73162
  22936247.820    -3153759.254 6    250382.96621
  24047307.891    -1123417.224 5   -765065.70421
  21086082.0864     411222.50246    320435.14463
  23619025.711    -4081143.860 5  -3059809.57321
 91  3 29 22 52 45.0000000  0  6G18G 2G11G16G19G 6
  22419688.555     9672170.975 6   7536740.11721
  21780213.453   -11332822.256 7  -8830733.59022
  22938623.945    -3141261.045 6    260121.81321
  24048047.1564   -1119530.25445   -762036.95261
  21087799.1644     420249.87946    327469.46463
  23612941.992    -4113114.045 5  -3084721.30521
 91  3 29 22 53  0.0000000  0  6G18G 2G11G16G19G 6
  22428480.539     9718373.758 6   7572742.17221
  21775309.656   -11358591.249 7  -8850813.27922
  22941032.2424   -3128613.30446    269977.19061
  24048810.938    -1115519.675 5   -758911.86121
  21089523.9774     429332.87346    334547.11463
  23606856.8444   -4145084.44845  -3109633.18461
 91  3 29 22 53 15.0000000  0  6G18G 2G11G16G19G 6
  22437285.1564    9764642.70246   7608795.78061
  21770418.805   -11384292.273 7  -8870839.99922
  22943468.063    -3115821.600 6    279944.73321
  24049597.242    -1111391.194 5   -755694.89721
  21091263.1094     438465.98346    341663.82063
  23600773.625    -4177060.381 5  -3134549.38321
 91  3 29 22 53 30.0000000  0  6G18G 2G11G16G19G 6
  22446103.2734    9810979.48146   7644902.24461
  21765541.195   -11409923.444 7  -8890812.28422
  22945926.875    -3102884.164 6    290025.83521
  24050403.9384   -1107143.28345   -752384.90861
  21093011.6484     447651.22446    348821.14363
  23594688.4304   -4209040.05345  -3159468.50261
 91  3 29 22 53 45.0000000  0  6G18G 2G11G16G19G 6
  22454934.352     9857387.717 6   7681064.38921
  21760677.930   -11435480.483 7  -8910726.81122
  22948419.828    -3089796.958 6    300223.64121
  24051238.094    -1102771.743 5   -748978.53221
  21094768.5944     456892.87046    356022.41763
  23588602.195    -4241019.242 5  -3184387.22821
 91  3 29 22 54  0.0000000  0  6G18G 2G11G16G19G 6
  22463778.719     9903863.806 6   7717279.40721
  21755828.695   -11460967.017 7  -8930586.39022
  22950937.539    -3076563.543 6    310535.38121
  24052088.281    -1098280.346 5   -745478.77921
  21096540.5944     466187.52846    363265.00563
  23582517.008    -4273001.432 5  -3209308.29121
 91  3 29 22 54 15.0000000  0  6G18G 2G11G16G19G 6
  22472635.9694    9950405.59946   7753545.61961
  21750990.805   -11486385.089 7  -8950392.63122
  22953482.281    -3063186.078 6    320959.36621
  24052968.594    -1093671.385 5   -741887.46121
  21098317.4304     475533.29146    370547.41363
  23576428.859    -4304988.668 5  -3234233.30821
 91  3 29 22 54 30.0000000  0  6G18G 2G11G16G19G 6
  22481503.6884    9997014.07046   7789863.79161
  21746167.945   -11511733.343 7  -8970144.46922
  22956057.195    -3049663.262 6    331496.60721
  24053870.414    -1088943.581 5   -738203.49721
  21100103.8284     484931.48946    377870.67863
  23570340.094    -4336979.605 5  -3259161.18821
 91  3 29 22 54 45.0000000  0  6G18G 2G11G16G19G 6
  22490387.6024   10043690.00346   7826234.53161
  21741357.586   -11537010.664 7  -8989841.03022
  22958656.477    -3035994.186 6    342147.81821
  24054794.4224   -1084095.77745   -734426.04361
  21101904.9614     494383.25046    385235.68763
  23564253.297    -4368973.321 5  -3284091.24321
 91  3 29 22 55  0.0000000  0  6G18G 2G11G16G19G 6
  22499282.7814   10090439.90246   7862662.90761
  21736561.219   -11562210.405 7  -9009477.14022
  22961287.695    -3022172.136 6    352918.23521
  24055738.5474   -1079121.96245   -730550.38561
  21103715.7664     503895.48646    392647.81063
  23558164.945    -4400962.920 5  -3309018.09821
 91  3 29 22 55 15.0000000  0  6G18G 2G11G16G19G 6
  22508190.9614   10137250.76846   7899138.78561
  21731779.227   -11587344.966 7  -9029062.45922
  22963944.266    -3008209.812 6    363797.94921
  24056707.406    -1074034.455 5   -726586.14721
  21105534.5314     513455.82946    400097.42063
  23552075.8914   -4432960.98245  -3333951.53761
 91  3 29 22 55 30.0000000  0  6G18G 2G11G16G19G 6
  22517111.797    10184129.536 6   7935667.58521
  21727009.4774  -11612407.39347  -9048591.56862
  22966629.7894   -2994100.28346    374792.37361
  24057696.039    -1068826.300 5   -722527.89021
  21107363.3284     523071.37146    407590.04663
  23545987.0784   -4464960.38945  -3358886.01761
 91  3 29 22 55 45.0000000  0  6G18G 2G11G16G19G 6
  22526045.0234   10231070.41346   7972244.77061
  21722253.320   -11637403.180 7  -9068068.75022
  22969341.328    -2979849.176 6    385897.11121
  24058709.883    -1063502.961 5   -718379.85321
  21109203.1094     532736.56146    415121.35563
  23539896.234    -4496966.662 5  -3383825.86021
 91  3 29 22 56  0.0000000  0  6G18G 2G11G16G19G 6
  22534989.7424   10278077.38346   8008873.46361
  21717510.0314  -11662328.37747  -9087490.92362
  22972081.344    -2965452.511 6    397115.27521
  24059747.719    -1058060.912 5   -714139.36321
  21111051.3134     542455.67346    422694.68163
  23533803.977    -4528975.800 5  -3408767.93121
 91  3 29 22 56 15.0000000  0  6G18G 2G11G16G19G 6
  22543946.2664   10325146.64646   8045550.69161
  21712778.9774  -11687186.16147  -9106860.56362
  22974847.492    -2950913.751 6    408444.16021
  24060806.2584   -1052503.51945   -709808.95061
  21112911.3134     552225.47246    430307.50363
  23527713.734    -4560991.078 5  -3433714.79521
 91  3 29 22 56 30.0000000  0  6G18G 2G11G16G19G 6
  22552916.5004   10372282.32846   8082279.66861
  21708062.0944  -11711971.86847  -9126174.04862
  22977641.242    -2936228.279 6    419887.36321
  24061883.7344   -1046826.07245   -705385.02261
  21114781.6954     562050.88846    437963.66463
  23521618.188    -4593007.788 5  -3458662.75621
 91  3 29 22 56 45.0000000  0  6G18G 2G11G16G19G 6
  22561899.2114   10419489.74246   8119064.54361
  21703361.1414  -11736680.40347  -9145427.39062
  22980465.789    -2921391.183 6    431448.71921
  24062986.078    -1041023.764 5   -700863.82821
  21116662.6884     571936.93446    445667.07763
  23515527.914    -4625020.849 5  -3483607.91121
 91  3 29 22 57  0.0000000  0  6G18G 2G11G16G19G 6
  22570896.1334   10466767.07646   8155903.90761
  21698673.125   -11761313.187 7  -9164621.71522
  22983318.609    -2906403.983 6    443127.03821
  24064117.875    -1035098.092 5   -696246.45221
  21118553.2034     581882.37646    453416.77063
  23509435.297    -4657031.692 5  -3508551.30021
 91  3 29 22 57 15.0000000  0  6G18G 2G11G16G19G 6
  22579904.3134   10514105.19246   8192790.62761
  21693998.703   -11785879.192 7  -9183764.00022
  22986196.117    -2891275.716 6    454915.27421
  24065265.094    -1029058.294 5   -691540.15121
  21120457.9304     591878.19246    461205.71463
  23503343.1644   -4689049.17345  -3533499.88261
 91  3 29 22 57 30.0000000  0  6G18G 2G11G16G19G 6
  22588925.3524   10561506.23046   8229726.38361
  21689336.305   -11810375.824 7  -9202852.22822
  22989102.055    -2876003.908 6    466815.36121
  24066438.219    -1022902.222 5   -686743.25721
  21122367.9924     601927.09646    469036.02063
  23497251.1094   -4721070.74945  -3558451.66961
 91  3 29 22 57 45.0000000  0  6G18G 2G11G16G19G 6
  22597958.1564   10608973.33146   8266713.61261
  21684689.5864  -11834799.94947  -9221883.95162
  22992037.875    -2860585.454 6    478829.71921
  24067631.555    -1016626.731 5   -681853.32521
  21124291.6334     612032.36646    476910.24963
  23491157.266    -4753093.192 5  -3583404.10121
 91  3 29 22 58  0.0000000  0  6G18G 2G11G16G19G 6
  22607003.0554   10656507.00046   8303752.70861
  21680055.5394  -11859150.66747  -9240858.47862
  22994998.969    -2845019.541 6    490958.97921
  24068847.391    -1010230.991 5   -676869.68121
  21126226.4384     622195.03646    484829.20463
  23485063.242    -4785115.643 5  -3608356.55121
 91  3 29 22 58 15.0000000  0  6G18G 2G11G16G19G 6
  22616060.9304   10704102.26246   8340839.80361
  21675434.898   -11883432.721 7  -9259779.50522
  22997988.789    -2829311.053 6    503199.34321
  24070087.375    -1003719.433 5   -671795.76621
  21128170.7894     632410.56446    492789.34963
  23478969.4774   -4817142.74745  -3633312.63561
 91  3 29 22 58 30.0000000  0  6G18G 2G11G16G19G 6
  22625128.3984   10751756.46646   8377972.82661
  21670826.359   -11907648.650 7  -9278649.00522
  23001003.945    -2813462.566 6    515548.79721
  24071347.063     -997094.975 5   -666633.94721
  21130122.7974     642676.60046    500788.84863
  23472872.727    -4849176.964 5  -3658274.25021
 91  3 29 22 58 45.0000000  0  6G18G 2G11G16G19G 6
  22634208.4924   10799471.16146   8415152.98261
  21666230.922   -11931796.270 7  -9297465.27822
  23004046.195    -2797472.251 6    528008.76521
  24072630.219     -990355.823 5   -661382.69721
  21132087.2194     652995.17346    508829.28563
  23466775.9614   -4881216.38045  -3683239.92561
 91  3 29 22 59  0.0000000  0  6G18G 2G11G16G19G 6
  22643301.1094   10847250.90546   8452383.82661
  21661650.0554  -11955871.02747  -9316224.76662
  23007118.086    -2781335.598 6    540582.75521
  24073934.3364    -983497.78445   -656038.83061
  21134060.1644     663370.92146    516914.27163
  23460677.477    -4913256.301 5  -3708205.98121
 91  3 29 22 59 15.0000000  0  6G18G 2G11G16G19G 6
  22652404.531    10895087.587 6   8489659.03221
  21657081.7974  -11979880.50547  -9334933.39262
  23010215.719    -2765060.439 6    553264.67821
  24075260.352     -976528.460 4   -650608.22321
  21136045.0164     673796.26446    525037.90763
  23454578.164    -4945304.327 5  -3733178.36821
 91  3 29 22 59 30.0000000  0  6G18G 2G11G16G19G 6
  22661519.0864   10942987.03946   8526983.15161
  21652525.8444  -12003818.62947  -9353586.42062
  23013339.531    -2748640.847 6    566059.14521
  24076610.9694    -969441.99345   -645086.35361
  21138038.2344     684277.61446    533205.18663
  23448480.7734   -4977354.27445  -3758152.25161
 91  3 29 22 59 45.0000000  0  6G18G 2G11G16G19G 6
  22670644.773    10990948.253 6   8564355.39921
  21647984.094   -12027686.293 7  -9372184.55522
  23016491.500    -2732077.729 6    578965.46021
  24077983.539     -962239.227 5   -639473.87321
  21140043.8054     694814.07646    541415.40663
  23442381.828    -5009407.055 5  -3783128.33121
 91  3 29 23  0  0.0000000  0  6G18G 2G11G16G19G 6
  22679784.6954   11038972.54346   8601776.79961
  21643455.844   -12051482.151 7  -9390726.73222
  23019671.047    -2715369.930 6    591984.51121
  24079375.227     -954919.136 4   -633769.94121
  21142058.836      705407.161 6    549669.74623
  23436280.5474   -5041461.36045  -3808105.59461
 91  3 29 23  0 15.0000000  0  6G18G 2G11G16G19G 6
  22688934.7814   11087055.87846   8639244.20161
  21638939.156   -12075209.640 7  -9409215.63722
  23022877.2424   -2698520.91746    605113.59761
  24080788.4224    -947485.40444   -627977.50561
  21144086.1644     716053.54846    557965.62163
  23430180.9064   -5073520.44345  -3833086.59661
 91  3 29 23  0 30.0000000  0  6G18G 2G11G16G19G 6
  22698095.531    11135194.438 6   8676754.64221
  21634437.281   -12098872.418 7  -9427654.10722
  23026110.844    -2681534.432 6    618349.80321
  24082225.359     -939941.618 4   -622099.29321
  21146120.4534     726749.67246    566300.25263
  23424076.727    -5105587.991 5  -3858074.20221
 91  3 29 23  0 45.0000000  0  6G18G 2G11G16G19G 6
  22707267.125    11183392.874 6   8714311.72621
  21629947.625   -12122465.617 7  -9446038.36222
  23029369.227    -2664405.763 6    631696.80021
  24083681.9384    -932283.19745   -616131.75061
  21148167.0084     737500.32946    574677.37863
  23417974.648    -5137659.179 5  -3883064.63621
 91  3 29 23  1  0.0000000  0  6G18G 2G11G16G19G 6
  22716449.9454   11231649.89646   8751914.47261
  21625470.992   -12145990.068 7  -9464369.05522
  23032654.4534   -2647135.89946    645153.82161
  24085160.984     -924510.974 4   -610075.50621
  21150225.9454     748304.93846    583096.54563
  23411871.047    -5169734.706 5  -3908058.45121
 91  3 29 23  1 15.0000000  0  6G18G 2G11G16G19G 6
  22725644.8914   11279964.16746   8789561.82461
  21621007.383   -12169447.315 7  -9482647.38022
  23035967.023    -2629726.503 6    658719.56421
  24086663.6724    -916626.79744   -603932.08861
  21152289.992      759161.995 6    591556.57623
  23405767.055    -5201816.088 5  -3933056.83621
 91  3 29 23  1 30.0000000  0  6G18G 2G11G16G19G 6
  22734850.609    11328338.912 6   8827256.29921
  21616557.102   -12192833.526 7  -9500870.35022
  23039309.188    -2612173.854 6    672396.93021
  24088184.5314    -908627.14044   -597698.65061
  21154367.195      770075.449 6    600060.55123
  23399660.281    -5233899.457 5  -3958056.74921
 91  3 29 23  1 45.0000000  0  6G18G 2G11G16G19G 6
  22744066.414    11376767.948 6   8864993.07421
  21612118.844   -12216154.764 7  -9519042.68822
  23042674.813    -2594484.113 6    686181.12921
  24089727.3674    -900518.15844   -591380.03161
  21156453.0164     781039.52646    608603.97963
  23393553.367    -5265990.869 5  -3983062.92921
 91  3 29 23  2  0.0000000  0  6G18G 2G11G16G19G 6
  22753292.484    11425251.628 6   8902772.43021
  21607693.930   -12239410.454 7  -9537163.95022
  23046066.281    -2576656.780 6    700072.53521
  24091290.2974    -892299.22744   -584975.69161
  21158550.5704     792054.73846    617187.25263
  23387447.023    -5298089.740 5  -4008074.92321
 91  3 29 23  2 15.0000000  0  6G18G 2G11G16G19G 6
  22762529.313    11473789.778 6   8940594.22821
  21603280.906   -12262600.387 7  -9555233.98022
  23049485.883    -2558691.840 6    714071.17121
  24092876.766     -883970.517 4   -578485.87521
  21160653.7664     803121.57646    625810.75163
  23381335.258    -5330195.743 5  -4033092.47821
 91  3 29 23  2 30.0000000  0  6G18G 2G11G16G19G 6
  22771775.219    11522381.660 6   8978457.90021
  21598881.305   -12285725.066 7  -9573253.15622
  23052929.500    -2540590.114 6    728176.39221
  24094481.219     -875532.622 4   -571911.01221
  21162769.727      814239.595 6    634474.12923
  23375226.1954   -5362309.37145  -4058115.97461
 91  3 29 23  2 45.0000000  0  6G18G 2G11G16G19G 6
  22781033.383    11571031.698 6   9016366.88521
  21594493.352   -12308779.783 7  -9591217.82322
  23056401.523    -2522346.964 6    742391.81921
  24096108.031     -866981.000 4   -565247.43521
  21164897.7424     825413.43246    643181.00663
  23369113.6414   -5394426.01845  -4083141.81361
 91  3 29 23  3  0.0000000  0  6G18G 2G11G16G19G 6
  22790302.445    11619738.385 6   9054320.01221
  21590118.805   -12331765.793 7  -9609128.94222
  23059900.758    -2503963.655 6    756716.45321
  24097757.219     -858317.229 4   -558496.53021
  21167032.7424     836642.03846    651930.55963
  23363001.141    -5426546.815 5  -4108170.89221
 91  3 29 23  3 15.0000000  0  6G18G 2G11G16G19G 6
  22799580.086    11668498.394 6   9092314.69021
  21585756.422   -12354686.095 7  -9626988.86422
  23063423.875    -2485443.415 6    771147.78721
  24099425.633     -849544.536 3   -551660.71921
  21169181.7344     847922.52446    660720.54463
  23356886.227    -5458674.597 5  -4133205.41621
 91  3 29 23  3 30.0000000  0  6G18G 2G11G16G19G 6
  22808871.859    11717315.330 6   9130353.71821
  21581409.1564  -12377536.82147  -9644794.58162
  23066974.3054   -2466782.57046    785688.69461
  24101115.2504    -840659.14144   -544737.09861
  21171341.2664     859258.68846    669553.90863
  23350771.5554   -5490805.74445  -4158242.53961
 91  3 29 23  3 45.0000000  0  6G18G 2G11G16G19G 6
  22818170.469    11766182.912 6   9168432.21821
  21577072.844   -12400324.043 7  -9662550.81722
  23070552.453    -2447987.227 6    800334.39921
  24102828.477     -831667.164 4   -537730.44021
  21173503.9144     870644.77846    678426.17763
  23344656.063    -5522946.128 5  -4183286.89521
 91  3 29 23  4  0.0000000  0  6G18G 2G11G16G19G 6
  22827479.992    11815102.201 6   9206551.00221
  21572748.781   -12423046.706 7  -9680256.74422
  23074154.5554   -2429056.54346    815085.57161
  24104562.9534    -822567.69143   -530640.04861
  21175683.0314     882081.89446    687338.20263
  23338538.3444   -5555094.60445  -4208337.53061
 91  3 29 23  4 15.0000000  0  6G18G 2G11G16G19G 6
  22836798.289    11864076.935 6   9244712.99721
  21568437.594   -12445700.615 7  -9697909.08722
  23077783.883    -2409986.396 6    829945.41421
  24106311.8594    -813356.89343   -523462.88361
  21177868.602      893574.377 6    696293.36823
  23332419.4694   -5587247.01645  -4233391.23761
 91  3 29 23  4 30.0000000  0  6G18G 2G11G16G19G 6
  22846129.141    11913108.931 6   9282919.60321
  21564139.578   -12468283.750 7  -9715506.28122
  23081439.102    -2390774.805 6    844915.46321
  24108087.180     -804032.904 3   -516197.51521
  21180062.9064     905124.45946    705293.42263
  23326301.6254   -5619401.18245  -4258446.32461
 91  3 29 23  4 45.0000000  0  6G18G 2G11G16G19G 6
  22855470.461    11962191.765 6   9321165.83321
  21559855.117   -12490802.287 7  -9733053.14222
  23085121.375    -2371428.195 6    859990.73221
  24109882.383     -794601.901 4   -508848.73521
  21182271.953      916726.060 6    714333.61623
  23320179.984    -5651563.239 5  -4283507.54921
 91  3 29 23  5  0.0000000  0  6G18G 2G11G16G19G 6
  22864819.203    12011326.783 6   9359452.71321
  21555582.719   -12513254.255 7  -9750548.14122
  23088828.930    -2351944.873 6    875172.51821
  24111696.313     -785062.276 3   -501415.34021
  21184493.2894     928381.04046    723415.40863
  23314058.836    -5683731.213 5  -4308573.38621
 91  3 29 23  5 15.0000000  0  6G18G 2G11G16G19G 6
  22874180.4224   12060515.48146   9397781.42661
  21551323.1644  -12535637.96547  -9767989.95462
  23092562.555    -2332323.316 6    890462.02821
  24113536.2734    -775412.38143   -493896.03361
  21186719.6954     940091.15146    732540.15863
  23307937.2504   -5715903.50345  -4333642.58361
 91  3 29 23  5 30.0000000  0  6G18G 2G11G16G19G 6
  22883551.148    12109757.478 6   9436151.66921
  21547076.125   -12557953.590 7  -9785378.70122
  23096321.758    -2312563.792 6    905859.04421
  24115391.5164    -765652.86644   -486291.27261
  21188958.141      951856.398 6    741707.87023
  23301813.711    -5748080.161 5  -4358715.18321
 91  3 29 23  5 45.0000000  0  6G18G 2G11G16G19G 6
  22892929.766    12159048.616 6   9474560.21021
  21542841.086   -12580205.382 7  -9802717.71222
  23100106.719    -2292670.541 6    921360.25521
  24117266.9534    -755787.71644   -478604.23861
  21191208.1024     963672.82346    750915.46263
  23295689.7114   -5780265.36345  -4383794.45761
 91  3 29 23  6  0.0000000  0  6G18G 2G11G16G19G 6
  22902320.359    12208388.815 6   9513006.97121
  21538619.422   -12602392.923 7  -9820006.65322
  23103918.734    -2272643.403 6    936965.79521
  24119166.188     -745816.849 4   -470834.78321
  21193465.0704     975540.91646    760163.31563
  23289562.5474   -5812458.65945  -4408880.02161
 91  3 29 23  6 15.0000000  0  6G18G 2G11G16G19G 6
  22911719.656    12257782.375 6   9551495.32721
  21534410.117   -12624511.898 7  -9837242.16722
  23107755.891    -2252478.038 6    952679.03621
  24121085.102     -735736.350 4   -462979.91821
  21195735.6024     987465.15446    769454.92063
  23283436.844    -5844655.602 5  -4433968.43021
 91  3 29 23  6 30.0000000  0  6G18G 2G11G16G19G 6
  22921128.5314   12307229.45046   9590025.36861
  21530214.656   -12646561.793 7  -9854423.85722
  23111619.7584   -2232174.34446    968500.06961
  24123024.1954    -725545.70144   -455039.26061
  21198017.578      999445.912 6    778790.56123
  23277306.5394   -5876855.74045  -4459059.31961
 91  3 29 23  6 45.0000000  0  6G18G 2G11G16G19G 6
  22930549.063    12356727.276 6   9628594.96121
  21526031.094   -12668544.949 7  -9871553.54622
  23115509.6724   -2211734.84846    984426.91961
  24124984.273     -715247.772 4   -447014.95121
  21200304.555     1011480.983 6    788168.52323
  23271180.438    -5909061.475 5  -4484154.59321
 91  3 29 23  7  0.0000000  0  6G18G 2G11G16G19G 6
  22939977.367    12406279.395 6   9667206.86321
  21521860.445   -12690457.805 7  -9888628.45322
  23119425.273    -2191155.841 6   1000462.47621
  24126965.609     -704838.828 4   -438904.13621
  21202605.578     1023574.339 6    797591.89923
  23265051.5634   -5941268.93045  -4509251.19961
 91  3 29 23  7 15.0000000  0  6G18G 2G11G16G19G 6
  22949417.4224   12455886.49146   9705861.60761
  21517704.992   -12712299.396 7  -9905647.82122
  23123368.242    -2170436.476 6   1016607.40921
  24128965.6644    -694317.86144   -430706.07761
  21204918.727     1035726.936 6    807061.44023
  23258922.836    -5973477.015 5  -4534348.30321
 91  3 29 23  7 30.0000000  0  6G18G 2G11G16G19G 6
  22958868.203    12505548.226 6   9744558.92121
  21513562.625   -12734069.822 7  -9922611.74322
  23127338.7424   -2149577.20646   1032861.35761
  24130990.4064    -683685.49244   -422421.18561
  21207242.055     1047938.845 6    816577.19523
  23252791.414    -6005685.935 5  -4559446.05221
 91  3 29 23  7 45.0000000  0  6G18G 2G11G16G19G 6
  22968328.195    12555257.014 6   9783292.89921
  21509431.633   -12755776.526 7  -9939526.00722
  23131332.5704   -2128585.61846   1049218.41061
  24133030.3674    -672949.39644   -414055.47761
  21209576.516     1060202.810 6    826133.51823
  23246661.219    -6037903.038 5  -4584550.17521
 91  3 29 23  8  0.0000000  0  6G18G 2G11G16G19G 6
  22977798.0314   12605017.99446   9822067.53661
  21505313.984   -12777413.706 7  -9956386.10722
  23135353.4144   -2107456.20746   1065682.85061
  24135097.617     -662104.054 4   -405604.64321
  21211919.945     1072524.532 6    835734.84423
  23240529.8204   -6070122.56645  -4609656.17161
 91  3 29 23  8 15.0000000  0  6G18G 2G11G16G19G 6
  22987276.4384   12654828.93746   9860881.11761
  21501209.375   -12798983.396 7  -9973193.61622
  23139399.898    -2086190.938 6   1082253.16021
  24137180.2114    -651151.37644   -397070.15661
  21214276.1334    1084902.35946    845379.89063
  23234399.859    -6102346.236 5  -4634765.41821
 91  3 29 23  8 30.0000000  0  6G18G 2G11G16G19G 6
  22996763.8444   12704689.72546   9899733.53761
  21497117.883   -12820485.520 7  -9989948.47022
  23143472.2894   -2064790.07846   1098929.12961
  24139287.000     -640091.754 4   -388452.33921
  21216641.391     1097336.137 6    855068.53723
  23228265.9224   -6134574.18945  -4659877.98961
 91  3 29 23  8 45.0000000  0  6G18G 2G11G16G19G 6
  23006261.211    12754598.935 6   9938623.69021
  21493039.2194  -12841921.58847 -10006651.86162
  23147570.2194   -2043255.27646   1115709.46361
  24141410.1174    -628926.74544   -379752.41461
  21219018.9614    1109824.49846    864799.71263
  23222130.844    -6166807.830 5  -4684995.00321
 91  3 29 23  9  0.0000000  0  6G18G 2G11G16G19G 6
  23015768.0864   12804554.05146   9977549.61261
  21488972.2734  -12863293.39647 -10023305.17862
  23151692.9844   -2021588.57346   1132592.57361
  24143556.8914    -617658.36244   -370971.96161
  21221404.9534    1122365.82646    874572.16763
  23215996.6954   -6199048.96245  -4710117.84561
 91  3 29 23  9 15.0000000  0  6G18G 2G11G16G19G 6
  23025283.969    12854559.086 6  10016514.43321
  21484917.352   -12884596.722 7 -10039905.12422
  23155843.242    -1999785.666 6   1149581.82521
  24145716.4614    -606282.35444   -362107.60561
  21223802.4614    1134964.48946    884389.29863
  23209861.102    -6231293.147 5  -4735243.06921
 91  3 29 23  9 30.0000000  0  6G18G 2G11G16G19G 6
  23034808.008    12904608.407 6  10055513.76821
  21480875.672   -12905837.080 7 -10056456.00922
  23160015.5394   -1977852.37046   1166672.66861
  24147903.469     -594804.764 4   -353164.07621
  21226209.7664    1147615.03846    894246.86163
  23203723.375    -6263545.916 5  -4760374.97821
 91  3 29 23  9 45.0000000  0  6G18G 2G11G16G19G 6
  23044341.5164   12954703.73246  10094548.94661
  21476846.461   -12927012.330 7 -10072956.15922
  23164213.8204   -1955786.68346   1183866.68461
  24150106.617     -583223.618 4   -344139.91321
  21228627.9384    1160319.78146    904146.65563
  23197583.6334   -6295805.06645  -4785511.86061
 91  3 29 23 10  0.0000000  0  6G18G 2G11G16G19G 6
  23053882.773    13004841.604 6  10133617.27621
  21472829.1484  -12948125.84147 -10089408.20762
  23168437.5004   -1933592.17946   1201161.07761
  24152329.891     -571542.495 4   -335037.81121
  21231054.9304    1173075.54846    914086.20863
  23191442.3284   -6328073.87845  -4810656.27961
 91  3 29 23 10 15.0000000  0  6G18G 2G11G16G19G 6
  23063433.563    13055030.561 6  10172725.41121
  21468825.4224  -12969169.08347 -10105805.49762
  23172687.9224   -1911260.43846   1218562.40561
  24154572.070     -559752.819 4   -325851.14321
  21233494.1094    1185890.90346    924072.19163
  23185302.5004   -6360343.63646  -4835801.42561
 91  3 29 23 10 30.0000000  0  6G18G 2G11G16G19G 6
  23072991.695    13105263.589 6  10211867.89321
  21464832.2814  -12990148.49247 -10122153.05462
  23176963.2504   -1888798.12246   1236065.47161
  24156838.4694    -547861.52944   -316585.28761
  21235943.0704    1198759.52246    934099.67563
  23179160.6024   -6392620.91046  -4860952.44761
 91  3 29 23 10 45.0000000  0  6G18G 2G11G16G19G 6
  23082559.523    13155538.069 6  10251042.67121
  21460850.945   -13011066.244 7 -10138452.55522
  23181261.992    -1866207.503 6   1253668.50921
  24159117.305     -535870.901 4   -307242.00521
  21238402.0314    1211679.41046    944167.10963
  23173016.0004   -6424907.68246  -4886110.85861
 91  3 29 23 11  0.0000000  0  6G18G 2G11G16G19G 6
  23092135.594    13205862.372 6  10290256.26821
  21456883.719   -13031914.183 7 -10154697.65922
  23185587.2894   -1843480.51346   1271377.81361
  24161421.188     -523772.621 4   -297814.85021
  21240869.4384    1224658.93246    954281.01263
  23166870.945    -6457195.639 6  -4911270.20721
 91  3 29 23 11 15.0000000  0  6G18G 2G11G16G19G 6
  23101719.875    13256227.688 6  10329501.82721
  21452928.734   -13052700.731 7 -10170894.92422
  23189935.5554   -1820625.79246   1289186.65261
  24163744.031     -511575.667 4   -288310.83621
  21243350.0164    1237689.56646    964434.75163
  23160725.3284   -6489493.26346  -4936437.08361
 91  3 29 23 11 30.0000000  0  6G18G 2G11G16G19G 6
  23111312.516    13306639.566 6  10368783.66121
  21448985.3134  -13073420.04447 -10187039.80762
  23194310.1644   -1797637.78646   1307099.34861
  24166082.594     -499274.049 4   -278725.22021
  21245840.4614    1250777.44546    974633.09663
  23154578.0554   -6521794.60946  -4961606.85161
 91  3 29 23 11 45.0000000  0  6G18G 2G11G16G19G 6
  23120915.5234   13357094.96046  10408099.40361
  21445054.5634  -13094074.79347 -10203134.37862
  23198709.3204   -1774519.24546   1325113.76061
  24168441.9384    -486870.98144   -269060.59561
  21248342.7664    1263920.02246    984874.05963
  23148431.047    -6554102.302 6  -4986781.58621
 91  3 29 23 12  0.0000000  0  6G18G 2G11G16G19G 6
  23130524.758    13407593.731 6  10447448.95821
  21441136.602   -13114664.689 7 -10219178.40822
  23203132.5784   -1751270.19046   1343229.86561
  24170823.6254    -474366.60144   -259316.99961
  21250852.4384    1277117.46546    995157.76963
  23142281.1174   -6586416.03146  -5011961.01761
 91  3 29 23 12 15.0000000  0  6G18G 2G11G16G19G 6
  23140141.570    13458137.596 6  10486833.63421
  21437230.609   -13135187.990 7 -10235170.54422
  23207582.5164   -1727889.00146   1361448.94061
  24173222.4774    -461759.09245   -249493.04161
  21253376.2894    1290371.81546   1005485.82463
  23136131.8284   -6618734.11246  -5037143.84361
 91  3 29 23 12 30.0000000  0  6G18G 2G11G16G19G 6
  23149768.8674   13508727.54446  10526254.21861
  21433339.445   -13155643.320 7 -10251109.72222
  23212057.4614   -1704374.55746   1379771.84461
  24175640.5474    -449047.73844   -239588.16361
  21255908.2034    1303684.52146   1015859.35362
  23129982.6644   -6651055.00746  -5062328.86161
 91  3 29 23 12 45.0000000  0  6G18G 2G11G16G19G 6
  23159403.391    13559358.256 6  10565706.58521
  21429458.1954  -13176036.13247 -10267000.18862
  23216556.367    -1680732.245 6   1398194.38521
  24178076.8524    -436237.55044   -229606.27961
  21258452.7974    1317050.36046   1026274.28763
  23123829.2734   -6683383.73646  -5087519.98861
 91  3 29 23 13  0.0000000  0  6G18G 2G11G16G19G 6
  23169045.5394   13610027.43746  10605188.90561
  21425588.6254  -13196368.51147 -10282843.56462
  23221079.719    -1656964.444 6   1416714.70321
  24180535.7114    -423330.87744   -219549.22761
  21261005.7194    1330467.34346   1036729.06863
  23117674.6414   -6715722.52146  -5112718.94361
 91  3 29 23 13 15.0000000  0  6G18G 2G11G16G19G 6
  23178696.7344   13660740.55146  10644705.46461
  21421732.172   -13216634.421 7 -10298635.13922
  23225627.3204   -1633065.34346   1435337.34161
  24183011.3914    -410321.94844   -209412.47061
  21263570.6254    1343941.51446   1047228.41663
  23111521.4144   -6748065.37146  -5137921.07261
 91  3 29 23 13 30.0000000  0  6G18G 2G11G16G19G 6
  23188355.9694   13711499.19446  10684257.50061
  21417888.914   -13236832.050 7 -10314373.50622
  23230200.219    -1609033.191 6   1454063.64521
  24185503.3754    -397208.96144   -199194.66761
  21266148.1254    1357474.87946   1057773.88663
  23105365.234    -6780410.194 5  -5163124.75521
 91  3 29 23 13 45.0000000  0  6G18G 2G11G16G19G 6
  23198021.7424   13762295.51846  10723838.89561
  21414056.695   -13256969.293 7 -10330064.82222
  23234797.164    -1584875.938 6   1472887.44021
  24188016.6334    -384000.20044   -188902.18461
  21268731.2894    1371059.70146   1068359.45063
  23099208.9064   -6812764.75245  -5188335.99861
 91  3 29 23 14  0.0000000  0  6G18G 2G11G16G19G 6
  23207694.211    13813131.452 6  10763451.15921
  21410237.047   -13277043.367 7 -10345706.91222
  23239418.570    -1560591.323 6   1491810.47221
  24190551.680     -370693.360 5   -178533.31421
  21271328.523     1384698.848 6   1078987.34623
  23093049.5944   -6845126.40745  -5213552.77261
 91  3 29 23 14 15.0000000  0  6G18G 2G11G16G19G 6
  23217376.477    13864005.230 6  10803092.90821
  21406428.953   -13297056.056 7 -10361301.17322
  23244064.6484   -1536181.30246   1510831.22261
  24193103.2424    -357290.13845   -168089.34261
  21273931.828     1398390.462 6   1089656.12023
  23086890.172    -6877496.874 5  -5238776.43021
 91  3 29 23 14 30.0000000  0  6G18G 2G11G16G19G 6
  23227066.3444   13914921.39346  10842767.68861
  21402633.805   -13317002.749 7 -10376844.00322
  23248733.758    -1511641.161 6   1529953.36321
  24195673.969     -343786.095 5   -157566.79521
  21276549.3444    1412139.46146   1100369.61463
  23080728.0704   -6909871.41645  -5264003.24961
 91  3 29 23 14 45.0000000  0  6G18G 2G11G16G19G 6
  23236764.328    13965879.248 6  10882474.94121
  21398849.125   -13336884.046 7 -10392335.88222
  23253428.3594   -1486971.70146   1549176.28361
  24198261.250     -330182.261 4   -146966.51521
  21279175.9454    1425945.35846   1111127.44662
  23074567.9534   -6942250.34645  -5289233.49761
 91  3 29 23 15  0.0000000  0  6G18G 2G11G16G19G 6
  23246468.219    14016878.400 6  10922214.38621
  21395078.719   -13356699.793 7 -10407776.68222
  23258147.133    -1462173.003 6   1568499.89321
  24200869.7034    -316478.58845   -136288.43361
  21281811.578     1439808.493 6   1121929.87123
  23068405.2424   -6974633.59645  -5314467.10161
 91  3 29 23 15 15.0000000  0  6G18G 2G11G16G19G 6
  23256180.289    14067916.699 6  10961984.31521
  21391318.836   -13376451.816 7 -10423167.81922
  23262891.133    -1437247.121 6   1587922.60821
  24203494.820     -302677.296 5
  21284461.320     1453727.236 6
  23062241.773    -7007022.769 6  -5339705.32521
 91  3 29 23 15 30.0000000  0  6G18G 2G11G16G19G 6
  23265899.0784   14118994.92746  11001785.37861
  21387573.328   -13396139.098 7 -10438508.51422
  23267658.922    -1412193.565 6   1607444.81321
  24206137.9144    -288777.56745
  21287121.914     1467702.337 6
  23056076.664    -7039417.073 5  -5364947.55221
 91  3 29 23 15 45.0000000  0  6G18G 2G11G16G19G 6
  23275626.273    14170106.185 6  11041612.16521
  21383837.789   -13415768.506 7 -10453804.11522
  23272447.211    -1387019.063 6   1627061.26221
  24208802.211     -274786.400 5
  21289790.578     1481727.194 6
  23049910.6804   -7071823.21845  -5390198.99561
 91  3 29 23 16  0.0000000  0  6G18G 2G11G16G19G 6
  23285359.156    14221253.009 6  11081466.67321
  21380114.523   -13435337.150 7 -10469052.36822
  23277262.531    -1361720.802 6   1646774.14321
  24211481.453     -260700.845 5
  21292471.961     1495805.004 6
  23043741.9774   -7104238.04945  -5415457.20761
 91  3 29 23 16 15.0000000  0  5G18G 2G11G19G 6
  23295100.945    14272441.387 6  11121353.55321
  21376403.953   -13454838.703 7 -10484248.33522
  23282101.0234   -1336292.83846   1666588.09361
  21295158.219     1509942.268 6   1176579.49123
  23037573.7194   -7136655.13346  -5440717.17461
 91  3 29 23 16 30.0000000  0  5G18G 2G11G19G 6
  23304849.438    14323669.449 6  11161271.36121
  21372704.664   -13474274.568 7 -10499393.11822
  23286963.609    -1310736.772 6   1686501.86321
  21297863.859     1524137.546 6   1187640.73222
  23031404.6954   -7169075.99945  -5465980.09661
 91  3 29 23 16 45.0000000  0  5G18G 2G11G19G 6
  23314605.703    14374936.038 6  11201219.18321
  21369018.406   -13493646.003 7 -10514487.69722
  23291851.742    -1285053.977 6   1706514.38621
  21300572.797     1538389.638 6   1198746.24323
  23025233.320    -7201501.708 6  -5491246.78221
 91  3 29 23 17  0.0000000  0  5G18G 2G11G19G 6
  23324367.859    14426240.619 6  11241196.60921
  21365344.945   -13512953.261 7 -10529532.26922
  23296763.5394   -1259244.93546   1726625.28461
  21303294.156     1552698.442 6   1209895.94722
  23019062.0394   -7233932.31546  -5516517.28861
 91  3 29 23 17 15.0000000  0  5G18G 2G11G19G 6
  23334137.727    14477580.169 6  11281201.29721
  21361682.1254  -13532199.10847 -10544528.99262
  23301698.469    -1233312.491 6   1746832.33421
  21306028.648     1567061.487 6   1221087.90923
  23012889.1884   -7266370.46546  -5541793.66961
 91  3 29 23 17 30.0000000  0  5G18G 2G11G19G 6
  23343914.164    14528953.589 6  11321232.36121
  21358031.1804  -13551384.12847 -10559478.32062
  23306657.0554   -1207257.54446   1767134.85061
  21308774.836     1581478.338 6   1232321.80122
  23006714.9774   -7298816.88446  -5567076.49461
 91  3 29 23 17 45.0000000  0  5G18G 2G11G19G 6
  23353696.703    14580362.573 6  11361291.13921
  21354392.0394  -13570506.67947 -10574378.97162
  23311638.4774   -1181078.59446   1787533.99361
  21311526.945     1595950.754 6   1243598.99223
  23000539.3914   -7331269.57346  -5592364.20661
 91  3 29 23 18  0.0000000  0  5G18G 2G11G19G 6
  23363486.008    14631806.256 6  11401376.95921
  21350764.5634  -13589567.37347 -10589231.42062
  23316642.7424   -1154776.59346   1808029.01561
  21314289.477     1610478.118 6   1254919.00023
  22994361.969    -7363729.203 6  -5617657.32121
 91  3 29 23 18 15.0000000  0  5G18G 2G11G19G 6
  23373283.023    14683287.446 6  11441491.99321
  21347150.063   -13608563.299 7 -10604033.39822
  23321672.6484   -1128348.65946   1828622.17761
  21317066.258     1625063.431 6   1266284.17023
  22988183.8284   -7396192.76446  -5642953.50861
 91  3 29 23 18 30.0000000  0  5G18G 2G11G19G 6
  23383086.172    14734799.490 6  11481631.06921
  21343545.9304  -13627500.81547 -10618789.86662
  23326724.852    -1101801.215 6   1849308.44521
  21319850.719     1639700.641 6   1277689.76623
  22982004.7504   -7428666.34646  -5668257.49461
 91  3 29 23 18 45.0000000  0  5G18G 2G11G19G 6
  23392893.672    14786345.026 6  11521796.25921
  21339954.6884  -13646376.95647 -10633498.50762
  23331799.031    -1075131.594 6   1870089.93021
  21322647.641     1654392.740 6   1289138.14622
  22975824.5474   -7461146.99946  -5693566.99161
 91  3 29 23 19  0.0000000  0  5G18G 2G11G19G 6
  23402710.977    14837929.533 6  11561991.80521
  21336375.2034  -13665186.04847 -10648154.90062
  23336898.9614   -1048334.34746   1890970.85661
  21325456.711     1669145.458 6   1300633.75522
  22969642.9694   -7493628.86246  -5718877.44961
 91  3 29 23 19 15.0000000  0  5G18G 2G11G19G 6
  23412533.6094   14889542.04346  11602209.16261
  21332806.9844  -13683938.63847 -10662767.26962
  23342019.703    -1021420.235 6   1911942.85121
  21328271.664     1683948.313 6   1312168.42923
  22963460.352    -7526122.478 6  -5744197.03521
 91  3 29 23 19 30.0000000  0  5G18G 2G11G19G 6
  23422360.391    14941187.195 6  11642451.96021
  21329249.8674  -13702629.98947 -10677331.92362
  23347164.742     -994384.692 6   1933009.45621
  21331099.516     1698806.423 6   1323746.16023
  22957274.078    -7558622.962 6  -5769521.98521
 91  3 29 23 19 45.0000000  0  5G18G 2G11G19G 6
  23432195.2894   14992866.82646  11682721.62461
  21325704.3834  -13721257.88047 -10691847.12962
  23352332.523     -967225.803 6   1954172.17921
  21333937.2114    1713722.06746   1335368.72862
  22951089.391    -7591127.953 6  -5794850.45621
 91  3 29 23 20  0.0000000  0  5G18G 2G11G19G 6
  23442036.8594   15044581.31346  11723018.44761
  21322172.0314  -13739821.66947 -10706312.38262
  23357524.789     -939943.158 6   1975431.33221
  21336787.766     1728695.931 6   1347036.66022
  22944902.9844   -7623636.81446  -5820181.94861
 91  3 29 23 20 15.0000000  0  5G18G 2G11G19G 6
  23451883.297    15096330.558 6  11763342.35321
  21318652.0864  -13758321.36747 -10720727.69962
  23362739.711     -912536.854 6   1996786.84121
  21339647.102     1743728.120 6   1358750.04222
  22938715.4304   -7656149.54246  -5845516.43861
 91  3 29 23 20 30.0000000  0  5G18G 2G11G19G 6
  23461737.234    15148107.983 6  11803688.23821
  21315142.6094  -13776763.08047 -10735097.82562
  23367978.031     -885013.223 6   2018233.77321
  21342516.898     1758812.818 6   1370504.33522
  22932527.0864   -7688671.85346  -5870858.39561
 91  3 29 23 20 45.0000000  0  5G18G 2G11G19G 6
  23471595.2894   15199917.45446  11844059.07361
  21311644.5784  -13795143.05047 -10749419.84462
  23373238.375     -857368.598 6   2039774.98821
  21345398.8204    1773953.73446   1382302.44263
  22926337.8134   -7721200.01346  -5896204.92161
 91  3 29 23 21  0.0000000  0  5G18G 2G11G19G 6
  23481460.352    15251757.242 6  11884453.55321
  21308158.3984  -13813462.54547 -10763694.73662
  23378522.086     -829604.569 6   2061409.24421
  21348290.406     1789149.764 6   1394143.48922
  22920145.133    -7753735.197 6  -5921556.91221
 91  3 29 23 21 15.0000000  0  5G18G 2G11G19G 6
  23491330.5474   15303624.33246  11924869.28261
  21304684.4924  -13831724.11447 -10777924.49762
  23383827.6724    -801723.84446   2083134.43861
  21351192.3914    1804398.46746   1406025.58762
  22913952.9064   -7786279.84346  -5946916.28261
 91  3 29 23 21 30.0000000  0  5G18G 2G11G19G 6
  23501208.766    15355524.990 6  11965311.18321
  21301221.0394  -13849921.73747 -10792104.43262
  23389155.570     -773720.656 6   2104955.05821
  21354104.383     1819706.064 6   1417953.57222
  22907758.8134   -7818827.80046  -5972278.23161
 91  3 29 23 21 45.0000000  0  5G18G 2G11G19G 6
  23511091.0704   15407453.57546  12005774.83961
  21297768.7664  -13868060.50647 -10806238.50662
  23394507.1094    -745600.32546   2126866.96661
  21357029.297     1835067.413 6   1429923.43922
  22901563.406    -7851384.197 6  -5997646.74421
 91  3 29 23 22  0.0000000  0  5G18G 2G11G19G 6
  23520976.9144   15459415.66445  12046264.59461
  21294329.5784  -13886134.76147 -10820322.30262
  23399882.836     -717357.455 6   2148874.34921
  21359960.820     1850488.433 6   1441939.79923
  22895367.7194   -7883942.94346  -6023017.10661
 91  3 29 23 22 15.0000000  0  5G18G 2G11G19G 6
  23530871.547    15511409.413 5  12086779.02021
  21290902.6724  -13904146.24147 -10834357.18562
  23405279.4144    -688994.05946   2170975.65661
  21362908.273     1865967.383 6   1454001.30023
  22889170.250    -7916506.099 6  -6048390.88521
 91  3 29 23 22 30.0000000  0  5G18G 2G11G19G 6
  23540772.1024   15563430.38646  12127314.67461
  21287485.7274  -13922098.47547 -10848345.90262
  23410698.617     -660513.747 6   2193168.06121
  21365863.422     1881500.927 6   1466105.34622
  22882972.6954   -7949076.84946  -6073770.60261
 91  3 29 23 22 45.0000000  0  5G18G 2G11G19G 6
  23550676.164    15615480.891 6  12167873.34021
  21284082.016   -13939989.262 7 -10862286.73522
  23416140.9224    -631914.39646   2215453.23561
  21368831.594     1897091.444 6   1478253.78922
  22876774.1884   -7981652.75846  -6099154.32261
 91  3 29 23 23  0.0000000  0  5G18G 2G11G19G 6
  23560586.352    15667561.157 6  12208455.17721
  21280689.3834  -13957818.26047 -10876179.42262
  23421607.398     -603195.988 6   2237831.17221
  21371808.898     1912739.340 6   1490446.93523
  22870573.070    -8014233.456 6  -6124541.77621
 91  3 29 23 23 15.0000000  0  5G18G 2G11G19G 6
  23570503.6174   15719671.86346  12249060.74561
  21277308.1484  -13975584.41747 -10890023.14262
  23427095.000     -574357.667 6   2260302.54721
  21374798.805     1928446.018 6   1502685.88623
  22864373.102    -8046817.882 6  -6149932.13321
 91  3 29 23 23 30.0000000  0  5G18G 2G11G19G 6
  23580426.086    15771811.248 6  12289688.65921
  21273938.4454  -13993289.15747 -10903819.00262
  23432605.117     -545401.157 6   2282866.01721
  21377796.414     1944209.919 6   1514969.42722
  22858171.5474   -8079407.28846  -6175326.38261
 91  3 29 23 23 45.0000000  0  5G18G 2G11G19G 6
  23590353.664    15823982.531 6  12330341.43121
  21270582.3754  -14010929.01647 -10917564.31462
  23438137.977     -516323.149 6   2305524.15621
  21380809.938     1960034.656 6   1527300.37422
  22851968.539    -8111998.001 6  -6200721.63321
 91  3 29 23 24  0.0000000  0  5G18G 2G11G19G 6
  23600287.531    15876182.518 6  12371016.57121
  21267236.6334  -14028507.19347 -10931261.55662
  23443694.297     -487127.147 6   2328274.23921
  21383830.352     1975917.220 6   1539676.37622
  22845766.7894   -8144593.15246  -6226120.36061
 91  3 29 23 24 15.0000000  0  5G18G 2G11G19G 6
  23610225.2894   15928408.41346  12411711.88961
  21263902.6334  -14046025.99247 -10944912.52962
  23449271.633     -457815.683 6   2351114.29621
  21386865.070     1991855.480 6   1552095.78522
  22839564.1094   -8177195.04146  -6251524.32561
 91  3 29 23 24 30.0000000  0  5G18G 2G11G19G 6
  23620169.039    15980666.521 6  12452432.31921
  21260581.9384  -14063479.09547 -10958512.31262
  23454872.477     -428382.312 6   2374049.34021
  21389908.828     2007856.093 6   1564563.77922
  22833359.734    -8209796.914 6  -6276928.27921
 91  3 29 23 24 45.0000000  0  5G18G 2G11G19G 6
  23630119.6094   16032953.64045  12493175.34561
  21257272.2584  -14080869.45247 -10972063.20262
  23460494.4614    -398830.49746   2397076.67061
  21392966.305     2023915.620 6   1577077.68223
  22827153.8754   -8242401.91446  -6302334.68161
 91  3 29 23 25  0.0000000  0  5G18G 2G11G19G 6
  23640075.6804   16085271.98046  12533942.70661
  21253976.1954  -14098194.74247 -10985563.39363
  23466142.711     -369157.944 6   2420198.08421
  21396031.563     2040036.937 6   1589639.72523
  22820949.0554   -8275007.38046  -6327741.43761
 91  3 29 23 25 15.0000000  0  5G18G 2G11G19G 6
  23650037.102    16137621.016 5  12574733.98121
  21250691.0784  -14115455.22547 -10999013.08762
  23471811.3674    -339365.25446   2443413.11161
  21399113.273     2056219.978 6   1602249.86723
  22814744.258    -8307613.623 6  -6353148.79421
 91  3 29 23 25 30.0000000  0  5G18G 2G11G19G 6
  23660005.7424   16189997.97246  12615547.01461
  21247417.6024  -14132653.27547 -11012414.12762
  23477502.758     -309454.951 6   2466719.78221
  21402203.289     2072462.429 6   1614906.29922
  22808539.6724   -8340222.61146  -6378558.30261
 91  3 29 23 25 45.0000000  0  5G18G 2G11G19G 6
  23669977.867    16242406.414 5  12656384.56221
  21244157.9614  -14149784.88247 -11025763.39863
  23483218.281     -279423.444 6   2490120.90021
  21405306.633     2088768.260 6   1627612.12222
  22802333.9144   -8372830.63446  -6403967.04861
 91  3 29 23 26  0.0000000  0  5G18G 2G11G19G 6
  23679958.7664   16294847.32546  12697247.42261
  21240911.2194  -14166849.07547 -11039060.13462
  23488955.9774    -249269.96146   2513617.05561
  21408424.055     2105138.633 6   1640368.24123
  22796130.1724   -8405436.45046  -6429374.08061
 91  3 29 23 26 15.0000000  0  5G18G 2G11G19G 6
  23689942.836    16347315.546 5  12738131.55421
  21237676.5864  -14183850.71747 -11052308.14062
  23494717.4534    -218999.47546   2537204.39161
  21411548.352     2121568.941 6   1653171.06422
  22789925.6804   -8438044.60246  -6454782.93561
 91  3 29 23 26 30.0000000  0  5G18G 2G11G19G 6
  23699932.008    16399811.807 5  12779037.54521
  21234452.3754  -14200788.87847 -11065506.67662
  23500500.4384    -188611.14846   2560883.54761
  21414687.469     2138060.186 6   1666021.36622
  22783719.063    -8470654.095 6  -6480192.82821
 91  3 29 23 26 45.0000000  0  5G18G 2G11G19G 6
  23709925.609    16452337.139 5  12819966.18121
  21231241.9454  -14217662.20247 -11078654.68762
  23506304.8444    -158103.89746   2584655.37761
  21417836.633     2154613.751 6   1678920.23123
  22777514.0394   -8503263.36946  -6505602.55461
 91  3 29 23 27  0.0000000  0  5G18G 2G11G19G 6
  23719927.0394   16504889.87745  12860916.18461
  21228042.9924  -14234472.24247 -11091753.37962
  23512132.742     -127479.443 6   2608518.52821
  21420998.422     2171228.405 6   1691866.69423
  22771307.5944   -8535873.86446  -6531013.23061
 91  3 29 23 27 15.0000000  0  5G18G 2G11G19G 6
  23729934.2814   16557473.46245  12901890.21261
  21224856.1954  -14251215.13647 -11104799.75163
  23517984.4304     -96734.33346   2632475.69261
  21424172.547     2187908.058 6   1704863.80923
  22765104.0474   -8568481.60046  -6556421.76861
 91  3 29 23 27 30.0000000  0  5G18G 2G11G19G 6
  23739946.4064   16610086.43845  12942887.15661
  21221683.1414  -14267892.42547 -11117795.00863
  23523856.227      -65870.179 6   2656525.63221
  21427356.531     2204651.304 6   1717910.47422
  22758897.2344   -8601087.98246  -6581829.23861
 91  3 29 23 27 45.0000000  0  5G18G 2G11G19G 6
  23749963.6644   16662725.81645  12983904.66261
  21218521.4144  -14284506.60147 -11130741.08463
  23529752.0164     -34889.75046   2680666.17461
  21430556.477     2221455.650 6   1731004.75322
  22752693.2664   -8633695.44146  -6607237.54961
 91  3 29 23 28  0.0000000  0  5G18G 2G11G19G 6
  23759984.945    16715397.105 5  13024947.02721
  21215372.5784  -14301052.07147 -11143633.62162
  23535671.313       -3787.832 6   2704901.39121
  21433766.156     2238326.794 6   1744151.08023
  22746490.0314   -8666298.38446  -6632642.34661
 91  3 29 23 28 15.0000000  0  5G18G 2G11G19G 6
  23770015.4384   16768096.07545  13066010.98661
  21212236.5394  -14317532.57847 -11156475.54363
  23541611.617       27431.776 6   2729228.30721
  21436989.648     2255261.151 6   1757346.66123
  22740284.8914   -8698900.25546  -6658046.31061
 91  3 29 23 28 30.0000000  0  5G18G 2G11G19G 6
  23780047.883    16820817.709 5  13107092.57721
  21209111.7424  -14333952.65747 -11169270.37263
  23547573.484       58764.086 6   2753643.04821
  21440225.102     2272254.192 6   1770587.97623
  22734080.7974   -8731505.63646  -6683452.99961
 91  3 29 23 28 45.0000000  0  5G18G 2G11G19G 6
  23790084.1564   16873566.15845  13148195.08161
  21205999.8204  -14350308.17647 -11182014.89963
  23553558.539       90213.007 6   2778148.64621
  21443469.406     2289310.297 6   1783878.42723
  22727875.8444   -8764110.22746  -6708859.07861
 91  3 29 23 29  0.0000000  0  5G18G 2G11G19G 6
  23800127.367    16926340.625 5  13189317.85321
  21202899.7734  -14366599.79447 -11194709.63362
  23559566.344      121777.791 6   2802744.53921
  21446727.359     2306429.000 6   1797217.65722
  22721670.3834   -8796714.40546  -6734264.84461
 91  3 29 23 29 15.0000000  0  5G18G 2G11G19G 6
  23810175.016    16979138.681 5  13230459.00021
  21199810.4304  -14382829.89147 -11207356.42663
  23565593.711      153456.006 6   2827428.80621
  21449995.258     2323608.232 6   1810604.05623
  22715466.586    -8829320.325 6  -6759671.95021
 91  3 29 23 29 30.0000000  0  5G18G 2G11G19G 6
  23820228.125    17031964.568 5  13271621.83821
  21196734.4224  -14398994.06947 -11219951.85263
  23571644.852      185251.918 6   2852204.78721
  21453274.445     2340852.434 6   1824041.08323
  22709262.250    -8861923.408 6  -6785076.86221
 91  3 29 23 29 45.0000000  0  5G18G 2G11G19G 6
  23830284.734    17084814.291 5  13312803.25221
  21193670.5634  -14415095.76047 -11232498.59162
  23577715.8444     217161.48346   2877069.34461
  21456570.016     2358158.226 6   1837526.09522
  22703057.0314   -8894527.19946  -6810482.32061
 91  3 29 23 30  0.0000000  0  5G18G 2G11G19G 6
  23840345.258    17137684.102 5  13354000.29721
  21190618.4614  -14431138.51847 -11244999.41063
  23583809.031      249180.883 6   2902019.47721
  21459875.813     2375522.066 6   1851056.33623
  22696853.2974   -8927135.02646  -6835890.91561
 91  3 29 23 30 15.0000000  0  5G18G 2G11G19G 6
  23850409.5704   17190576.21145  13395214.74161
  21187576.930   -14447120.006 7 -11257452.49023
  23589924.117      281312.412 6   2927056.97921
  21463189.813     2392946.481 6   1864633.77923
  22690646.8914   -8959744.35346  -6861300.69061
 91  3 29 23 30 30.0000000  0  5G18G 2G11G19G 6
  23860480.367    17243492.848 5  13436448.28921
  21184547.6174  -14463037.61147 -11269855.79363
  23596059.781      313558.425 6   2952183.69021
  21466516.211     2410434.310 6   1878260.63622
  22684441.180    -8992352.443 6  -6886709.50621
 91  3 29 23 30 45.0000000  0  5G18G 2G11G19G 6
  23870556.328    17296434.426 5  13477701.26221
  21181531.5004  -14478890.88347 -11282208.96963
  23602217.430      345919.174 6   2977399.80521
  21469857.250     2427986.083 6   1891937.32422
  22678236.5704   -9024958.77746  -6912116.94661
 91  3 29 23 31  0.0000000  0  5G18G 2G11G19G 6
  23880634.344    17349398.367 5  13518971.68021
  21178526.0944  -14494682.08847 -11294513.77163
  23608397.313      378392.273 6   3002703.46421
  21473208.859     2445599.692 6   1905662.18822
  22672031.6484   -9057565.18546  -6937524.44861
 91  3 29 23 31 15.0000000  0  5G18G 2G11G19G 6
  23890717.813    17402383.444 5  13560258.55421
  21175532.3284  -14510412.11347 -11306770.90463
  23614598.6644     410976.33746   3028093.58361
  21476573.523     2463274.190 6   1919434.49722
  22665826.9774   -9090172.82146  -6962932.90961
 91  3 29 23 31 30.0000000  0  5G18G 2G11G19G 6
  23900805.516    17455391.696 5  13601563.48521
  21172552.250   -14526078.679 7 -11318978.59223
  23620820.7274     443673.45846   3053571.79561
  21479949.750     2481012.090 6   1933256.21523
  22659621.4064   -9122779.07846  -6988340.29461
 91  3 29 23 31 45.0000000  0  5G18G 2G11G19G 6
  23910896.656    17508425.400 5  13642888.26421
  21169582.695   -14541679.419 7 -11331134.98823
  23627064.9304     476485.96646   3079139.92561
  21483337.211     2498816.105 6   1947129.45223
  22653417.672    -9155381.342 6  -7013744.56821
 91  3 29 23 32  0.0000000  0  5G18G 2G11G19G 6
  23920991.641    17561480.494 5  13684229.68721
  21166625.4454  -14557218.02647 -11343242.96463
  23633330.797      509409.964 6   3104794.93621
  21486735.727     2516682.526 6   1961051.31423
  22647213.383    -9187983.081 6  -7039148.44121
 91  3 29 23 32 15.0000000  0  5G18G 2G11G19G 6
  23931092.430    17614553.733 5  13725585.26421
  21163680.0234  -14572697.47647 -11355304.84563
  23639615.664      542442.079 6   3130534.19021
  21490147.773     2534608.432 6   1975019.53123
  22641009.742    -9220587.314 6  -7064554.25221
 91  3 29 23 32 30.0000000  0  5G18G 2G11G19G 6
  23941194.7344   17667643.86745  13766954.00561
  21160745.695   -14588118.935 7 -11367321.54123
  23645921.758      575580.798 6   3156356.50221
  21493568.5234    2552592.74646   1989033.25262
  22634804.328    -9253195.043 6  -7089962.78721
 91  3 29 23 32 45.0000000  0  5G18G 2G11G19G 6
  23951302.6884   17720753.72445  13808338.10861
  21157822.266   -14603479.366 7 -11379290.68123
  23652248.8834     608829.00646   3182264.12161
  21497004.719     2570638.652 6   2003094.97022
  22628600.211    -9285803.052 6  -7115371.54421
 91  3 29 23 33  0.0000000  0  5G18G 2G11G19G 6
  23961412.438    17773885.455 5  13849739.24321
  21154911.6334  -14618776.46947 -11391210.47363
  23658596.5784     642188.96546   3208258.82561
  21500450.094     2588748.791 6   2017206.74523
  22622394.617    -9318408.746 6  -7140778.50121
 91  3 29 23 33 15.0000000  0  5G18G 2G11G19G 6
  23971528.1724   17827038.75845  13891157.21161
  21152013.2274  -14634010.06947 -11403080.78563
  23664966.3054     675660.51146   3234340.48561
  21503909.359     2606923.393 6   2031368.75422
  22616190.414    -9351011.864 6  -7166183.44421
 91  3 29 23 33 30.0000000  0  5G18G 2G11G19G 6
  23981647.5634   17880214.15245  13932592.36061
  21149126.1484  -14649179.64747 -11414901.21063
  23671356.3524     709243.85246   3260509.25561
  21507378.852     2625162.861 6   2045581.29723
  22609987.125    -9383611.751 6  -7191585.88221
 91  3 29 23 33 45.0000000  0  5G18G 2G11G19G 6
  23991769.7504   17933409.57845  13974043.16661
  21146251.2194  -14664286.75447 -11426672.95163
  23677769.3754     742937.20846   3286763.76061
  21510862.953     2643466.041 6   2059843.49422
  22603784.266    -9416209.783 6  -7216986.86421
 91  3 29 23 34  0.0000000  0  5G18G 2G11G19G 6
  24001895.6334   17986619.13445  14015504.95361
  21143387.3674  -14679337.09547 -11438400.46163
  23684201.273      776734.534 6   3313099.26221
  21514356.227     2661827.358 6   2074150.99023
  22597579.617    -9448811.610 6  -7242390.80921
 91  3 29 23 34 15.0000000  0  5G18G 2G11G19G 6
  24012023.8444   18039844.19945  14056978.81161
  21140533.8984  -14694329.02647 -11450082.45763
  23690652.078      810637.176 6   3339516.84921
  21517862.367     2680248.424 6   2088505.05023
  22591376.148    -9481415.396 6  -7267796.28021
 91  3 29 23 34 30.0000000  0  5G18G 2G11G19G 6
  24022155.9304   18093087.93445  14098467.24061
  21137693.1414  -14709259.39047 -11461716.48063
  23697125.1954     844648.21746   3366018.90161
  21521379.258     2698732.510 6   2102908.21122
  22585171.375    -9514017.814 6  -7293200.68621
 91  3 29 23 34 45.0000000  0  5G18G 2G11G19G 6
  24032290.867    18146348.176 5  14139968.50021
  21134862.9774  -14724129.93147 -11473303.88563
  23703617.2034     878765.70146   3392603.89761
  21524908.336     2717278.078 6   2117359.28622
  22578968.414    -9546620.400 6  -7318605.23321
 91  3 29 23 35  0.0000000  0  5G18G 2G11G19G 6
  24042427.820    18199621.912 5  14181480.29921
  21132044.813   -14738943.651 7 -11484847.01923
  23710128.555      912986.505 6   3419269.39021
  21528447.914     2735882.297 6   2131856.05922
  22572762.234    -9579225.974 6  -7344012.10421
 91  3 29 23 35 15.0000000  0  5G18G 2G11G19G 6
  24052570.250    18252910.614 5  14223003.75521
  21129235.6484  -14753698.68547 -11496344.42063
  23716660.9924     947312.13146   3446016.56261
  21532001.000     2754546.866 6   2146399.85722
  22566557.305    -9611832.556 6  -7369419.75621
 91  3 29 23 35 30.0000000  0  5G18G 2G11G19G 6
  24062711.3364   18306208.43945  14264534.29861
  21126439.3444  -14768400.64347 -11507800.46363
  23723210.9384     981736.65446   3472840.79961
  21535562.523     2773266.459 6   2160986.53222
  22560350.7504   -9644445.73246  -7394832.55161
 91  3 29 23 35 45.0000000  0  5G18G 2G11G19G 6
  24072855.8134   18359521.42245  14306076.67261
  21123652.2814  -14783043.18147 -11519210.20463
  23729782.383     1016266.249 6   3499746.90721
  21539137.227     2792047.702 6   2175621.24822
  22554145.219    -9677058.819 6  -7420245.27021
 91  3 29 23 36  0.0000000  0  5G18G 2G11G19G 6
  24083004.953    18412850.991 5  14347631.94721
  21120877.477   -14797624.732 7 -11530572.42623
  23736372.719     1050902.111 6   3526735.82021
  21542721.977     2810892.119 6   2190305.18522
  22547940.5784   -9709670.09146  -7445656.57861
 91  3 29 23 36 15.0000000  0  5G18G 2G11G19G 6
  24093157.1644   18466199.01345  14389201.62261
  21118114.664   -14812143.204 7 -11541885.49623
  23742985.1484    1085646.12446   3553809.01761
  21546321.102     2829802.072 6   2205040.19322
  22541735.234    -9742277.293 6  -7471064.71021
 91  3 29 23 36 30.0000000  0  5G18G 2G11G19G 6
  24103313.5634   18519559.99945  14430781.37261
  21115363.664   -14826603.640 7 -11553153.34323
  23749614.9384    1120492.79846   3580962.19461
  21549929.945     2848772.535 6   2219822.35022
  22535528.891    -9774885.480 6  -7496473.61021
 91  3 29 23 36 45.0000000  0  5G18G 2G11G19G 6
  24113469.172    18572936.173 5  14472372.98021
  21112622.4384  -14841003.75347 -11564374.18363
  23756266.1254    1155444.30346   3608197.07261
  21553553.039     2867805.760 6   2234653.41322
  22529324.5554   -9807492.19146  -7521881.36361
 91  3 29 23 37  0.0000000  0  5G18G 2G11G19G 6
  24123628.0634   18626327.34545  14513976.26361
  21109893.5004  -14855343.73647 -11575548.17163
  23762938.070     1190500.400 6   3635513.45321
  21557185.813     2886902.085 6   2249533.65122
  22523119.727    -9840097.060 6  -7547287.67921
 91  3 29 23 37 15.0000000  0  5G18G 2G11G19G 6
  24133791.9844   18679732.43745  14555590.41061
  21107175.9694  -14869624.22147 -11586675.79263
  23769627.625     1225660.284 6   3662910.70021
  21560833.328     2906060.801 6   2264462.50022
  22516914.797    -9872700.825 6  -7572693.13821
 91  3 29 23 37 30.0000000  0  5G18G 2G11G19G 6
  24143956.852    18733157.904 5  14597220.41321
  21104472.1954  -14883838.47847 -11597751.81063
  23776340.4224    1260930.19846   3690393.69161
  21564490.0004    2925288.62946   2279445.19262
  22510712.289    -9905296.585 6  -7598092.35321
 91  3 29 23 37 45.0000000  0  5G18G 2G11G19G 6
  24154128.0314   18786594.87645  14638859.39361
  21101777.344   -14897995.239 7 -11608783.02523
  23783070.0164    1296301.14946   3717955.39861
  21568162.9534    2944576.98746   2294475.05362
  22504509.9304   -9937892.89546  -7623492.00361
 91  3 29 23 38  0.0000000  0  5G18G 2G11G19G 6
  24164299.273    18840048.427 5  14680511.28521
  21099095.266   -14912089.204 7 -11619765.31223
  23789821.5004    1331778.21046   3745599.80061
  21571844.3674    2963931.42946   2309556.41162
  22498309.102    -9970484.255 6  -7648887.79421
 91  3 29 23 38 15.0000000  0  5G18G 2G11G19G 6
  24174475.1954   18893515.61645  14722173.79761
  21096424.430   -14926122.977 7 -11630700.69123
  23796593.359     1367358.649 6   3773324.73821
  21575541.250     2983349.621 6   2324687.43922
  22492106.195   -10003073.015 6  -7674281.56421
 91  3 29 23 38 30.0000000  0  5G18G 2G11G19G 6
  24184652.9144   18946998.35245  14763848.43661
  21093765.906   -14940094.536 7 -11641587.59623
  23803384.2034    1403044.18446   3801131.57661
  21579250.2584    3002833.50546   2339869.65762
  22485904.852   -10035657.131 6  -7699671.70521
 91  3 29 23 38 45.0000000  0  5G18G 2G11G19G 6
  24194833.859    19000491.346 5  14805531.04821
  21091118.359   -14954008.841 7 -11652429.88323
  23810193.969     1438829.589 6   3829016.25421
  21582968.078     3022378.197 6   2355099.26322
  22479704.148   -10068241.302 6  -7725061.89721
 91  3 29 23 39  0.0000000  0  5G18G 2G11G19G 6
  24205016.2974   19054002.22345  14847227.61361
  21088483.047   -14967858.145 7 -11663221.52623
  23817024.3364    1474722.47146   3856984.66961
  21586700.3284    3041991.64846   2370382.44562
  22473505.1174  -10100817.49246  -7750445.86961
 91  3 29 23 39 15.0000000  0  5G18G 2G11G19G 6
  24215198.320    19107520.639 5  14888930.03521
  21085857.867   -14981652.563 7 -11673970.39923
  23823872.8754    1510712.43946   3885028.73361
  21590443.727     3061663.926 6   2385711.46522
  22467307.563   -10133395.791 6  -7775831.47721
 91  3 29 23 39 30.0000000  0  5G18G 2G11G19G 6
  24225383.8364   19161044.47645  14930636.67861
  21083243.109   -14995394.073 7 -11684678.04323
  23830740.4454    1546797.33046   3913146.76361
  21594198.492     3081393.208 6   2401084.90822
  22461106.445   -10165977.742 6  -7801219.93421
 91  3 29 23 39 45.0000000  0  5G18G 2G11G19G 6
  24235572.344    19214582.495 5  14972354.40021
  21080639.2894  -15009073.50947 -11695337.31663
  23837625.0864    1582985.75746   3941345.46961
  21597965.211     3101188.693 6   2416509.93822
  22454907.0084  -10198554.30646  -7826604.19161
 91  3 29 23 40  0.0000000  0  5G18G 2G11G19G 6
  24245762.953    19268132.482 5  15014081.45121
  21078048.2274  -15022692.94047 -11705949.83263
  23844531.2734    1619275.53546   3969623.15661
  21601742.2344    3121048.28246   2431984.91262
  22448708.227   -10231127.353 6  -7851985.71521
 91  3 29 23 40 15.0000000  0  5G18G 2G11G19G 6
  24255955.266    19321694.163 5  15055817.58221
  21075467.6484  -15036252.24747 -11716515.49963
  23851456.6024    1655666.52946   3997979.71061
  21605535.5234    3140972.22946   2447510.03562
  22442511.328   -10263696.631 6  -7877364.29221
 91  3 29 23 40 30.0000000  0  5G18G 2G11G19G 6
  24266150.078    19375264.087 5  15097560.14421
  21072898.344   -15049754.846 7 -11727036.98123
  23858399.922     1692155.084 6   4026412.28221
  21609336.6174    3160957.58946   2463083.01462
  22436313.227   -10296265.281 6  -7902742.38321
 91  3 29 23 40 45.0000000  0  5G18G 2G11G19G 6
  24276346.4614   19428839.86445  15139307.26461
  21070339.344   -15063202.790 7 -11737515.87323
  23865362.234     1728738.863 6   4054919.04221
  21613153.6484    3181002.24346   2478702.19362
  22430114.906   -10328835.230 6  -7928121.49021
 91  3 29 23 41  0.0000000  0  5G18G 2G11G19G 6
  24286543.4064   19482428.28045  15181064.25061
  21067791.8054  -15076589.34247 -11747946.92463
  23872342.898     1765424.664 6   4083505.30721
  21616980.820     3201113.216 6   2494373.05822
  22423918.727   -10361399.296 6  -7953496.00721
 91  3 29 23 41 15.0000000  0  5G18G 2G11G19G 6
  24296741.6884   19536024.14545  15222827.03561
  21065256.102   -15089919.319 7 -11758333.89523
  23879342.648     1802207.083 6   4112166.85321
  21620818.2664    3221285.56646   2510091.74062
  22417722.641   -10393962.278 6  -7978869.68321
 91  3 29 23 41 30.0000000  0  5G18G 2G11G19G 6
  24306944.0704   19589628.00845  15264596.01661
  21062730.211   -15103191.885 7 -11768676.13123
  23886360.0234    1839086.69646   4140904.15761
  21624671.7814    3241520.24646   2525858.98962
  22411526.305   -10426523.182 6  -8004241.74221
 91  3 29 23 41 45.0000000  0  5G18G 2G11G19G 6
  24317146.2114   19643240.76245  15306371.97961
  21060215.352   -15116405.827 7 -11778972.68923
  23893397.8444    1876064.51446   4169717.96961
  21628532.0314    3261818.73346   2541675.95962
  22405330.516   -10459080.590 6  -8029611.07121
 91  3 29 23 42  0.0000000  0  5G18G 2G11G19G 6
  24327349.1414   19696860.99445  15348153.75161
  21057711.4454  -15129562.32747 -11789224.48063
  23900451.781     1913139.004 6   4198607.11421
  21632402.898     3282179.754 6   2557541.66222
  22399134.875   -10491635.647 6  -8054978.57221
 91  3 29 23 42 15.0000000  0  5G18G 2G11G19G 6
  24337553.8674   19750488.31145  15389941.06161
  21055218.891   -15142661.601 7 -11799431.68423
  23907526.0394    1950309.79246   4227571.29661
  21636293.313     3302603.269 6   2573456.07022
  22392942.094   -10524188.338 6  -8080344.22421
 91  3 29 23 42 30.0000000  0  5G18G 2G11G19G 6
  24347762.4224   19804129.05545  15431738.80061
  21052738.523   -15155697.107 7 -11809589.19523
  23914618.977     1987583.179 6   4256615.42621
  21640193.930     3323095.992 6   2589424.39622
  22386747.516   -10556731.784 6  -8105702.67521
 91  3 29 23 42 45.0000000  0  5G18G 2G11G19G 6
  24357971.797    19857778.267 5  15473543.17121
  21050268.344   -15168673.604 7 -11819700.72523
  23921729.438     2024954.049 6   4285735.49821
  21644104.766     3343653.224 6   2605442.99922
  22380554.492   -10589270.713 6  -8131057.60721
 91  3 29 23 43  0.0000000  0  5G18G 2G11G19G 6
  24368182.0944   19911435.15345  15515353.46061
  21047809.7894  -15181591.56947 -11829766.65063
  23928858.813     2062421.907 6   4314931.17521
  21648026.742     3364274.591 6   2621511.57122
  22374365.320   -10621805.350 6  -8156409.19421
 91  3 29 23 43 15.0000000  0  4G 2G11G19G 6
  21045363.523   -15194452.173 7 -11839787.87823
  23936006.398     2099985.116 5   4344201.13221
  21651964.484     3384959.023 6   2637629.28422
  22368173.906   -10654336.714 6  -8181758.22821
 91  3 29 23 43 30.0000000  0  4G 2G11G19G 6
  21042927.102   -15207256.122 7 -11849764.96023
  23943173.8984    2137642.68745   4373544.62861
  21655911.2114    3405706.05346   2653795.77562
  22361984.352   -10686865.219 6  -8207105.03421
 91  3 29 23 43 45.0000000  0  4G 2G11G19G 6
  21040501.273   -15220001.450 7 -11859696.35723
  23950359.3594    2175396.47745   4402963.10261
  21659872.3754    3426517.89346   2670012.76362
  22355794.109   -10719388.567 6  -8232447.82921
 91  3 29 23 44  0.0000000  0  4G 2G11G19G 6
  21038086.203   -15232692.061 7 -11869585.12523
  23957561.8134    2213242.23945   4432453.24561
  21663846.6804    3447390.61646   2686277.19162
  22349606.141   -10751910.661 6  -8257789.64121
 91  3 29 23 44 15.0000000  0  4G 2G11G19G 6
  21035683.031   -15245322.543 7 -11879427.03023
  23964780.8834    2251185.13645   4462019.06861
  21667829.781     3468329.851 6   2702593.45322
  22343418.109   -10784425.812 6  -8283126.03621
 91  3 29 23 44 30.0000000  0  4G 2G11G19G 6
  21033290.453   -15257893.761 7 -11889222.76423
  23972018.9774    2289223.96945   4491659.65361
  21671826.266     3489334.758 6   2718960.88722
  22337231.406   -10816934.677 6  -8308457.54421
 91  3 29 23 44 45.0000000  0  4G 2G11G19G 6
  21030909.734   -15270404.969 7 -11898971.73323
  23979276.1094    2327359.28145   4521375.42761
  21675837.203     3510406.138 6   2735380.11922
  22331046.789   -10849436.439 6  -8333783.52321
 91  3 29 23 45  0.0000000  0  4G 2G11G19G 6
  21028539.828   -15282855.891 7 -11908673.72723
  23986552.273     2365591.037 6   4551166.34621
  21679859.477     3531544.458 6   2751851.51722
  22324864.266   -10881930.672 6  -8359103.62621
 91  3 29 23 45 15.0000000  0  4G 2G11G19G 6
  21026182.102   -15295249.856 7 -11918331.33823
  23993845.641     2403915.636 5   4581029.61721
  21683893.758     3552746.423 6   2768372.50322
  22318680.8444  -10914420.47546  -8384420.28561
 91  3 29 23 45 30.0000000  0  4G 2G11G19G 6
  21023835.164   -15307583.442 7 -11927941.88623
  24001156.6024    2442336.27145   4610967.70361
  21687941.0314    3574015.74046   2784945.97162
  22312499.7584  -10946902.07946  -8409730.55161
 91  3 29 23 45 45.0000000  0  4G 2G11G19G 6
  21021499.352   -15319856.356 7 -11937505.18323
  24008485.3444    2480853.01045   4640980.68461
  21692000.719     3595352.749 6   2801572.18622
  22306319.5164  -10979375.10146  -8435034.14261
 91  3 29 23 46  0.0000000  0  4G 2G11G19G 6
  21019176.758   -15332067.102 7 -11947020.02823
  24015835.3674    2519467.10345   4671069.52261
  21696074.008     3616759.116 6   2818252.44622
  22300143.102   -11011837.838 6  -8460329.70221
 91  3 29 23 46 15.0000000  0  4G 2G11G19G 6
  21016862.641   -15344224.606 7 -11956493.38323
  24023199.0784    2558169.27245   4701226.98661
  21700159.484     3638225.810 6   2834979.71622
  22293965.8984  -11044299.03646  -8485624.07861
 91  3 29 23 46 30.0000000  0  4G 2G11G19G 6
  21014558.711   -15356325.867 7 -11965922.91423
  24030579.4304    2596962.15245   4731455.14061
  21704256.0314    3659756.04446   2851756.49962
  22287789.133   -11076755.490 6  -8510914.74621
 91  3 29 23 46 45.0000000  0  4G 2G11G19G 6
  21012267.438   -15368368.608 7 -11975306.84323
  24037979.3364    2635847.94245   4761755.68861
  21708366.773     3681352.256 6   2868584.68522
  22281614.6724  -11109204.66846  -8536199.75261
 91  3 29 23 47  0.0000000  0  4G 2G11G19G 6
  21009987.5784  -15380351.50147 -11984644.13663
  24045397.703     2674827.783 5   4792129.52621
  21712488.4694    3703016.00146   2885465.49462
  22275441.3204  -11141644.95746  -8561477.83261
 91  3 29 23 47 15.0000000  0  4G 2G11G19G 6
  21007718.141   -15392275.948 7 -11993935.88723
  24052833.094     2713899.936 5   4822575.28121
  21716624.742     3724745.962 6   2902397.90522
  22269270.203   -11174077.642 6  -8586749.98321
 91  3 29 23 47 30.0000000  0  4G 2G11G19G 6
  21005459.7584  -15404146.13647 -12003185.35663
  24060284.555     2753059.858 5   4853089.42821
  21720770.508     3746537.922 6   2919378.62422
  22263098.0944  -11206506.64546  -8612019.26661
 91  3 29 23 47 45.0000000  0  4G 2G11G19G 6
  21003212.211   -15415958.844 7 -12012390.04123
  24067754.609     2792310.345 5   4883674.14821
  21724930.016     3768395.167 6   2936410.21622
  22256928.7974  -11238928.81146  -8637283.22461
 91  3 29 23 48  0.0000000  0  4G 2G11G19G 6
  21000973.969   -15427717.844 7 -12021552.87623
  24075240.461     2831647.486 5   4914326.41021
  21729101.4064    3790314.20046   2953489.95562
  22250760.7664  -11271347.49746  -8662544.47261
 91  3 29 23 48 15.0000000  0  4G 2G11G19G 6
  20998747.672   -15439418.438 7 -12030670.19323
  24082741.898     2871075.821 5   4945049.70421
  21733285.273     3812299.788 6   2970621.56022
  22244592.1414  -11303757.87046  -8687799.24061
 91  3 29 23 48 30.0000000  0  4G 2G11G19G 6
  20996531.602   -15451062.069 7 -12039743.12823
  24090263.3834    2910593.71945   4975842.81561
  21737480.086     3834350.551 6   2987803.95022
  22238426.2894  -11336160.93246  -8713048.31461
 91  3 29 23 48 45.0000000  0  4G 2G11G19G 6
  20994325.953   -15462651.343 7 -12048773.70323
  24097799.3674    2950198.25345   5006703.43361
  21741690.5004    3856464.09646   3005035.25662
  22232260.0864  -11368559.21746  -8738293.66161
 91  3 29 23 49  0.0000000  0  4G 2G11G19G 6
  20992131.7894  -15474179.92347 -12057756.98463
  24105354.352     2989895.435 5   5037636.23521
  21745910.6804    3878646.75846   3022320.41262
  22226097.8284  -11400946.22146  -8763530.22261
 91  3 29 23 49 15.0000000  0  4G 2G11G19G 6
  20989949.617   -15485649.738 7 -12066694.47723
  24112925.5084    3029683.08145   5068639.51861
  21750145.6644    3900896.82946   3039658.09462
  22219935.7274  -11433323.66146  -8788759.32261
 91  3 29 23 49 30.0000000  0  4G 2G11G19G 6
  20987778.094   -15497063.017 7 -12075587.91523
  24120513.469     3069558.707 5   5099711.39421
  21754390.2194    3923212.29546   3057046.73562
  22213775.813   -11465693.441 6  -8813982.45521
 91  3 29 23 49 45.0000000  0  4G 2G11G19G 6
  20985616.781   -15508420.544 7 -12084437.91623
  24128117.0314    3109521.14245   5130850.86361
  21758650.1884    3945592.25946   3074485.64462
  22207617.5084  -11498056.24046  -8839200.15061
 91  3 29 23 50  0.0000000  0  4G 2G11G19G 6
  20983465.359   -15519723.867 7 -12093245.67223
  24135738.1254    3149568.71245   5162056.69061
  21762919.2424    3968035.31946   3091973.70962
  22201459.258   -11530413.250 6  -8864413.33121
 91  3 29 23 50 15.0000000  0  4G 2G11G19G 6
  20981325.672   -15530969.016 7 -12102008.10023
  24143376.6094    3189705.17945   5193331.77761
  21767203.6414    3990545.73846   3109514.26962
  22195304.750   -11562760.383 6  -8889618.81921
 91  3 29 23 50 30.0000000  0  4G 2G11G19G 6
  20979197.438   -15542153.787 7 -12110723.48123
  24151030.859     3229932.244 5   5224677.45521
  21771498.8834    4013125.51446   3127108.86262
  22189152.859   -11595095.360 6  -8914814.82821
 91  3 29 23 50 45.0000000  0  4G 2G11G19G 6
  20977079.9774  -15553281.63847 -12119394.50863
  24158702.539     3270246.226 5   5256090.87021
  21775810.3054    4035771.22746   3144754.83562
  22183000.4924  -11627421.46546  -8940003.92961
 91  3 29 23 51  0.0000000  0  4G 2G11G19G 6
  20974973.719   -15564352.021 8 -12128020.75723
  24166390.6094    3310647.43245   5287572.23961
  21780134.6414    4058483.70746   3162452.83662
  22176850.0474  -11659737.86146  -8965185.46561
 91  3 29 23 51 15.0000000  0  4G 2G11G19G 6
  20972876.633   -15575372.234 8 -12136607.91523
  24174094.688     3351128.293 5   5319115.67521
  21784466.9534    4081255.77846   3180197.27262
  22170700.945   -11692051.527 6  -8990364.86921
 91  3 29 23 51 30.0000000  0  4G 2G11G19G 6
  20970789.516   -15586334.913 7 -12145150.24023
  24181814.8054    3391695.95445   5350726.75261
  21788814.4064    4104095.06146   3197994.08162
  22164554.430   -11724355.013 6  -9015536.34621
 91  3 29 23 51 45.0000000  0  4G 2G11G19G 6
  20968713.9064  -15597242.53647 -12153649.66263
  24189550.156     3432347.701 5   5382403.36221
  21793170.8984    4126999.23446   3215841.45462
  22158408.695   -11756650.303 6  -9040701.42621
 91  3 29 23 52  0.0000000  0  4G 2G11G19G 6
  20966648.7114  -15608092.94747 -12162104.50163
  24197301.7734    3473085.38345   5414146.92461
  21797542.6024    4149970.41346   3233741.04962
  22152265.2814  -11788935.16546  -9065858.39061
 91  3 29 23 52 15.0000000  0  4G 2G11G19G 6
  20964595.016   -15618886.724 7 -12170515.21123
  24205069.961     3513908.028 5   5445956.70721
  21801926.0084    4173008.01646   3251692.38962
  22146123.055   -11821210.028 6  -9091007.55721
 91  3 29 23 52 30.0000000  0  4G 2G11G19G 6
  20962551.234   -15629626.438 8 -12178883.79423
  24212854.625     3554812.969 5   5477830.61421
  21806320.609     4196109.681 6   3269693.64222
  22139983.336   -11853477.196 6  -9116150.72621
 91  3 29 23 52 45.0000000  0  4G 2G11G19G 6
  20960518.469   -15640311.281 8 -12187209.62023
  24220654.086     3595800.503 5   5509768.85221
  21810731.1804    4219276.31446   3287745.52462
  22133844.758   -11885735.685 6  -9141287.13321
 91  3 29 23 53  0.0000000  0  4G 2G11G19G 6
  20958495.945   -15650939.961 7 -12195491.68423
  24228469.5784    3636871.94545   5541772.49761
  21815151.5554    4242509.49746   3305849.26762
  22127708.227   -11917983.814 6  -9166415.46421
 91  3 29 23 53 15.0000000  0  4G 2G11G19G 6
  20956483.453   -15661512.370 7 -12203729.90223
  24236301.438     3678027.130 5   5573841.38521
  21819586.3204    4265809.45446   3324005.04162
  22121573.742   -11950221.324 6  -9191535.52721
 91  3 29 23 53 30.0000000  0  4G 2G11G19G 6
  20954482.539   -15672028.614 7 -12211924.35323
  24244149.4304    3719265.54145   5605975.11961
  21824034.8524    4289175.88646   3342212.60862
  22115440.945   -11982448.132 6  -9216647.24521
 91  3 29 23 53 45.0000000  0  4G 2G11G19G 6
  20952492.6334  -15682485.23147 -12220072.34063
  24252012.5634    3760590.31945   5638176.15161
  21828492.3524    4312612.32046   3360474.72762
  22109310.695   -12014660.682 6  -9241747.85521
 91  3 29 23 54  0.0000000  0  4G 2G11G19G 6
  20950513.438   -15692887.423 7 -12228177.91923
  24259893.156     3801996.094 6   5670440.31721
  21832966.5084    4336113.82346   3378787.54862
  22103180.828   -12046863.935 6  -9266841.22321
 91  3 29 23 54 15.0000000  0  4G 2G11G19G 6
  20948544.523   -15703231.942 7 -12236238.55723
  24267787.688     3843485.702 6   5702769.79521
  21837448.7974    4359683.70646   3397153.64862
  22097056.063   -12079054.320 6  -9291924.56321
 91  3 29 23 54 30.0000000  0  4G 2G11G19G 6
  20946588.1804  -15713514.73947 -12244251.09863
  24275699.508     3885062.889 6   5735167.51621
  21841945.422     4383326.130 6   3415576.27922
  22090934.289   -12111227.557 6  -9316994.54121
 91  3 29 23 54 45.0000000  0  4G 2G11G19G 6
  20944639.3674  -15723751.08748 -12252227.44863
  24283625.688     3926712.343 6   5767621.55921
  21846458.3834    4407026.08746   3434043.73462
  22084812.797   -12143398.606 6  -9342062.80921
 91  3 29 23 55  0.0000000  0  4G 2G11G19G 6
  20942702.391   -15733933.102 7 -12260161.46123
  24291565.820     3968441.548 6   5800137.74021
  21850983.2894    4430791.33446   3452562.07062
  22078692.008   -12175559.539 6  -9367123.19621
 91  3 29 23 55 15.0000000  0  4G 2G11G19G 6
  20940774.570   -15744062.660 7 -12268054.59923
  24299522.188     4010248.393 6   5832714.43021
  21855515.4454    4454620.38846   3471130.12962
  22072573.570   -12207711.849 6  -9392176.86521
 91  3 29 23 55 30.0000000  0  4G 2G11G19G 6
  20938857.1564  -15754139.23547 -12275906.44663
  24307491.5474    4052132.92646   5865351.67261
  21860060.2424    4478513.49846   3489748.10662
  22066458.250   -12239855.013 6  -9417223.40521
 91  3 29 23 55 45.0000000  0  4G 2G11G19G 6
  20936950.102   -15764162.075 7 -12283716.42623
  24315477.6414    4094095.69346   5898049.84961
  21864621.7034    4502471.66246   3508416.76962
  22060341.414   -12271987.879 6  -9442261.93121
 91  3 29 23 56  0.0000000  0  4G 2G11G19G 6
  20935053.742   -15774130.522 7 -12291484.02123
  24323478.5234    4136137.08745   5930809.28861
  21869191.258     4526495.590 6   3527136.66922
  22054229.219   -12304109.644 6  -9467291.79621
 91  3 29 23 56 15.0000000  0  4G 2G11G19G 6
  20933166.555   -15784043.370 8 -12299208.29523
  24331493.742     4178258.023 5   5963630.71521
  21873777.1564    4550586.53146   3545908.79262
  22048119.625   -12336218.844 6  -9492311.87821
 91  3 29 23 56 30.0000000  0  4G 2G11G19G 6
  20931291.3054  -15793901.35848 -12306889.81363
  24339522.7424    4220457.58045   5996513.39361
  21878375.0004    4574744.09046   3564732.82862
  22042010.469   -12368315.802 6  -9517322.41821
 91  3 29 23 56 45.0000000  0  4G 2G11G19G 6
  20929425.211   -15803700.643 7 -12314525.59523
  24347568.1094    4262739.18345   6029460.04261
  21882984.1804    4598972.05746   3583611.72962
  22035907.438   -12400396.589 6  -9542320.35821
 91  3 29 23 57  0.0000000  0  4G 2G11G19G 6
  20927570.7664  -15813446.51748 -12322119.75663
  24355630.953     4305097.417 5   6062466.34721
  21887606.2274    4623265.44946   3602541.60662
  22029803.375   -12432466.222 6  -9567309.60321
 91  3 29 23 57 15.0000000  0  4G 2G11G19G 6
  20925727.523   -15823136.405 8 -12329670.29023
  24363704.9614    4347534.55745   6095534.16461
  21892242.8284    4647626.78346   3621524.42662
  22023704.344   -12464521.893 6  -9592287.97421
 91  3 29 23 57 30.0000000  0  4G 2G11G19G 6
  20923893.688   -15832772.221 7 -12337178.69523
  24371796.789     4390048.336 5   6128661.70721
  21896892.0004    4672054.22946   3640558.76162
  22017605.984   -12496565.286 6  -9617256.77821
 91  3 29 23 57 45.0000000  0  4G 2G11G19G 6
  20922070.742   -15842350.331 7 -12344642.13423
  24379902.2114    4432642.05845   6161851.52361
  21901554.0704    4696551.44346   3659647.46862
  22011511.9304  -12528592.62046  -9642213.06961
 91  3 29 23 58  0.0000000  0  4G 2G11G19G 6
  20920258.391   -15851875.531 7 -12352064.34523
  24388020.891     4475310.855 5   6195099.85921
  21906226.8754    4721113.81946   3678786.95062
  22005419.961   -12560608.327 6  -9667160.29521
 91  3 29 23 58 15.0000000  0  4G 2G11G19G 6
  20918456.156   -15861345.855 7 -12359443.79323
  24396156.0234    4518056.38345   6228407.97461
  21910914.3674    4745743.47946   3697978.86462
  21999328.477   -12592610.230 6  -9692096.76921
 91  3 29 23 58 30.0000000  0  4G 2G11G19G 6
  20916664.188   -15870761.549 8 -12366780.66923
  24404304.1024    4560877.99145   6261775.37661
  21915613.3834    4770440.09846   3717222.93962
  21993242.273   -12624598.387 6  -9717022.53321
 91  3 29 23 58 45.0000000  0  4G 2G11G19G 6
  20914883.3524  -15880120.44247 -12374073.28863
  24412467.781     4603777.576 5   6295203.55521
  21920326.5314    4795206.02746   3736521.02862
  21987157.891   -12656570.467 6  -9741935.77121
 91  3 29 23 59  0.0000000  0  4G 2G11G19G 6
  20913113.289   -15889424.092 7 -12381322.85923
  24420645.4774    4646753.20645   6328690.97461
  21925052.7194    4820039.52146   3755871.76562
  21981075.633   -12688527.779 6  -9766837.50021
 91  3 29 23 59 15.0000000  0  4G 2G11G19G 6
  20911352.7734  -15898674.44047 -12388530.89863
  24428836.031     4689802.778 5   6362236.02121
  21929791.969     4844939.005 6   3775273.93622
  21974998.3134  -12720471.92446  -9791728.97661
 91  3 29 23 59 30.0000000  0  4G 2G11G19G 6
  20909603.133   -15907871.249 8 -12395697.21723
  24437043.9774    4732926.42045   6395838.76661
  21934542.0864    4869904.99446   3794727.92662
  21968921.8134  -12752402.31246  -9816609.73161
 91  3 29 23 59 45.0000000  0  4G 2G11G19G 6
  20907862.719   -15917016.245 7 -12402823.16223
  24445263.5394    4776121.85745   6429497.47461
  21939304.8444    4894935.64546   3814232.29562
  21962847.6564  -12784320.67246  -9841481.11761
 91  3 30  0  0  0.0000000  0  4G 2G11G19G 6
  20906132.313   -15926112.078 8 -12409910.79823
  24453496.227     4819386.282 5   6463209.92521
  21944078.1024    4920028.63246   3833785.23062
  21956774.9534  -12816229.21146  -9866344.84961
 91  3 30  0  0 15.0000000  0  4G 2G11G19G 6
  20904411.5634  -15935152.56848 -12416955.30763
  24461743.9844    4862725.64245   6496980.75061
  21948865.0704    4945190.20946   3853391.60562
  21950706.2974  -12848121.50246  -9891195.91661
 91  3 30  0  0 30.0000000  0  4G 2G11G19G 6
  20902701.3524  -15944136.58547 -12423955.81263
  24470004.695     4906140.716 5   6530810.60021
  21953669.9844    4970421.32846   3873052.19162
  21944640.1094  -12879996.31046  -9916033.36061
 91  3 30  0  0 45.0000000  0  3G 2G19G 6
  20901002.570   -15953061.775 7 -12430910.48223
  21958482.633     4995724.490 6   3892768.91422
  21938578.7584  -12911850.99846  -9940855.13061
 91  3 30  0  1  0.0000000  0  3G 2G19G 6
  20899314.328   -15961936.664 7 -12437825.95723
  21963311.4774    5021091.49946   3912535.38462
  21932519.2664  -12943693.79046  -9965667.63361
 91  3 30  0  1 15.0000000  0  3G 2G19G 6
  20897636.078   -15970754.305 7 -12444696.81923
  21968150.0784    5046529.35846   3932357.06262
  21926463.7344  -12975517.46446  -9990465.23861
 91  3 30  0  1 30.0000000  0  3G 2G19G 6
  20895967.695   -15979518.772 7 -12451526.25023
  21973004.6724    5072033.88646   3952230.68262
  21920410.2664  -13007325.98646 -10015251.03561
 91  3 30  0  1 45.0000000  0  3G 2G19G 6
  20894310.844   -15988227.401 7 -12458312.17123
  21977870.2424    5097607.67046   3972158.26762
  21914360.5944  -13039116.48246 -10040022.78561
 91  3 30  0  2  0.0000000  0  3G 2G19G 6
  20892663.805   -15996881.168 7 -12465055.33923
  21982751.2664    5123249.95546   3992139.23562
  21908314.8984  -13070889.58346 -10064780.98461
 91  3 30  0  2 15.0000000  0  3G 2G19G 6
  20891027.273   -16005481.866 7 -12471757.16223
  21987641.7974    5148959.07746   4012172.28162
  21902270.8134  -13102646.89346 -10089526.87861
 91  3 30  0  2 30.0000000  0  3G 2G19G 6
  20889402.023   -16014022.140 7 -12478411.89523
  21992550.0784    5174742.64546   4032263.33262
  21896232.5784  -13134380.65646 -10114254.42561
 91  3 30  0  2 45.0000000  0  4G15G 2G19G 6
  24196527.6334     -29440.43645
  20887787.039   -16022511.043 7 -12485026.60223
  21997466.211     5200591.505 6   4052405.25622
  21890197.1024  -13166099.81847 -10138970.58961
 91  3 30  0  3  0.0000000  0  4G15G 2G19G 6
  24190939.9614     -58809.77345        -0.45871
  20886181.656   -16030946.295 7 -12491599.50023
  22002400.242     5226508.157 6   4072600.00122
  21884164.570   -13197801.645 7 -10163673.25921
 91  3 30  0  3 15.0000000  0  4G15G 2G19G 6
  24185364.3364     -88111.18945    -22832.62561
  20884586.094   -16039331.289 7 -12498133.23623
  22007342.4144    5252489.38846   4092845.07562
  21878133.9304  -13229489.32147 -10188364.89361
 91  3 30  0  3 30.0000000  0  4G15G 2G19G 6
  24179800.3134    -117337.99845    -45606.67561
  20883001.328   -16047659.571 7 -12504622.78323
  22012304.8754    5278541.41646   4113145.31862
  21872108.4614  -13261156.35947 -10213040.44761
 91  3 30  0  3 45.0000000  0  4G15G 2G19G 6
  24174253.1414    -146495.94345    -68327.03361
  20881426.211   -16055937.518 7 -12511073.11123
  22017268.867     5304658.014 6   4133495.87022
  21866084.2664  -13292808.72847 -10237704.56761
 91  3 30  0  4  0.0000000  0  4G15G 2G19G 6
  24168717.0474    -175582.30245    -90991.60961
  20879860.602   -16064162.831 8 -12517482.42123
  22022257.203     5330841.729 6   4153898.71322
  21860064.5314  -13324443.79547 -10262355.20961
 91  3 30  0  4 15.0000000  0  4G15G 2G19G 6
  24163196.0554    -204595.02545   -113598.79361
  20878305.695   -16072333.649 7 -12523849.27023
  22027248.719     5357094.393 6   4174355.28322
  21854048.7424  -13356059.63947 -10286990.87261
 91  3 30  0  4 30.0000000  0  4G15G 2G19G 6
  24157693.000     -233529.950 5   -136145.38421
  20876762.234   -16080446.316 7 -12530170.80723
  22032261.102     5383419.765 6   4194868.51022
  21848036.445   -13387652.361 7 -10311608.51621
 91  3 30  0  4 45.0000000  0  4G15G 2G19G 6
  24152199.742     -262392.315 5   -158635.43721
  20875228.188   -16088506.739 7 -12536451.63423
  22037280.766     5409812.089 6   4215433.91322
  21842027.5784  -13419227.57647 -10336212.51962
 91  3 30  0  5  0.0000000  0  4G15G 2G19G 6
  24146719.9774    -291182.94645   -181069.60161
  20873704.203   -16096515.916 7 -12542692.53223
  22042316.273     5436270.194 6   4236050.57622
  21836023.3914  -13450786.04447 -10360803.47461
 91  3 30  0  5 15.0000000  0  4G15G 2G19G 6
  24141253.422     -319901.078 5   -203447.24821
  20872189.789   -16104473.718 7 -12548893.39623
  22047362.609     5462794.553 6   4256718.85722
  21830020.0944  -13482327.34547 -10385381.05461
 91  3 30  0  5 30.0000000  0  4G15G 2G19G 6
  24135804.086     -348548.463 5   -225769.78221
  20870684.945   -16112382.304 7 -12555055.90923
  22052423.3444    5489382.97246   4277437.05262
  21824020.7734  -13513853.34047 -10409946.70261
 91  3 30  0  5 45.0000000  0  4G15G 2G19G 6
  24130364.883     -377123.151 5   -248035.66421
  20869189.305   -16120240.197 7 -12561178.92823
  22057494.938     5516037.024 6   4298206.38522
  21818025.5084  -13545362.22447 -10434499.01662
 91  3 30  0  6  0.0000000  0  4G15G 2G19G 6
  24124943.383     -405623.332 5   -270243.49921
  20867704.234   -16128046.200 7 -12567261.50823
  22062584.938     5542758.272 6   4319028.08622
  21812032.5474  -13576852.38247 -10459036.73862
 91  3 30  0  6 15.0000000  0  4G15G 2G19G 6
  24119534.352     -434044.453 5   -292389.71921
  20866229.281   -16135795.756 7 -12573300.10723
  22067678.031     5569551.150 6   4339905.60622
  21806044.6414  -13608319.30747 -10483556.36162
 91  3 30  0  6 30.0000000  0  4G15G 2G19G 6
  24114141.4774    -462389.03645   -314476.31861
  20864764.641   -16143491.901 7 -12579297.08523
  22072794.602     5596412.601 6   4360836.55822
  21800059.9694  -13639765.79247 -10508060.05562
 91  3 30  0  6 45.0000000  0  4G15G 2G19G 6
  24108761.4694    -490659.23545   -336504.93261
  20863309.813   -16151137.117 7 -12585254.37823
  22077913.484     5623340.263 6   4381819.10122
  21794079.8674  -13671193.97047 -10532549.48562
 91  3 30  0  7  0.0000000  0  4G15G 2G19G 6
  24103393.3134    -518851.09545   -358472.48461
  20861865.273   -16158728.167 7 -12591169.46523
  22083052.438     5650337.347 6   4402855.74022
  21788103.5474  -13702600.34147 -10557021.92162
 91  3 30  0  7 15.0000000  0  4G15G 2G19G 6
  24098044.906     -546966.421 5   -380380.41221
  20860431.367   -16166267.374 7 -12597044.15423
  22088200.047     5677401.623 6   4423944.73522
  21782130.4614  -13733986.97347 -10581478.98362
 91  3 30  0  7 30.0000000  0  4G15G 2G19G 6
  24092709.3524    -575001.71745   -402225.98661
  20859005.891   -16173751.289 7 -12602875.76323
  22093370.172     5704536.819 6   4445088.99922
  21776162.047   -13765350.102 7 -10605917.72822
 91  3 30  0  7 45.0000000  0  4G15G 2G19G 6
  24087389.7734    -602958.41345   -424010.35161
  20857592.727   -16181181.773 7 -12608665.73723
  22098541.078     5731740.923 6   4466286.95122
  21770198.1484  -13796691.56947 -10630339.59762
 91  3 30  0  8  0.0000000  0  4G15G 2G19G 6
  24082085.5784    -630840.97545   -445736.93561
  20856187.625   -16188563.956 7 -12614418.07223
  22103731.695     5759008.837 6   4487534.63122
  21764237.688   -13828016.038 7 -10654748.21922
 91  3 30  0  8 15.0000000  0  4G15G 2G19G 6
  24076792.484     -658645.689 5   -467402.86121
  20854793.453   -16195894.690 7 -12620130.31723
  22108930.945     5786343.995 6   4508834.70921
  21758279.8674  -13859320.17047 -10679140.98862
 91  3 30  0  8 30.0000000  0  4G15G 2G19G 6
  24071515.5634    -686369.44145   -489005.65461
  20853407.961   -16203171.185 7 -12625800.29823
  22114149.3444    5813749.47346   4530189.59362
  21752327.0164  -13890600.81447 -10703515.45662
 91  3 30  0  8 45.0000000  0  4G15G 2G19G 6
  24066257.2344    -714015.53344   -510547.93461
  20852033.625   -16210396.987 7 -12631430.77923
  22119373.8674    5841221.30646   4551596.17662
  21746378.820   -13921861.279 7 -10727874.20622
 91  3 30  0  9  0.0000000  0  4G15G 2G19G 6
  24061009.672     -741586.252 5   -532031.49221
  20850667.328   -16217574.746 8 -12637023.82523
  22124618.719     5868757.060 6   4573052.56422
  21740433.3134  -13953103.95847 -10752219.09162
 91  3 30  0  9 15.0000000  0  4G15G 2G19G 6
  24055778.5084    -769077.19245   -553452.90761
  20849311.328   -16224700.561 8 -12642576.39523
  22129867.039     5896360.646 6   4594561.80122
  21734492.5234  -13984324.75247 -10776546.92762
 91  3 30  0  9 30.0000000  0  4G15G 2G19G 6
  24050562.8594    -796488.59145   -574812.38261
  20847965.570   -16231775.067 7 -12648088.98323
  22135136.609     5924031.610 6   4616123.55021
  21728555.8204  -14015523.85047 -10800857.85462
 91  3 30  0  9 44.9990000  0  4G15G 2G19G 6
  24045360.6984    -823817.80345   -596107.77461
  20846629.253   -16238797.734 7 -12653561.17323
  22140411.026     5951768.375 6   4637736.56521
  21722622.550   -14046698.797 7 -10825149.96822
 91  3 30  0  9 59.9990000  0  4G15G 2G19G 6
  24040175.058     -851068.465 5   -617341.96421
  20845302.5264  -16245769.90947 -12658994.02863
  22145705.7614    5979574.15246   4659403.36861
  21716694.808   -14077854.004 7 -10849426.69622
 91  3 30  0 10 14.9990000  0  4G15G 2G19G 6
  24035005.7924    -878237.95744   -638512.87661
  20843985.019   -16252690.446 7 -12664386.64123
  22151006.5734    6007447.95246   4681123.17161
  21710769.589   -14108986.483 7 -10873685.71122
 91  3 30  0 10 29.9990000  0  4G15G 2G19G 6
  24029850.011     -905326.631 5   -659620.81521
  20842677.956   -16259560.145 7 -12669739.64123
  22156325.0654    6035388.91146   4702895.30462
  21704849.862   -14140096.915 7 -10897927.55522
 91  3 30  0 10 44.9990000  0  4G15G 2G19G 6
  24024711.2924    -932335.72245   -680666.77961
  20841380.026   -16266380.531 7 -12675054.21323
  22161654.722     6063395.555 6   4724718.61922
  21698934.1674  -14171186.47647 -10922153.12862
 91  3 30  0 10 59.9990000  0  4G15G 2G19G 6
  24019589.065     -959264.002 5   -701649.77421
  20840092.300   -16273151.200 7 -12680330.04623
  22166998.276     6091468.538 6   4746593.62721
  21693020.9724  -14202254.28647 -10946361.75262
 91  3 30  0 11 14.9990000  0  5G15G 2G13G19G 6
  24014477.1054    -986106.66045   -722566.06161
  20838813.519   -16279867.370 7 -12685563.41023
  23980709.9094         -0.66454
  22172352.612     6119612.637 6   4768524.04922
  21687114.5584  -14233295.40447 -10970549.58262
 91  3 30  0 11 29.9990000  0  5G15G 2G13G19G 6
  24009387.3554   -1012861.97044   -743414.27461
  20837546.081   -16286527.872 7 -12690753.39623
  23968952.4484     -61812.06844
  22177724.3234    6147829.29846   4790511.02061
  21681213.1444  -14264308.32847 -10994715.44062
 91  3 30  0 11 44.9990000  0  5G15G 2G13G19G 6
  24004309.464    -1039536.426 4   -764199.46121
  20836288.105   -16293139.513 7 -12695905.30823
  23957191.4484    -123599.98244
  22183102.823     6176111.401 6   4812548.98421
  21675315.5504  -14295299.78847 -11018864.56962
 91  3 30  0 11 59.9990000  0  5G15G 2G13G19G 6
  23999249.2614   -1066132.86545   -784923.86861
  20835038.370   -16299705.611 7 -12701021.73423
  23945437.9954    -185367.14544
  22188499.3084    6204455.80646   4834635.49662
  21669421.4174  -14326272.72747 -11042999.26662
 91  3 30  0 12 14.9990000  0  5G15G 2G13G19G 6
  23994205.0814   -1092643.17745   -805581.17561
  20833799.339   -16306218.659 7 -12706096.82023
  23933687.9724    -247105.60044
  22193904.222     6232870.108 6   4856776.46822
  21663532.4804  -14357219.32047 -11067113.43562
 91  3 30  0 12 29.9990000  0  5G15G 2G13G19G 6
  23989176.550    -1119069.604 5   -826173.10221
  20832569.4334  -16312680.97847 -12711132.38263
  23921943.7694    -308817.42444        -0.21071
  22199325.550     6261351.901 6   4878970.02722
  21657648.6204  -14388141.74247 -11091208.77062
 91  3 30  0 12 44.9990000  0  5G15G 2G13G19G 6
  23984161.855    -1145412.717 5   -846700.11521
  20831349.089   -16319093.813 7 -12716129.37823
  23910207.120     -370503.295 4    -48066.86621
  22204756.097     6289900.058 6   4901215.30122
  21651768.4484  -14419040.95547 -11115286.01262
 91  3 30  0 12 59.9990000  0  5G15G 2G13G19G 6
  23979165.815    -1171671.767 5   -867161.63421
  20830138.0194  -16325456.65847 -12721087.42863
  23898472.815     -432161.905 4    -96112.27521
  22210204.558     6318515.165 6   4923512.74021
  21645893.1594  -14449916.02147 -11139344.43862
 91  3 30  0 13 14.9990000  0  5G15G 2G13G19G 6
  23974184.050    -1197842.183 5   -887554.09421
  20828937.909   -16331765.106 7 -12726003.08423
  23886747.0424    -493788.93644   -144133.02961
  22215659.995     6347201.534 6   4945865.70721
  21640023.5654  -14480762.60347 -11163380.67462
 91  3 30  0 13 29.9990000  0  5G15G 2G13G19G 6
  23969222.339    -1223928.662 5   -907881.13721
  20827746.362   -16338024.418 7 -12730880.45723
  23875023.698     -555389.088 4   -192132.88621
  22221133.448     6375954.173 6   4968270.31021
  21634157.5504  -14511585.52247 -11187398.47262
 91  3 30  0 13 44.9990000  0  5G15G 2G13G19G 6
  23964274.730    -1249931.703 5   -928143.18321
  20826564.526   -16344235.589 7 -12735720.31523
  23863303.409     -616962.890 4   -240112.19921
  22226616.933     6404772.158 6   4990725.83921
  21628296.4564  -14542385.45347 -11211398.35762
 91  3 30  0 13 59.9990000  0  5G15G 2G13G19G 6
  23959340.3864   -1275849.07845   -948338.44561
  20825391.925   -16350396.946 7 -12740521.35823
  23851596.6054    -678508.08444   -288069.19861
  22232115.167     6433657.159 6   5013233.59121
  21622439.6514  -14573160.37347 -11235378.75362
 91  3 30  0 14 14.9990000  0  5G15G 2G13G19G 6
  23954424.6984   -1301675.71845   -968462.98561
  20824229.730   -16356504.035 7 -12745280.11423
  23839891.495     -740019.729 4   -336000.07421
  22237624.401     6462613.791 6   5035797.15421
  21616589.0734  -14603905.46547 -11259335.90662
 91  3 30  0 14 29.9990000  0  5G15G 2G13G19G 6
  23949526.4014   -1327420.86345   -988524.04161
  20823076.480   -16362566.351 7 -12750003.98523
  23828186.605     -801506.794 4   -383911.75721
  22243146.714     6491632.616 6   5058409.17721
  21610742.4724  -14634629.98647 -11283277.02962
 91  3 30  0 14 44.9990000  0  5G15G 2G13G19G 6
  23944645.644    -1353078.620 5  -1008517.02921
  20821931.573   -16368578.310 7 -12754688.61423
  23816490.581     -862963.413 4   -431799.80421
  22248681.4254    6520719.27446   5081074.04661
  21604900.6834  -14665328.12247 -11307197.59262
 91  3 30  0 14 59.9990000  0  5G15G 2G13G19G 6
  23939778.1284   -1378652.44045  -1028444.62061
  20820796.440   -16374543.602 7 -12759336.88023
  23804801.6904    -924392.78645   -479666.57361
  22254229.8154    6549869.95146   5103788.80461
  21599063.4484  -14696003.22247 -11331100.20462
 91  3 30  0 15 14.9990000  0  5G15G 2G13G19G 6
  23934926.2064   -1404139.01845  -1048304.23361
  20819671.886   -16380459.425 7 -12763946.59923
  23793119.6124    -985791.63245   -527509.59061
  22259787.526     6579087.695 6   5126555.82521
  21593231.0264  -14726652.28647 -11354982.52462
 91  3 30  0 15 29.9990000  0  5G15G 2G13G19G 6
  23930096.8624   -1429536.69345  -1068094.53261
  20818555.300   -16386324.260 7 -12768516.58423
  23781441.6124   -1047158.30145   -575327.45361
  22265362.612     6608373.888 6   5149376.19221
  21587404.6594  -14757273.66747 -11378843.28462
 91  3 30  0 15 44.9990000  0  5G15G 2G13G19G 6
  23925278.8784   -1454844.88245  -1087815.07961
  20817449.448   -16392138.306 7 -12773046.99723
  23769769.7454   -1108492.12945   -623119.79061
  22270946.800     6637728.616 6   5172249.95821
  21581582.4484  -14787867.16347 -11402682.30662
 91  3 30  0 15 59.9990000  0  5G15G 2G13G19G 6
  23920480.386    -1480061.804 5  -1107464.56121
  20816352.862   -16397900.196 8 -12777536.76723
  23758104.909    -1169791.172 5   -670884.99021
  22276550.9724    6667153.22446   5195178.16561
  21575765.8234  -14818431.10247 -11426498.30162
 91  3 30  0 16 14.9990000  0  5G15G 2G13G19G 6
  23915699.6904   -1505187.82745  -1127043.20761
  20815266.144   -16403610.655 8 -12781986.46023
  23746446.620    -1231056.004 5   -718623.54921
  22282159.7144    6696646.93146   5218160.21461
  21569955.4724  -14848966.13647 -11450291.77462
 91  3 30  0 16 29.9990000  0  5G15G 2G13G19G 6
  23910936.128    -1530223.817 5  -1146551.71421
  20814189.136   -16409271.057 8 -12786397.15023
  23734793.6984   -1292287.60245   -766336.20661
  22287789.6054    6726208.52046   5241195.15261
  21564149.3474  -14879473.00447 -11474063.29862
 91  3 30  0 16 44.9990000  0  5G15G 2G13G19G 6
  23906186.3784   -1555170.39745  -1165990.53761
  20813120.683   -16414882.216 7 -12790769.46923
  23723147.5034   -1353486.12645   -814023.11261
  22293421.6984    6755837.04146   5264282.25461
  21558350.2144  -14909952.40947 -11497813.42662
 91  3 30  0 16 59.9990000  0  5G15G 2G13G19G 6
  23901458.4874   -1580025.42745  -1185358.01061
  20812062.659   -16420442.697 7 -12795102.29323
  23711508.7304   -1414649.55345   -861682.65361
  22299076.667     6785534.316 6   5287422.93721
  21552554.9094  -14940402.43747 -11521540.65862
 91  3 30  0 17 14.9990000  0  5G15G 2G13G19G 6
  23896746.9094   -1604785.55445  -1204651.54361
  20811014.378   -16425949.316 7 -12799393.15223
  23699877.0654   -1475774.31445   -909312.07161
  22304739.050     6815303.500 6   5310619.65221
  21546767.1594  -14970819.63847 -11545242.31862
 91  3 30  0 17 29.9990000  0  5G15G 2G13G19G 6
  23892050.558    -1629460.309 5  -1223878.54121
  20809975.433   -16431411.947 7 -12803649.73023
  23688251.3154   -1536869.84245   -956918.74161
  22310415.292     6845134.656 6   5333864.65521
  21540982.565   -15001213.623 7 -11568925.88422
 91  3 30  0 17 44.9990000  0  5G15G 2G13G19G 6
  23887372.9334   -1654048.43345  -1243038.03461
  20808944.503   -16436829.682 7 -12807871.32823
  23676631.3864   -1597935.08945  -1004501.79061
  22316103.5264    6875028.60446   5357158.57861
  21535203.5504  -15031583.50947 -11592590.67262
 91  3 30  0 17 59.9990000  0  5G15G 2G13G19G 6
  23882711.3154   -1678543.65545  -1262125.14061
  20807923.050   -16442196.579 7 -12812053.31023
  23665015.925    -1658963.597 5  -1052056.21221
  22321807.2374    6904991.49146   5380506.22561
  21529430.956   -15061922.825 7 -11616231.64322
 91  3 30  0 18 14.9990000  0  5G15G 2G13G19G 6
  23878067.589    -1702942.681 5  -1281137.28521
  20806911.964   -16447509.756 7 -12816193.43023
  23653411.628    -1719952.144 5  -1099579.48021
  22327519.9254    6935026.27946   5403909.90061
  21523663.4564  -15092228.50447 -11639846.40162
 91  3 30  0 18 29.9990000  0  5G15G 2G13G19G 6
  23873441.0584   -1727248.56045  -1300076.84661
  20805910.784   -16452772.616 7 -12820294.34323
  23641813.0194   -1780903.51645  -1147073.79761
  22333253.769     6965129.483 6   5427366.88521
  21517902.8704  -15122503.75447 -11663437.44762
 91  3 30  0 18 44.9990000  0  5G15G 2G13G19G 6
  23868833.870    -1751457.540 5  -1318940.91721
  20804919.464   -16457982.162 7 -12824353.71523
  23630219.894    -1841814.187 5  -1194536.38621
  22338992.0264    6995304.29546   5450879.67261
  21512148.159   -15152745.068 7 -11687002.04922
 91  3 30  0 18 59.9990000  0  5G15G 2G13G19G 6
  23864245.1984   -1775575.67145  -1337734.17761
  20803936.628   -16463144.492 7 -12828376.29423
  23618636.800    -1902689.952 5  -1241971.80821
  22344749.761     7025544.528 5   5474443.43121
  21506398.245   -15182958.475 7 -11710544.91622
 91  3 30  0 19 14.9990000  0  5G15G 2G13G19G 6
  23859670.6444   -1799604.91145  -1356458.16961
  20802962.769   -16468262.072 7 -12832364.00323
  23607055.6444   -1963532.71645  -1289381.45161
  22350511.6364    7055847.72746   5498056.25961
  21500654.386   -15213146.047 7 -11734067.64522
 91  3 30  0 19 29.9990000  0  5G15G 2G13G19G 6
  23855116.565    -1823537.685 5  -1375106.98121
  20801998.675   -16473327.704 7 -12836311.23423
  23595489.558    -2024334.868 5  -1336759.50021
  22356292.550     7086221.022 6   5521723.71021
  21494915.847   -15243300.312 7 -11757564.42422
 91  3 30  0 19 44.9990000  0  5G15G 2G13G19G 6
  23850581.1124   -1847375.11545  -1393681.52361
  20801044.206   -16478342.960 7 -12840219.20923
  23583923.9014   -2085097.54245  -1384106.74861
  22362085.4954    7116663.02646   5545444.69961
  21489183.573   -15273422.678 7 -11781036.34122
 91  3 30  0 19 59.9990000  0  5G15G 2G13G19G 6
  23846065.7614   -1871117.74145  -1412182.19761
  20800099.464   -16483308.791 7 -12844088.67623
  23572372.0974   -2145820.94745  -1431423.41661
  22367895.261     7147173.034 6   5569218.68321
  21483457.581   -15303513.609 7 -11804483.77222
 91  3 30  0 20 14.9990000  0  5G15G 2G13G19G 6
  23841567.480    -1894759.708 5  -1430604.45121
  20799165.300   -16488219.614 7 -12847915.27523
  23560822.5424   -2206498.96945  -1478704.71961
  22373710.6674    7177756.65946   5593050.01661
  21477737.987   -15333567.176 7 -11827902.08122
 91  3 30  0 20 29.9990000  0  5G15G 2G13G19G 6
  23837083.948    -1918310.637 5  -1448955.74821
  20798239.128   -16493085.242 7 -12851706.66123
  23549281.308    -2267141.562 5  -1525958.44321
  22379544.1834    7208403.80546   5616930.85761
  21472024.589   -15363593.189 7 -11851298.92322
 91  3 30  0 20 44.9990000  0  5G15G 2G13G19G 6
  23832619.167    -1941764.807 5  -1467231.60621
  20797322.190   -16497900.823 7 -12855459.04723
  23537749.737    -2327743.024 5  -1573180.08321
  22385388.4334    7239119.63646   5640865.21161
  21466317.417   -15393586.157 7 -11874670.01722
 91  3 30  0 20 59.9990000  0  5G15G 2G13G19G 6
  23828174.519    -1965125.601 5  -1485434.72321
  20796415.800   -16502669.930 7 -12859175.22223
  23526226.386    -2388306.518 5  -1620372.11521
  22391246.7144    7269900.52746   5664850.26261
  21460616.065   -15423549.445 7 -11898017.98522
 91  3 30  0 21 14.9990000  0  5G15G 2G13G19G 6
  23823748.355    -1988390.978 5  -1503563.49521
  20795516.6594  -16507390.78547 -12862853.79963
  23514708.401    -2448830.030 5  -1667533.07821
  22397116.394     7300748.267 6   5688887.41121
  21454918.901   -15453481.085 7 -11921341.29322
 91  3 30  0 21 29.9990000  0  5G15G 2G13G19G 6
  23819337.7374   -2011560.86745  -1521617.89961
  20794627.862   -16512064.072 7 -12866495.30623
  23503199.214    -2509313.549 5  -1714662.81621
  22403002.276     7331662.352 5   5712976.26221
  21449230.214   -15483381.477 7 -11944640.25722
 91  3 30  0 21 44.9990000  0  5G15G 2G13G19G 6
  23814947.948    -2034632.300 5  -1539595.56621
  20793747.675   -16516686.901 7 -12870097.50123
  23491695.261    -2569754.000 5  -1761759.00221
  22408895.2694    7362645.70546   5737119.08261
  21443545.964   -15513247.466 7 -11967912.41022
 91  3 30  0 21 59.9990000  0  5G15G 2G13G19G 6
  23810575.019    -2057611.088 5  -1557501.02321
  20792876.7144  -16521265.41447 -12873665.16163
  23480201.245    -2630156.930 5  -1808825.96621
  22414803.5974    7393692.02245   5761310.96161
  21437868.995   -15543084.852 7 -11991162.27622
 91  3 30  0 22 14.9990000  0  5G15G 2G13G19G 6
  23806220.714    -2080496.454 5  -1575333.66321
  20792013.3084  -16525798.99947 -12877197.81263
  23468713.519    -2690521.430 5  -1855863.00421
  22420722.8554    7424801.97546   5785552.41561
  21432195.980   -15572892.818 7 -12014389.21722
 91  3 30  0 22 29.9990000  0  5G15G 2G13G19G 6
  23801884.917    -2103281.385 5  -1593088.08121
  20791160.753   -16530281.252 7 -12880690.46423
  23457234.5194   -2750840.54545  -1902864.63961
  22426658.9804    7455982.15346   5809848.59661
  21426530.886   -15602664.563 7 -12037587.92922
 91  3 30  0 22 44.9990000  0  5G15G 2G13G19G 6
  23797568.909    -2125967.240 5  -1610765.29421
  20790317.1364  -16534713.89847 -12884144.46364
  23445765.464    -2811115.488 5  -1949831.88821
  22432603.308     7487230.882 6   5834198.20021
  21420872.206   -15632401.489 7 -12060759.51622
 91  3 30  0 22 59.9990000  0  5G15G 2G13G19G 6
  23793267.4014   -2148551.39445  -1628363.25361
  20789483.901   -16539094.824 7 -12887558.15923
  23434305.8084   -2871343.46445  -1996762.51261
  22438564.831     7518550.124 6   5858602.75521
  21415220.472   -15662101.209 7 -12083902.11322
 91  3 30  0 23 14.9990000  0  5G15G 2G13G19G 6
  23788989.7304   -2171037.36145  -1645884.69861
  20788658.8704  -16543427.90647 -12890934.57463
  23422849.823    -2931528.323 5  -2043659.55621
  22444534.862     7549935.970 6   5883059.20621
  21409574.878   -15691767.340 7 -12107018.53022
 91  3 30  0 23 29.9990000  0  5G15G 2G13G19G 6
  23784730.128    -2193430.952 5  -1663334.15021
  20787842.480   -16547719.197 7 -12894278.42523
  23411405.7924   -2991675.52245  -2090527.24261
  22450520.5264    7581382.65645   5907563.05161
  21403934.823   -15721405.622 7 -12130113.25422
 91  3 30  0 23 44.9990000  0  5G15G 2G13G19G 6
  23780487.214    -2215726.687 5  -1680707.36321
  20787034.3704  -16551963.48847 -12897585.65563
  23399968.675    -3051779.426 5  -2137361.23121
  22456517.003     7612895.269 6   5932118.25921
  21398300.808   -15751010.634 7 -12153182.05022
 91  3 30  0 23 59.9990000  0  5G15G 2G13G19G 6
  23776262.0194   -2237920.93845  -1698001.52161
  20786236.4954  -16556157.59147 -12900853.77563
  23388539.7144   -3111836.47645  -2184158.70861
  22462528.1444    7644476.92646   5956727.27061
  21392674.503   -15780578.943 7 -12176222.24922
 91  3 30  0 24 14.9990000  0  5G15G 2G13G19G 6
  23772058.1124   -2260017.18445  -1715219.29161
  20785447.503   -16560305.199 7 -12904085.66323
  23377118.355    -3171849.974 5  -2230922.23421
  22468549.4174    7676124.06946   5981387.32361
  21387054.597   -15810113.863 7 -12199236.42622
 91  3 30  0 24 29.9990000  0  5G15G 2G13G19G 6
  23767874.308    -2282013.135 5  -1732358.91421
  20784667.4644  -16564404.52347 -12907279.93163
  23365707.097    -3231817.564 5  -2277649.97021
  22474584.4564    7707838.52046   6006099.82561
  21381440.245   -15839613.229 7 -12222222.90122
 91  3 30  0 24 44.9990000  0  5G15G 2G13G19G 6
  23763707.5424   -2303906.05045  -1749418.25561
  20783896.7454  -16568453.52647 -12910434.98763
  23354304.6904   -3291736.68245  -2324339.96861
  22480631.6124    7739622.42246   6030866.43961
  21375833.714   -15869074.648 7 -12245179.80522
 91  3 30  0 24 59.9990000  0  5G15G 2G13G19G 6
  23759560.019    -2325702.509 5  -1766402.43521
  20783134.1284  -16572459.09447 -12913556.19863
  23342911.2614   -3351613.93045  -2370997.32761
  22486693.4094    7771468.91546   6055681.82661
  21370233.526   -15898504.745 7 -12268112.30122
 91  3 30  0 25 14.9990000  0  5G15G 2G13G19G 6
  23755429.792    -2347397.957 5  -1783307.90421
  20782381.2764  -16576416.77147 -12916640.09063
  23331523.0734   -3411444.27245  -2417618.12861
  22492764.7224    7803382.46746   6080549.45861
  21364640.214   -15927898.897 7 -12291016.79022
 91  3 30  0 25 29.9990000  0  5G15G 2G13G19G 6
  23751321.503    -2368991.867 5  -1800134.25321
  20781637.956   -16580326.309 7 -12919686.47223
  23320146.362    -3471227.172 5  -2464201.96421
  22498852.9334    7835363.02145   6105469.29861
  21359053.769   -15957256.734 7 -12313892.98322
 91  3 30  0 25 44.9990000  0  5G15G 2G13G19G 6
  23747229.792    -2390483.599 5  -1816880.96021
  20780903.300   -16584187.549 7 -12922695.22223
  23308781.3864   -3530961.88045  -2510748.27261
  22504949.5114    7867410.94346   6130441.64061
  21353473.511   -15986577.541 7 -12336740.32022
 91  3 30  0 25 59.9990000  0  5G15G 2G13G19G 6
  23743161.480    -2411872.758 5  -1833547.78221
  20780177.487   -16588000.622 7 -12925666.43123
  23297423.206    -3590648.147 5  -2557256.82021
  22511062.3004    7899526.27046   6155466.50161
  21347901.261   -16015861.104 7 -12359558.63722
 91  3 30  0 26 14.9990000  0  5G15G 2G13G19G 6
  23739108.222    -2433161.859 5  -1850136.63821
  20779460.737   -16591768.293 7 -12928602.26523
  23286073.894    -3650288.329 5  -2603729.47521
  22517184.8474    7931706.12946   6180541.64961
  21342335.355   -16045110.096 7 -12382350.01722
 91  3 30  0 26 29.9990000  0  5G15G 2G13G19G 6
  23735075.050    -2454353.027 5  -1866649.18121
  20778751.823   -16595492.892 7 -12931504.53423
  23274732.7454   -3709884.47445  -2650167.78461
  22523321.0114    7963948.11845   6205665.20861
  21336775.4334  -16074326.49747 -12405116.00262
 91  3 30  0 26 44.9990000  0  5G15G 2G13G19G 6
  23731063.761    -2475442.067 5  -1883082.11521
  20778052.151   -16599170.705 7 -12934370.35023
  23263402.6444   -3769432.20345  -2696568.40261
  22529468.0264    7996256.30145   6230840.34861
  21331222.534   -16103506.212 7 -12427853.40022
 91  3 30  0 26 59.9990000  0  5G15G 2G13G19G 6
  23727069.4254   -2496427.11345  -1899434.00561
  20777361.151   -16602800.124 7 -12937198.45524
  23252079.659    -3828929.323 5  -2742929.58121
  22535629.7924    8028632.19545   6256068.24661
  21325677.550   -16132647.236 7 -12450560.64522
 91  3 30  0 27 14.9990000  0  5G15G 2G13G19G 6
  23723094.1594   -2517313.46045  -1915708.99561
  20776678.550   -16606386.978 7 -12939993.39223
  23240763.5894   -3888381.23945  -2789255.54861
  22541801.3084    8061070.07546   6281344.45061
  21320138.308   -16161755.084 7 -12473242.04022
 91  3 30  0 27 29.9990000  0  5G15G 2G13G19G 6
  23719141.9334   -2538093.92545  -1931901.49761
  20776004.956   -16609924.260 7 -12942749.69723
  23229462.792    -3947780.737 5  -2835540.66021
  22547988.737     8093576.715 6   6306674.23121
  21314606.980   -16190822.640 7 -12495892.03622
 91  3 30  0 27 44.9990000  0  5G15G 2G13G19G 6
  23715207.8944   -2558768.46345  -1948011.49161
  20775340.972   -16613412.354 7 -12945467.67823
  23218168.159    -4007127.713 5  -2881784.86421
  22554185.870     8126151.923 6   6332057.43921
  21309083.034   -16219849.932 7 -12518510.65722
 91  3 30  0 27 59.9990000  0  5G15G 2G13G19G 6
  23711292.487    -2579338.078 5  -1964039.69521
  20774686.214   -16616852.891 7 -12948148.59823
  23206885.0584   -4066423.11945  -2927988.85661
  22560399.6514    8158794.20245   6357492.91561
  21303566.901   -16248838.104 7 -12541098.79422
 91  3 30  0 28 14.9990000  0  5G15G 2G13G19G 6
  23707399.1834   -2599803.91845  -1979987.02561
  20774040.347   -16620247.090 7 -12950793.40923
  23195610.8314   -4125668.14745  -2974153.60461
  22566621.2224    8191502.09345   6382979.51561
  21298057.784   -16277788.409 7 -12563657.42923
 91  3 30  0 28 29.9990000  0  5G15G 2G13G19G 6
  23703524.565    -2620164.183 5  -1995852.07921
  20773403.690   -16623593.418 7 -12953400.92023
  23184348.7764   -4184860.68345  -3020277.43361
  22572863.3944    8224277.09145   6408518.40761
  21292555.370   -16306698.951 7 -12586185.07323
 91  3 30  0 28 44.9990000  0  5G15G 2G13G19G 6
  23699670.003    -2640416.964 5  -2011633.39121
  20772776.112   -16626890.428 7 -12955969.99923
  23173092.612    -4243998.764 5  -3066358.85921
  22579108.8234    8257120.71946   6434110.78061
  21287062.065   -16335567.824 7 -12608680.25322
 91  3 30  0 28 59.9990000  0  5G15G 2G13G19G 6
  23695837.6124   -2660560.38845  -2027329.50561
  20772158.651   -16630136.516 7 -12958499.39823
  23161850.1834   -4303080.25745  -3112396.18961
  22585377.2144    8290034.53245   6459757.84061
  21281577.401   -16364393.153 7 -12631141.49823
 91  3 30  0 29 14.9990000  0  5G15G 2G13G19G 6
  23692022.9404   -2680598.31645  -2042943.41161
  20771550.433   -16633336.120 7 -12960992.57823
  23150617.784    -4362109.410 5  -3158392.72321
  22591647.7844    8323014.27146   6485456.27461
  21276099.089   -16393179.212 7 -12653572.14323
 91  3 30  0 29 29.9990000  0  5G15G 2G13G19G 6
  23688230.823    -2700524.410 5  -2058470.16821
  20770950.940   -16636483.297 7 -12963444.90523
  23139394.870    -4421079.772 5  -3204343.43821
  22597941.2694    8356065.77445   6511210.62361
  21270630.464   -16421919.554 7 -12675967.16522
 91  3 30  0 29 44.9990000  0  5G15G 2G13G19G 6
  23684458.761    -2720344.409 5  -2073914.24821
  20770361.636   -16639583.812 7 -12965860.87124
  23128184.2614   -4479996.70245  -3250252.51961
  22604239.519     8389183.327 5   6537016.43021
  21265168.120   -16450619.830 7 -12698330.96923
 91  3 30  0 29 59.9990000  0  5G15G 2G13G19G 6
  23680709.237    -2740056.139 5  -2089273.95621
  20769780.683   -16642635.924 7 -12968239.12223
  23116982.9404   -4538857.79445  -3296118.09161
  22610555.862     8422368.756 5   6562875.12821
  21259715.667   -16479277.854 7 -12720661.84622
 91  3 30  0 30 14.9990000  0  5G15G 2G13G19G 6
  23676977.167    -2759659.756 5  -2104549.41921
  20769208.105   -16645640.121 7 -12970580.03623
  23105792.128    -4597663.151 5  -3341940.27521
  22616883.011     8455621.623 5   6588786.37821
  21254269.737   -16507893.856 7 -12742959.98223
 91  3 30  0 30 29.9990000  0  5G15G 2G13G19G 6
  23673268.315    -2779153.566 5  -2119739.31821
  20768645.839   -16648595.079 7 -12972882.58323
  23094612.3234   -4656411.08545  -3387717.65061
  22623225.3704    8488943.12145   6614751.11361
  21248833.386   -16536466.142 7 -12765224.04823
 91  3 30  0 30 44.9990000  0  5G15G 2G13G19G 6
  23669578.2374   -2798541.80145  -2134846.97961
  20768091.901   -16651505.239 7 -12975150.22123
  23083444.847    -4715105.603 5  -3433453.44021
  22629576.1364    8522328.82546   6640765.87961
  21243403.440   -16564998.921 7 -12787457.33223
 91  3 30  0 30 59.9990000  0  5G15G 2G13G19G 6
  23665907.2144   -2817826.30445  -2149873.79961
  20767547.394   -16654373.075 7 -12977384.88423
  23072283.3314   -4773748.94545  -3479149.34861
  22635946.5114    8555776.17745   6666828.69261
  21237980.581   -16593494.424 7 -12809661.56723
 91  3 30  0 31 14.9990000  0  5G15G 2G13G19G 6
  23662260.2844   -2836998.39345  -2164813.02361
  20767010.964   -16657190.036 7 -12979579.90023
  23061135.683    -4832331.840 5  -3524798.12621
  22642320.042     8589293.848 5   6692946.28721
  21232567.058   -16621943.681 7 -12831829.76922
 91  3 30  0 31 29.9990000  0  5G15G 2G13G19G 6
  23658631.214    -2856063.966 5  -2179669.22921
  20766482.933   -16659962.292 7 -12981740.07923
  23049997.3084   -4890859.80845  -3570404.13561
  22648714.526     8622875.669 5   6719113.86321
  21227160.401   -16650352.611 7 -12853966.54322
 91  3 30  0 31 44.9990000  0  5G15G 2G13G19G 6
  23655025.1444   -2875023.21245  -2194442.58661
  20765963.620   -16662690.527 7 -12983865.96023
  23038870.9334   -4949333.39145  -3615967.77761
  22655111.925     8656521.240 5   6745331.11321
  21221761.698   -16678721.452 7 -12876072.08422
 91  3 30  0 31 59.9990000  0  5G15G 2G13G19G 6
  23651437.019    -2893877.211 5  -2209133.95821
  20765452.925   -16665376.136 7 -12985958.62523
  23027753.8864   -5007753.55845  -3661489.76561
  22661527.261     8690228.889 5   6771596.74021
  21216371.315   -16707051.312 7 -12898147.24422
 91  3 30  0 32 14.9990000  0  5G15G 2G13G19G 6
  23647868.839    -2912622.617 5  -2223740.71921
  20764950.878   -16668015.887 7 -12988015.55623
  23016648.5974   -5066116.93645  -3706967.52261
  22667954.2224    8724001.75445   6797913.18561
  21210987.784   -16735338.877 7 -12920189.45222
 91  3 30  0 32 29.9990000  0  5G15G 2G13G19G 6
  23644321.2374   -2931259.05945  -2238262.56661
  20764456.378   -16670609.893 7 -12990036.84223
  23005551.698    -5124423.161 6  -3752400.73321
  22674398.8624    8757839.83145   6824280.44861
  21205612.847   -16763583.873 7 -12942198.48522
 91  3 30  0 32 44.9990000  0  5G15G 2G13G19G 6
  23640796.987    -2949784.215 5  -2252697.64721
  20763972.667   -16673156.237 7 -12992020.99023
  22994468.3624   -5182669.65746  -3797787.39361
  22680845.761     8791745.135 5   6850700.09621
  21200246.495   -16791784.030 7 -12964172.58022
 91  3 30  0 32 59.9990000  0  5G15G 2G13G19G 6
  23637294.2534   -2968199.29145  -2267046.99861
  20763496.292   -16675656.439 7 -12993969.18423
  22983394.9644   -5240857.49746  -3843128.36061
  22687310.4404    8825716.12345   6877170.92761
  21194888.581   -16819940.591 7 -12986112.70522
 91  3 30  0 33 14.9990000  0  5G15G 2G13G19G 6
  23633808.3864   -2986504.12345  -2281310.46061
  20763029.081   -16678110.529 7 -12995881.44623
  22972333.972    -5298986.314 6  -3888423.31821
  22693787.651     8859752.586 5   6903692.76021
  21189539.183   -16848053.368 7 -13008018.70922
 91  3 30  0 33 29.9990000  0  5G15G 2G13G19G 6
  23630341.730    -3004700.455 5  -2295489.36921
  20762572.558   -16680520.543 7 -12997759.36423
  22961280.9724   -5357057.77346  -3933673.59361
  22700276.8474    8893852.47945   6930264.04361
  21184198.120   -16876123.986 7 -13029891.86922
 91  3 30  0 33 44.9990000  0  5G15G 2G13G19G 6
  23626906.6364   -3022785.31645  -2309581.39261
  20762121.503   -16682883.955 7 -12999600.96523
  22950244.5034   -5415068.81546  -3978876.78961
  22706777.206     8928018.640 5   6956886.94321
  21178863.339   -16904149.511 7 -13051729.88622
 91  3 30  0 33 59.9990000  0  5G15G 2G13G19G 6
  23623485.620    -3040759.693 5  -2323587.32521
  20761679.917   -16685202.123 7 -13001407.31224
  22939215.2694   -5473020.52946  -4024033.77361
  22713296.3944    8962249.39845   6983560.19861
  21173539.464   -16932131.176 7 -13073533.73222
 91  3 30  0 34 14.9990000  0  5G15G 2G13G19G 6
  23620085.2534   -3058622.48445  -2337506.32161
  20761248.206   -16687474.168 7 -13003177.72524
  22928198.776    -5530911.668 5  -4069143.53921
  22719819.019     8996545.704 5   7010284.50821
  21168223.917   -16960067.750 7 -13095302.44122
 91  3 30  0 34 29.9990000  0  5G15G 2G13G19G 6
  23616710.097    -3076373.069 5  -2351337.88821
  20760824.042   -16689699.838 7 -13004911.99824
  22917195.1834   -5588741.18246  -4114205.28861
  22726358.323     9030907.744 5   7037060.05121
  21162915.745   -16987958.622 7 -13117035.53923
 91  3 30  0 34 44.9990000  0  5G15G 2G13G19G 6
  23613351.6204   -3094010.71545  -2365081.45561
  20760409.855   -16691878.747 7 -13006609.83623
  22906201.5344   -5646508.40346  -4159218.49561
  22732907.315     9065336.128 5   7063887.29221
  21157617.511   -17015803.006 7 -13138732.41023
 91  3 30  0 34 59.9990000  0  5G15G 2G13G19G 6
  23610016.472    -3111538.298 5  -2378739.25021
  20760003.308   -16694014.167 7 -13008273.78424
  22895218.4254   -5704216.20745  -4204185.38861
  22739474.3864    9099827.69745   7090763.77061
  21152327.269   -17043603.814 7 -13160395.33023
 91  3 30  0 35 14.9990000  0  5G15G 2G13G19G 6
  23606703.0114   -3128955.54745  -2392311.07261
  20759605.456   -16696105.897 7 -13009903.68723
  22884247.5894   -5761864.09145  -4249105.62461
  22746048.2374    9134382.33945   7117689.39861
  21147044.948   -17071360.793 7 -13182024.09523
 91  3 30  0 35 29.9990000  0  5G15G 2G13G19G 6
  23603408.1124   -3146260.04745  -2405795.03261
  20759215.862   -16698151.758 7 -13011497.84824
  22873290.659    -5819449.558 5  -4293977.21521
  22752637.8474    9169002.14845   7144665.80261
  21141772.440   -17099071.372 7 -13203616.70322
 91  3 30  0 35 44.9990000  0  5G15G 2G13G19G 6
  23600135.792    -3163452.328 5  -2419191.56521
  20758835.972   -16700152.721 7 -13013057.02524
  22862342.940    -5876973.062 6  -4338800.51821
  22759235.886     9203686.143 5   7171692.21821
  21136507.120   -17126736.333 7 -13225173.76822
 91  3 30  0 35 59.9990000  0  5G15G 2G13G19G 6
  23596886.5734   -3180532.38145  -2432500.64361
  20758462.948   -16702109.396 7 -13014581.69124
  22851408.8554   -5934434.55546  -4383575.50161
  22765849.612     9238433.852 5   7198768.27921
  21131251.425   -17154355.763 7 -13246695.35722
 91  3 30  0 36 14.9990000  0  5G15G 2G13G19G 6
  23593657.245    -3197500.228 5  -2445722.28621
  20758098.753   -16704021.736 7 -13016071.81024
  22840485.800    -5991833.555 5  -4428301.78021
  22772471.4954    9273245.17445   7225893.89461
  21126004.136   -17181929.483 7 -13268181.32622
 91  3 30  0 36 29.9990000  0  5G15G 2G13G19G 6
  23590450.151    -3214352.391 5  -2458853.78221
  20757744.128   -16705886.734 7 -13017525.03724
  22829575.792    -6049166.868 6  -4472976.90321
  22779112.800     9308123.220 5   7253071.51921
  21120766.347   -17209454.090 7 -13289629.02722
 91  3 30  0 36 44.9990000  0  5G15G 2G13G19G 6
  23587265.7374   -3231090.90645  -2471896.73961
  20757397.644   -16707706.524 7 -13018943.03724
  22818679.2064   -6106436.03945  -4517602.03461
  22785758.855     9343065.808 5   7280299.43021
  21115537.276   -17236931.425 7 -13311039.89222
 91  3 30  0 36 59.9990000  0  5G15G 2G13G19G 6
  23584103.347    -3247713.911 5  -2484849.67921
  20757060.362   -16709479.787 7 -13020324.78524
  22807791.659    -6163639.549 5  -4562175.98621
  22792422.448     9378074.336 5   7307578.72521
  21110318.386   -17264359.894 7 -13332412.68022
 91  3 30  0 37 14.9990000  0  5G15G 2G13G19G 6
  23580959.7374   -3264223.04245  -2497713.87561
  20756730.417   -16711208.293 7 -13021671.65824
  22796920.175    -6220778.642 6  -4606699.76921
  22799096.519     9413146.936 5   7334907.95521
  21105107.909   -17291740.946 7 -13353748.51422
 91  3 30  0 37 29.9990000  0  5G15G 2G13G19G 6
  23577842.7144   -3280612.44545  -2510484.77661
  20756411.198   -16712886.725 7 -13022979.51424
  22786058.5194   -6277847.66646  -4651168.95561
  22805784.105     9448288.965 5   7362291.28121
  21099907.980   -17319068.921 7 -13375042.99922
 91  3 30  0 37 44.9990000  0  5G15G 2G13G19G 6
  23574745.386    -3296885.503 5  -2523165.02221
  20756100.940   -16714518.959 7 -13024251.37224
  22775210.808    -6334849.986 6  -4695586.13621
  22812483.0034    9483496.57245   7389725.71661
  21094717.183   -17346347.278 7 -13396298.81522
 91  3 30  0 37 59.9990000  0  5G15G 2G13G19G 6
  23571671.3554   -3313041.38145  -2535753.96861
  20755798.808   -16716103.951 7 -13025486.41624
  22764378.0264   -6391784.22846  -4739950.29161
  22819197.964     9518770.729 5   7417211.99821
  21089536.261   -17373574.732 7 -13417514.96922
 91  3 30  0 38 14.9990000  0  5G15G 2G13G19G 6
  23568621.519    -3329072.723 5  -2548245.87821
  20755507.9724  -16717634.84747 -13026679.31464
  22753556.878    -6448642.873 6  -4784255.55921
  22825922.6124    9554118.34645   7444755.51161
  21084365.2694  -17400744.05547 -13438685.83363
 91  3 30  0 38 29.9990000  0  5G15G 2G13G19G 6
  23565596.065    -3344973.012 5  -2560635.66321
  20755228.948   -16719105.293 7 -13027825.10624
  22742751.565    -6505419.313 6  -4828496.74721
  22832663.378     9589545.532 5   7472361.02921
  21079207.839   -17427848.695 7 -13459806.28923
 91  3 30  0 38 44.9990000  0  5G15G 2G13G19G 6
  23562596.628    -3360733.531 5  -2572916.52921
  20754961.698   -16720506.800 7 -13028917.16724
  22731966.784    -6562104.640 6  -4872666.96021
  22839421.2144    9625060.74645   7500035.14961
  21074063.597   -17454879.846 7 -13480869.48023
 91  3 30  0 38 59.9990000  0  5G15G 2G13G19G 6
  23559623.2614   -3376365.82845  -2585097.47661
  20754705.644   -16721851.256 7 -13029964.78023
  22721193.980    -6618710.270 6  -4916775.04821
  22846196.026     9660652.046 5   7527768.55421
  21068931.292   -17481849.242 7 -13501884.54023
 91  3 30  0 39 14.9990000  0  5G15G 2G13G19G 6
  23556667.894    -3391884.857 5  -2597190.17621
  20754458.855   -16723154.201 7 -13030980.05023
  22710434.8234   -6675251.45846  -4960832.93661
  22852979.519     9696304.054 5   7555549.26921
  21063808.347   -17508771.882 7 -13522863.17323
 91  3 30  0 39 29.9990000  0  5G15G 2G13G19G 6
  23553735.222    -3407293.323 5  -2609196.73521
  20754216.8624  -16724418.77847 -13031965.42464
  22699686.831    -6731731.094 6  -5004842.88521
  22859774.995     9732013.661 5   7583374.86121
  21058693.214   -17535650.620 7 -13543807.59323
 91  3 30  0 39 44.9990000  0  5G15G 2G13G19G 6
  23550826.183    -3422590.924 5  -2621116.88121
  20753984.722   -16725644.644 7 -13032920.63024
  22688951.995    -6788148.177 6  -5048804.06121
  22866580.128     9767781.050 5   7611245.47621
  21053587.198   -17562484.925 7 -13564717.39023
 91  3 30  0 39 59.9990000  0  5G15G 2G13G19G 6
  23547934.831    -3437773.662 5  -2632947.54121
  20753758.948   -16726828.252 7 -13033842.90823
  22678227.495    -6844498.645 6  -5092713.34921
  22873401.292     9803609.865 5   7639163.95321
  21048489.565   -17589270.716 7 -13585589.38823
 91  3 30  0 40 14.9990000  0  5G15G 2G13G19G 6
  23545066.401    -3452842.236 5  -2644689.22021
  20753541.995   -16727970.331 7 -13034732.82524
  22667516.8554   -6900783.04446  -5136571.16661
  22880228.940     9839499.190 5   7667129.57721
  21043401.667   -17616008.515 7 -13606423.98623
 91  3 30  0 40 29.9990000  0  5G15G 2G13G19G 6
  23542222.722    -3467793.368 5  -2656339.40221
  20753332.112   -16729067.756 7 -13035587.94824
  22656817.628    -6956997.908 6  -5180374.79721
  22887070.870     9875452.068 5   7695144.72221
  21038322.894   -17642695.050 7 -13627218.64123
 91  3 30  0 40 44.9990000  0  5G15G 2G13G19G 6
  23539400.667    -3482624.776 5  -2667896.29421
  20753133.480   -16730118.643 7 -13036406.80924
  22646134.5734   -7013140.66146  -5224122.24461
  22893925.222     9911470.574 5   7723211.00121
  21033254.519   -17669327.937 7 -13647971.49123
 91  3 30  0 40 59.9990000  0  5G15G 2G13G19G 6
  23536600.5894   -3497338.54745  -2679361.52261
  20752941.058   -16731125.386 7 -13037191.27223
  22635464.7844   -7069213.37946  -5267815.09261
  22900794.7694    9947552.31145   7751326.56261
  21028196.636   -17695909.317 7 -13668684.20323
 91  3 30  0 41 14.9990000  0  5G15G 2G13G19G 6
  23533824.183    -3511935.864 5  -2690736.03421
  20752757.167   -16732089.478 7 -13037942.49824
  22624808.167    -7125217.344 6  -5311454.39321
  22907668.198     9983695.624 5   7779490.09221
  21023148.112   -17722440.406 7 -13689357.73223
 91  3 30  0 41 29.9990000  0  5G15G 2G13G19G 6
  23531069.1904   -3526408.92445  -2702013.68261
  20752584.347   -16733003.596 7 -13038654.78623
  22614165.245    -7181144.620 6  -5355033.92721
  22914563.628    10019907.784 5   7807707.27321
  21018110.058   -17748913.499 7 -13709986.07123
 91  3 30  0 41 44.9990000  0  5G15G 2G13G19G 6
  23528336.831    -3540757.673 5  -2713194.45621
  20752418.237   -16733867.930 7 -13039328.27724
  22603537.706    -7236995.069 6  -5398553.60121
  22921461.7534   10056188.58145   7835977.94561
  21013083.440   -17775328.506 7 -13730569.14723
 91  3 30  0 41 59.9990000  0  5G15G 2G13G19G 6
  23525631.730    -3554981.958 5  -2724278.27321
  20752264.487   -16734682.526 7 -13039963.01323
  22592922.847    -7292768.231 6  -5442013.05021
  22928383.495    10092538.148 5   7864302.20421
  21008068.167   -17801684.994 7 -13751106.62523
 91  3 30  0 42 14.9990000  0  5G15G 2G13G19G 6
  23522947.8234   -3569081.52745  -2735264.90861
  20752118.644   -16735447.517 7 -13040559.09624
  22582325.3624   -7348463.83746  -5485412.07261
  22935310.901    10128956.187 5   7892679.81221
  21003063.800   -17827982.895 7 -13771598.45123
 91  3 30  0 42 29.9990000  0  5G15G 2G13G19G 6
  23520289.3234   -3583054.54745  -2746152.94261
  20751981.065   -16736161.227 7 -13041115.21924
  22571741.269    -7404079.874 6  -5528749.08421
  22942255.4644   10165444.37945   7921112.08261
  20998071.112   -17854220.273 7 -13792043.11423
 91  3 30  0 42 44.9990000  0  5G15G 2G13G19G 6
  23517652.659    -3596902.880 5  -2756943.80421
  20751857.026   -16736825.931 7 -13041633.15723
  22561172.8704   -7459618.14746  -5572025.50361
  22949210.8004   10202000.48945   7949597.27161
  20993089.425   -17880399.040 7 -13812442.10823
 91  3 30  0 42 59.9990000  0  5G15G 2G13G19G 6
  23515042.7144   -3610622.09645  -2767634.05561
  20751740.6514  -16737437.04147 -13042109.33764
  22550619.9254   -7515073.99146  -5615237.70161
  22956182.940    10238628.620 5   7978138.59521
  20988119.456   -17906514.553 7 -13832791.81123
 91  3 30  0 43 14.9990000  0  5G15G 2G13G19G 6
  23512457.651    -3624207.633 5  -2778220.15521
  20751636.089   -16737990.340 7 -13042540.46523
  22540083.3944   -7570442.58446  -5658381.91761
  22963165.378    10275333.141 5   8006739.43121
  20983163.315   -17932562.279 7 -13853088.69923
 91  3 30  0 43 29.9990000  0  5G15G 2G13G19G 6
  23509897.4874   -3637664.90645  -2788706.29561
  20751537.9014  -16738491.83747 -13042931.23063
  22529562.995    -7625729.152 6  -5701462.20021
  22970168.4484   10312108.09445   8035395.14961
  20978217.870   -17958547.672 7 -13873337.01123
 91  3 30  0 43 44.9990000  0  5G15G 2G13G19G 6
  23507361.7614   -3650989.67445  -2799089.19861
  20751455.940   -16738937.386 7 -13043278.39924
  22519057.6054   -7680929.63246  -5744475.40861
  22977175.667    10348957.480 5   8064108.85921
  20973285.714   -17984466.322 7 -13893533.31623
 91  3 30  0 43 59.9990000  0  5G15G 2G13G19G 6
  23504850.597    -3664185.757 5  -2809371.81421
  20751381.612   -16739330.791 7 -13043584.93524
  22508567.7304   -7736047.30046  -5787424.10661
  22984205.417    10385877.650 5   8092877.73521
  20968364.784   -18010321.782 7 -13913680.38023
 91  3 30  0 44 14.9990000  0  5G15G 2G13G19G 6
  23502364.5424   -3677251.72145  -2819553.04261
  20751314.253   -16739670.942 7 -13043849.97424
  22498097.2224   -7791080.36246  -5830306.85261
  22991240.003    10422869.748 5   8121702.66621
  20963457.605   -18036112.463 7 -13933776.97523
 91  3 30  0 44 29.9990000  0  5G15G 2G13G19G 6
  23499901.8704   -3690184.46245  -2829630.48161
  20751260.6514  -16739955.30447 -13044071.54264
  22487640.5424   -7846026.01746  -5873121.49261
  22998295.245    10459936.324 5   8150585.62721
  20958562.417   -18061835.445 7 -13953820.81323
 91  3 30  0 44 44.9990000  0  5G15G 2G13G19G 6
  23497466.042    -3702985.271 5  -2839605.09821
  20751215.026   -16740185.634 7 -13044251.00824
  22477202.1054   -7900885.58846  -5915869.06261
  23005360.323    10497075.492 5   8179525.16321
  20953680.386   -18087492.263 7 -13973813.09023
 91  3 30  0 44 59.9990000  0  5G15G 2G13G19G 6
  23495055.065    -3715653.278 5  -2849476.21721
  20751182.058   -16740361.185 7 -13044387.78624
  22466778.0194   -7955658.24346  -5958548.89561
  23012447.964    10534287.744 5   8208521.64821
  20948810.534   -18113082.069 7 -13993753.15623
 91  3 30  0 45 14.9990000  0  5G15G 2G13G19G 6
  23492670.464    -3728188.568 5  -2859243.94121
  20751162.003   -16740482.014 7
  22456371.8004   -8010343.78846  -6001160.87361
  23019538.901    10571573.003 5   8237575.00621
  20943953.425   -18138604.429 7 -14013640.66223
 91  3 30  0 45 29.9990000  0  5G15G 2G13G19G 6
  23490311.2064   -3740588.38245  -2868906.10661
  20751149.097   -16740545.909 7
  22445982.355    -8064939.144 6  -6043702.54821
  23026647.2924   10608933.57345   8266687.05361
  20939110.487   -18164056.751 7 -14033473.59823
 91  3 30  0 45 44.9990000  0  5G15G 2G13G19G 6
  23487975.3784   -3752858.50345  -2878467.21361
  20751145.581   -16740558.914 7
  22435609.3784   -8119450.11546  -6086178.48461
  23033770.4804   10646363.25845   8295852.96061
  20934279.394   -18189444.829 7 -14053256.47223
 91  3 30  0 45 59.9990000  0  5G15G 2G13G19G 6
  23485666.253    -3764992.305 5  -2887922.06821
  20751156.308   -16740514.294 7
  22425254.4174   -8173869.64146  -6128583.15661
  23040909.136    10683868.825 5   8325078.00021
  20929462.136   -18214761.607 7 -14072983.78623
 91  3 30  0 46 14.9990000  0  5G15G 2G13G19G 6
  23483382.4644   -3776997.55045  -2897276.77161
  20751171.472   -16740420.028 7
  22414914.1444   -8228205.23346  -6170922.43161
  23048057.7614   10721442.18745   8354355.86161
  20924655.620   -18240014.948 7 -14092661.66823
 91  3 30  0 46 29.9990000  0  5G15G 2G13G19G 6
  23481121.4874   -3788873.56545  -2906530.78561
  20751200.5654  -16740275.69347
  22404590.7844   -8282456.10746  -6213195.69061
  23055223.7224   10759083.71545   8383686.84361
  20919863.050   -18265204.052 7 -14112289.49723
 91  3 30  0 46 44.9990000  0  5G15G 2G13G19G 6
  23478888.183    -3800618.580 5  -2915682.70921
  20751237.5194  -16740079.95247
  22394283.378    -8336620.457 6  -6255401.53021
  23062396.683    10796794.630 5   8413071.88021
  20915082.440   -18290327.280 7 -14131865.99523
 91  3 30  0 46 59.9990000  0  5G15G 2G13G19G 6
  23476677.120    -3812235.315 5  -2924734.67321
  20751281.5264  -16739836.01947 -13043978.48864
  22383992.3864   -8390700.94346  -6297542.01461
  23069587.667    10834571.834 5   8442508.58321
  20910313.401   -18315387.350 7 -14151393.27523
 91  3 30  0 47 14.9990000  0  5G15G 2G13G19G 6
  23474491.644    -3823715.992 5  -2933680.61521
  20751342.4644  -16739536.13848 -13043744.80864
  22373717.8624   -8444689.66346  -6339611.00261
  23076788.253    10872423.098 5   8472003.00221
  20905557.3314  -18340376.21947 -14170865.08063
 91  3 30  0 47 29.9990000  0  5G15G 2G13G19G 6
  23472331.2764   -3835067.33745  -2942525.79061
  20751407.2144  -16739187.19748 -13043472.89964
  22363460.011    -8498593.216 6  -6381613.62421
  23084007.089    10910341.290 5   8501549.57121
  20900814.909   -18365300.627 7 -14190286.65423
 91  3 30  0 47 44.9990000  0  5G15G 2G13G19G 6
  23470199.2374   -3846280.18345  -2951263.04061
  20751485.1364  -16738780.08747 -13043155.66464
  22353221.4804   -8552402.09046  -6423542.45961
  23091236.1984   10948335.50345   8531155.35061
  20896085.940   -18390151.121 7 -14209650.63523
 91  3 30  0 47 59.9990000  0  5G15G 2G13G19G 6
  23468088.2064   -3857359.82445  -2959896.48661
  20751571.0194  -16738320.84247 -13042797.80463
  22342999.948    -8606121.741 6  -6465401.78921
  23098479.5194   10986399.68345   8560815.66061
  20891369.472   -18414933.184 7 -14228961.28623
 91  3 30  0 48 14.9990000  0  5G15G 2G13G19G 6
  23466006.8154   -3868306.14245  -2968426.03161
  20751670.1054  -16737809.59347 -13042399.42464
  22332792.4014   -8659752.12546  -6507191.53461
  23105734.7374   11024533.74445   8590530.42861
  20886666.4014  -18439646.75147 -14248218.57263
 91  3 30  0 48 29.9990000  0  5G15G 2G13G19G 6
  23463948.730    -3879117.462 5  -2976850.39321
  20751777.3474  -16737244.69547 -13041959.23663
  22322605.230    -8713291.163 6  -6548910.11021
  23113006.1594   11062739.17245   8620300.80061
  20881977.7844  -18464289.89847 -14267420.98463
 91  3 30  0 48 44.9990000  0  5G15G 2G13G19G 6
  23461915.894    -3889797.142 5  -2985172.19221
  20751894.3474  -16736629.46647 -13041479.83064
  22312433.9564   -8766741.97746  -6590559.95861
  23120288.448    11101012.382 5   8650123.99421
  20877300.9174  -18488865.80247 -14286571.00263
 91  3 30  0 48 59.9990000  0  5G15G 2G13G19G 6
  23459911.8474   -3900339.62545  -2993387.07261
  20752019.6754  -16735958.64247 -13040957.10264
  22302279.6834   -8820098.70446  -6632136.47761
  23127589.776    11139358.903 5   8680004.32021
  20872638.4174  -18513368.73147 -14305664.15463
 91  3 30  0 49 14.9990000  0  5G15G 2G13G19G 6
  23457930.4014   -3910748.94645  -3001498.20061
  20752157.8784  -16735236.68347 -13040394.52764
  22292142.3084   -8873365.18346  -6673642.67661
  23134895.065    11177774.277 5   8709938.29821
  20867988.5974  -18537802.65547 -14324703.53963
 91  3 30  0 49 29.9990000  0  5G15G 2G13G19G 6
  23455974.4724   -3921023.36145  -3009504.20761
  20752304.964   -16734461.913 7 -13039790.79724
  22282023.9254   -8926539.47346  -6715077.04261
  23142220.8554   11216259.86545   8739926.97361
  20863352.9484  -18562165.93647 -14343687.87563
 91  3 30  0 49 44.9990000  0  5G15G 2G13G19G 6
  23454043.987    -3931166.579 5  -3017407.96521
  20752462.011   -16733638.397 7 -13039149.08424
  22271922.2304   -8979625.32746  -6756442.48761
  23149556.026    11254811.702 5   8769967.29921
  20858729.0584  -18586461.96847 -14362619.81163
 91  3 30  0 49 59.9990000  0  5G15G 2G13G19G 6
  23452140.8004   -3941170.13446  -3025202.90861
  20752630.628   -16732757.970 7 -13038463.02324
  22261837.8314   -9032614.10446  -6797732.29661
  23156908.8784   11293437.84945   8800065.50361
  20854119.9254  -18610682.37147 -14381492.81663
 91  3 30  0 50 14.9990000  0  5G15G 2G13G19G 6
  23450264.230    -3951039.938 6  -3032893.61621
  20752808.065   -16731826.558 7 -13037737.23624
  22251772.2764   -9085511.49446  -6838950.89761
  23164269.503    11332132.103 5   8830216.79221
  20849524.1514  -18634832.91347 -14400311.38663
 91  3 30  0 50 29.9990000  0  5G15G 2G13G19G 6
  23448410.6754   -3960769.11346  -3040474.74661
  20752995.511   -16730837.635 7 -13036966.63424
  22241725.128    -9138310.482 6  -6880092.82321
  23171649.394    11370901.092 5   8860426.30521
  20844943.1514  -18658906.67547 -14419070.12463
 91  3 30  0 50 44.9990000  0  5G15G 2G13G19G 6
  23446584.050    -3970367.857 6  -3047954.24621
  20753191.503   -16729801.521 7 -13036159.25924
  22231694.2694   -9191021.06146  -6921165.84961
  23179036.636    11409734.495 5   8890686.01921
  20840374.7924  -18682913.69547 -14437776.85863
 91  3 30  0 50 59.9990000  0  5G15G 2G13G19G 6
  23444784.605    -3979827.206 6  -3055325.11421
  20753400.792   -16728709.215 7 -13035308.09824
  22221681.6124   -9243634.20346  -6962162.95361
  23186442.8784   11448641.01445   8921002.69361
  20835820.5584  -18706844.78747 -14456424.42763
 91  3 30  0 51 14.9990000  0  5G15G 2G13G19G 6
  23443011.5264   -3989151.34646  -3062590.64261
  20753618.589   -16727565.324 7 -13034416.74124
  22211688.565    -9296153.941 6  -7003087.27521
  23193856.6054   11487616.22745   8951372.89661
  20831280.7144  -18730704.05547 -14475016.02763
 91  3 30  0 51 29.9990000  0  5G15G 2G13G19G 6
  23441261.8474   -3998339.63646  -3069750.30761
  20753845.245   -16726369.633 7 -13033485.02324
  22201710.9724   -9348579.42546  -7043938.15361
  23201287.7454   11526660.27645   8981796.74161
  20826753.9484  -18754491.00347 -14493551.27463
 91  3 30  0 51 44.9990000  0  5G15G 2G13G19G 6
  23439539.026    -4007395.543 6  -3076806.81921
  20754082.870   -16725125.811 7 -13032515.79724
  22191752.409    -9400914.192 6  -7084718.34721
  23208728.1674   11565769.20545   9012271.14161
  20822240.0654  -18778209.03147 -14512032.81763
 91  3 30  0 51 59.9990000  0  5G15G 2G13G19G 6
  23437840.058    -4016317.770 5  -3083759.16221
  20754328.175   -16723832.702 7 -13031508.16224
  22181811.4174   -9453156.63746  -7125426.59861
  23216187.1754   11604944.35045   9042797.14161
  20817740.7924  -18801856.66747 -14530459.50863
 91  3 30  0 52 14.9990000  0  5G15G 2G13G19G 6
  23436169.4874   -4025099.52145  -3090602.02761
  20754584.815   -16722483.636 7 -13030456.92724
  22171888.6834   -9505299.47546  -7166057.22161
  23223653.3154   11644192.45245   9073379.98861
  20813255.3554  -18825426.80547 -14548825.81463
 91  3 30  0 52 29.9990000  0  5G15G 2G13G19G 6
  23434523.3624   -4033749.44245  -3097342.19061
  20754850.269   -16721087.422 7 -13029368.95523
  22161983.6674   -9557351.41046  -7206617.03061
  23231135.300    11683504.343 5   9104012.54721
  20808783.0034  -18848928.07847 -14567138.45463
 91  3 30  0 52 44.9990000  0  5G15G 2G13G19G 6
  23432903.386    -4042263.162 5  -3103976.22421
  20755126.237   -16719640.060 7 -13028241.12624
  22152095.1674   -9609308.16746  -7247102.65861
  23238626.667    11722884.072 5   9134697.97021
  20804324.6904  -18872356.14147 -14585394.05163
 91  3 30  0 52 59.9990000  0  5G15G 2G13G19G 6
  23431308.1124   -4050638.42745  -3110502.36861
  20755411.855   -16718139.501 7 -13027071.84523
  22142228.2694   -9661167.20246  -7287512.15561
  23246136.4254   11762333.75745   9165437.89761
  20799881.5654  -18895708.60647 -14603590.74363
 91  3 30  0 53 14.9990000  0  5G15G 2G13G19G 6
  23429740.175    -4058877.883 5  -3116922.68521
  20755706.628   -16716588.679 7 -13025863.39924
  22132376.995    -9712931.004 6  -7327847.43421
  23253655.4954   11801850.21045   9196229.85661
  20795451.2064  -18918988.03047 -14621730.51963
 91  3 30  0 53 29.9990000  0  5G15G 2G13G19G 6
  23428200.9014   -4066981.13246  -3123236.85961
  20756011.136   -16714987.261 7 -13024615.52223
  22122546.0654   -9764598.90846  -7368107.99261
  23261192.9254   11841433.54945   9227073.91761
  20791034.7064  -18942193.79747 -14639812.89463
 91  3 30  0 53 44.9990000  0  5G15G 2G13G19G 6
  23426685.9954   -4074944.94246  -3129442.38561
  20756326.433   -16713332.223 7 -13023325.86924
  22112731.815    -9816167.693 6  -7408291.31021
  23268731.3084   11881086.79145   9257972.45861
  20786633.3944  -18965322.73547 -14657835.40663
 91  3 30  0 53 59.9990000  0  5G15G 2G13G19G 6
  23425195.9804   -4082768.72946  -3135538.80861
  20756651.995   -16711623.025 7 -13021994.01624
  22102936.8784   -9867636.39846  -7448396.64761
  23276295.8004   11920810.54945   9288925.94461
  20782247.0504  -18988373.86047 -14675797.28363
 91  3 30  0 54 14.9990000  0  5G15G 2G13G19G 6
  23423732.065    -4090456.512 6  -3141529.25821
  20756986.159   -16709864.057 7 -13020623.37724
  22093162.480    -9919009.012 6  -7488427.11721
  23283864.1984   11960600.40445   9319930.92561
  20777874.1674  -19011351.30647 -14693701.74463
 91  3 30  0 54 29.9990000  0  5G15G 2G13G19G 6
  23422296.0814   -4098008.08146  -3147413.56361
  20757330.870   -16708055.247 7 -13019213.89824
  22083404.2614   -9970285.04646  -7528382.32061
  23291452.2534   12000456.26845   9350987.33661
  20773515.558   -19034254.716 7 -14711548.51523
 91  3 30  0 54 44.9990000  0  5G15G 2G13G19G 6
  23420884.401    -4105427.994 6  -3153195.27421
  20757683.214   -16706201.219 7 -13017769.18524
  22073664.0424  -10021468.68346  -7568265.52261
  23299045.1754   12040373.24745   9382091.38861
  20769170.5584  -19057088.22747 -14729340.82663
 91  3 30  0 54 59.9990000  0  5G15G 2G13G19G 6
  23419496.1754   -4112710.72646  -3158870.08461
  20758045.886   -16704296.598 7 -13016285.05324
  22063942.269   -10072554.243 6  -7608072.30221
  23306654.2844   12080356.62445   9413247.18561
  20764840.6204  -19079846.43947 -14747074.45463
 91  3 30  0 55 14.9990000  0  5G15G 2G13G19G 6
  23418137.1204   -4119857.04246  -3164438.58961
  20758417.776   -16702342.381 7 -13014762.27124
  22054239.112   -10123542.533 6  -7647803.30121
  23314274.6204   12120405.77045   9444454.21961
  20760524.136   -19102529.728 7 -14764749.70223
 91  3 30  0 55 29.9990000  0  5G15G 2G13G19G 6
  23416806.5264   -4126863.93946  -3169898.48561
  20758799.792   -16700336.035 7 -13013198.87324
  22044556.4484  -10174430.44746  -7687456.07161
  23321910.6984   12160522.95745   9475714.27561
  20756221.7844  -19125135.28847 -14782364.38463
 91  3 30  0 55 44.9990000  0  5G15G 2G13G19G 6
  23415498.690    -4133728.514 6  -3175247.46421
  20759191.5974  -16698274.82647 -13011592.72364
  22034890.9094  -10225214.98146  -7727028.29061
  23329555.7924   12200710.73545   9507029.31661
  20751936.0814  -19147660.09847 -14799916.15163
 91  3 30  0 55 59.9990000  0  5G15G 2G13G19G 6
  23414217.3084   -4140454.80446  -3180488.69061
  20759594.0194  -16696162.82247 -13009946.99864
  22025247.097   -10275899.933 6  -7766522.91921
  23337221.542    12240965.004 5   9538396.18121
  20747663.7694  -19170107.95747 -14817407.95463
 91  3 30  0 56 14.9990000  0  5G15G 2G13G19G 6
  23412962.0344   -4147051.24746  -3185628.74761
  20760003.714   -16694008.597 7 -13008268.36924
  22015620.003   -10326493.364 6  -7805946.23921
  23344885.550    12281277.148 5   9569808.15221
  20743405.1364  -19192487.26247 -14834846.33963
 91  3 30  0 56 29.9990000  0  5G15G 2G13G19G 6
  23411735.4954   -4153508.18546  -3190660.09561
  20760423.0814  -16691802.73847 -13006549.51063
  22006010.862   -10376985.650 6  -7845290.73021
  23352574.9484   12321656.44745   9601272.43761
  20739161.5654  -19214788.11647 -14852223.59363
 91  3 30  0 56 44.9990000  0  5G15G 2G13G19G 6
  23410531.2534   -4159821.97646  -3195579.88861
  20760853.1284  -16689541.66247 -13004787.62464
  21996422.261   -10427372.929 6  -7884553.41421
  23360268.6674   12362106.21345   9632791.63961
  20734933.8554  -19237006.80547 -14869536.82563
 91  3 30  0 56 59.9990000  0  5G15G 2G13G19G 6
  23409357.565    -4165995.016 6  -3200390.01421
  20761293.2144  -16687228.04447 -13002984.79763
  21986852.901   -10477657.370 6  -7923735.95921
  23367980.167    12402623.762 5   9664363.66321
  20730721.0194  -19259145.58147 -14886787.78663
 91  3 30  0 57 14.9990000  0  5G15G 2G13G19G 6
  23408208.6444   -4172029.00646  -3205091.79461
  20761743.0344  -16684863.65047 -13001142.40463
  21977304.690   -10527840.425 6  -7962839.49821
  23375702.6364   12443207.16845   9695986.99361
  20726523.2064  -19281205.98947 -14903977.67963
 91  3 30  0 57 29.9990000  0  5G15G 2G13G19G 6
  23407087.9564   -4177926.86146  -3209687.49961
  20762202.9874  -16682451.59147 -12999262.86963
  21967772.9174  -10577924.89846  -8001866.22561
  23383439.5264   12483853.30645   9727659.21061
  20722340.3554  -19303190.76047 -14921108.63263
 91  3 30  0 57 44.9990000  0  5G15G 2G13G19G 6
  23405990.3864   -4183687.48046  -3214176.25661
  20762670.9644  -16679990.83447 -12997345.38863
  21958260.1054  -10627909.36146  -8040815.01461
  23391183.4564   12524563.18845   9759381.10761
  20718169.9564  -19325098.56347 -14938179.60963
 91  3 30  0 57 59.9990000  0  5G15G 2G13G19G 6
  23404919.5734   -4189313.28646  -3218559.96561
  20763148.4094  -16677484.02947 -12995392.02663
  21948767.284   -10677796.001 6  -8079687.58621
  23398942.511    12565334.240 5   9791150.67321
  20714015.1754  -19346931.60447 -14955192.33263
 91  3 30  0 58 14.9990000  0  5G15G 2G13G19G 6
  23403878.761    -4194796.535 6  -3222832.60121
  20763635.5814  -16674923.90547 -12993397.11763
  21939294.706   -10727577.240 6  -8118478.02221
  23406713.6284   12606173.51845   9822973.37561
  20709876.2844  -19368682.39747 -14972140.96363
 91  3 30  0 58 29.9990000  0  5G15G 2G13G19G 6
  23402861.2534   -4200140.08446  -3226996.37361
  20764131.2924  -16672313.48847 -12991363.01663
  21929840.058   -10777255.950 6  -8157188.57321
  23414500.0654   12647077.86345   9854846.79261
  20705752.4404  -19390353.72347 -14989027.68063
 91  3 30  0 58 44.9990000  0  5G15G 2G13G19G 6
  23401870.4724   -4205343.33646  -3231050.82561
  20764637.550   -16669651.933 7 -12989289.06823
  21920406.105   -10826830.801 6  -8195818.18921
  23422294.5654   12688048.02445   9886771.49261
  20701644.3004  -19411944.40647 -15005851.55463
 91  3 30  0 58 59.9990000  0  5G15G 2G13G19G 6
  23400906.9874   -4210410.96046  -3234999.57561
  20765153.5814  -16666944.15947 -12987179.10463
  21910991.003   -10876306.352 6  -8234370.43321
  23430105.9954   12729079.04245   9918743.62461
  20697549.7224  -19433459.04247 -15022616.17063
 91  3 30  0 59 14.9990000  0  5G15G 2G13G19G 6
  23399969.058    -4215340.949 6  -3238841.09821
  20765677.4334  -16664188.47247 -12985031.80563
  21901596.2764  -10925680.74146  -8272843.84661
  23437922.565    12770172.340 5   9950764.27121
  20693470.5114  -19454895.60947 -15039319.95563
 91  3 30  0 59 29.9990000  0  5G15G 2G13G19G 6
  23399055.690    -4220133.472 6  -3242575.48821
  20766210.4564  -16661385.21247 -12982847.44163
  21892219.815   -10974953.950 6  -8311238.41221
  23445756.7534   12811327.72745   9982833.30761
  20689406.0974  -19476254.14547 -15055962.93363
 91  3 30  0 59 44.9990000  0  5G15G 2G13G19G 6
  23398171.4334   -4224785.82846  -3246200.66961
  20766753.5424  -16658531.75347 -12980623.95564
  21882862.440   -11024122.739 6  -8349551.61921
  23453597.605    12852547.689 5  10014952.64321
  20685357.1754  -19497531.77147 -15072542.86663
 91  3 30  0 59 59.9990000  0  5G15G 2G13G19G 6
  23397312.581    -4229294.159 6  -3249713.61321
  20767307.7454  -16655624.46047 -12978358.52464
  21873526.558   -11073183.213 6  -8387780.41521
  23461455.6754   12893835.72244  10047125.05761
  20681324.9644  -19518724.39247 -15089056.56263
 91  3 30  1  0 14.9990000  0  5G15G 2G13G19G 6
  23396479.3704   -4233662.39046  -3253117.40061
  20767869.7454  -16652667.44947 -12976054.35264
  21864209.925   -11122139.409 6  -8425927.97721
  23469324.503    12935187.642 5  10079347.21821
  20677306.7454  -19539835.92447 -15105507.07263
 91  3 30  1  0 29.9990000  0  5G15G 2G13G19G 6
  23395676.745    -4237890.976 6  -3256412.35721
  20768442.4874  -16649661.03547 -12973711.68364
  21854915.261   -11170991.117 6  -8463994.09921
  23477207.6364   12976602.93044  10111618.78461
  20673304.5894  -19560866.42447 -15121894.44563
 91  3 30  1  0 44.9990000  0  5G15G 2G13G19G 6
  23394898.8394   -4241982.95646  -3259600.88461
  20769023.5894  -16646608.71547 -12971333.24264
  21845637.690   -11219741.434 6  -8501981.22421
  23485096.315    13018078.055 4  10143936.95921
  20669317.5734  -19581819.03947 -15138221.12063
 91  3 30  1  0 59.9990000  0  5G15G 2G13G19G 6
  23394144.3084   -4245936.33946  -3262681.40261
  20769613.5734  -16643508.55647 -12968917.52364
  21836379.6204  -11268388.06546  -8539887.56261
  23493002.792    13059614.800 4  10176303.15921
  20665345.9724  -19602691.54247 -15154485.37463
 91  3 30  1  1 14.9990000  0  5G15G 2G13G19G 6
  23393420.6984   -4249750.10946  -3265653.13361
  20770212.073   -16640359.702 7 -12966463.85824
  21827142.183   -11316930.000 6  -8577712.31321
  23500916.284    13101214.047 4  10208718.05721
  20661389.4254  -19623482.78447 -15170686.30663
 91  3 30  1  1 29.9990000  0  5G15G 2G13G19G 6
  23392718.9564   -4253423.85546  -3268515.76461
  20770821.073   -16637161.521 7 -12963971.75823
  21817925.3004  -11365366.30646  -8615454.76661
  23508846.1984   13142876.19444  10241181.97561
  20657448.6904  -19644191.88347 -15186823.23263
 91  3 30  1  1 44.9990000  0  5G15G 2G13G19G 6
  23392047.628    -4256960.693 6  -3271271.70621
  20771438.190   -16633917.544 7 -12961443.96924
  21808728.026   -11413700.059 6  -8653117.29421
  23516783.519    13184597.652 4  10273692.09521
  20653522.8084  -19664821.94847 -15202898.57063
 91  3 30  1  1 59.9990000  0  5G15G 2G13G19G 6
  23391400.542    -4260361.117 6  -3273921.34521
  20772064.355   -16630628.503 7 -12958881.06924
  21799549.5194  -11461931.80046  -8690700.34661
  23524737.3154   13226377.53444  10306247.76061
  20649612.5344  -19685373.54147 -15218912.76063
 91  3 30  1  2 14.9990000  0  5G15G 2G13G19G 6
  23390777.167    -4263619.791 6  -3276460.53421
  20772700.026   -16627289.181 7 -12956278.98823
  21790391.6054  -11510055.90046  -8728199.51861
  23532697.198    13268221.120 4  10338853.04921
  20645717.4644  -19705840.94447 -15234861.35163
 91  3 30  1  2 29.9990000  0  5G15G 2G13G19G 6
  23390184.964    -4266737.816 6  -3278890.12921
  20773344.683   -16623900.692 7 -12953638.59223
  21781254.3624  -11558073.26846  -8765615.52661
  23540674.386    13310126.920 4  10371506.81021
  20641837.9724  -19726225.22147 -15250745.16563
 91  3 30  1  2 44.9990000  0  5G15G 2G13G19G 6
  23389619.034    -4269714.647 6  -3281209.69921
  20773998.690   -16620462.806 7 -12950959.70223
  21772137.620   -11605983.131 6  -8802947.76221
  23548659.769    13352095.234 4  10404209.29221
  20637975.1594  -19746525.68947 -15266563.67563
 91  3 30  1  2 59.9990000  0  5G15G 2G13G19G 6
  23389081.3394   -4272548.08546  -3283417.53061
  20774662.034   -16616973.210 7 -12948240.52123
  21763041.7144  -11653783.02846  -8840194.31361
  23556662.730    13394128.299 4  10436962.22321
  20634127.9874  -19766739.69947 -15282314.81463
 91  3 30  1  3 14.9990000  0  5G15G 2G13G19G 6
  23388568.8314   -4275244.27445  -3285518.42561
  20775335.261   -16613438.339 8 -12945486.06023
  21753965.9254  -11701478.76346  -8877359.70361
  23564667.464    13436219.598 4  10469760.53421
  20630296.6204  -19786873.31947 -15298003.30963
 91  3 30  1  3 29.9990000  0  5G15G 2G13G19G 6
  23388082.4484   -4277797.86445  -3287508.20461
  20776016.980   -16609853.119 8 -12942692.36823
  21744909.6124  -11749065.08646  -8914439.83961
  23572691.847    13478373.868 4  10502607.90721
  20626481.9094  -19806921.31847 -15313625.09163
 91  3 30  1  3 44.9990000  0  5G15G 2G13G19G 6
  23387622.7304   -4280211.76545  -3289389.12661
  20776708.315   -16606220.436 8 -12939861.69323
  21735874.5114  -11796544.78246  -8951436.88161
  23580720.761    13520588.350 4  10535502.19721
  20622682.6444  -19826886.18747 -15329182.09063
 91  3 30  1  3 59.9990000  0  5G15G 2G13G19G 6
  23387190.5504   -4282484.56946  -3291160.10461
  20777410.0264  -16602539.06548 -12936993.08463
  21726860.6364  -11843916.14246  -8988349.50461
  23588768.7144   13562864.08244  10568444.22761
  20618899.5584  -19846766.41147 -15344673.13763
 91  3 30  1  4 14.9990000  0  5G15G 2G13G19G 6
  23386781.8154   -4284620.43346  -3292824.38461
  20778119.175   -16598813.223 7 -12934089.81723
  21717865.2454  -11891183.16446  -9025180.83361
  23596822.448    13605196.759 4  10601430.63121
  20615132.2374  -19866565.92247 -15360101.29463
 91  3 30  1  4 29.9990000  0  5G15G 2G13G19G 6
  23386404.0734   -4286613.12146  -3294377.09161
  20778837.495   -16595036.481 8 -12931146.88823
  21708892.2454  -11938338.95346  -9061925.48561
  23604892.0264   13647592.51744  10634466.17461
  20611380.8784  -19886278.05147 -15375461.36063
 91  3 30  1  4 44.9990000  0  5G15G 2G13G19G 6
  23386054.456    -4288467.452 5  -3295821.98221
  20779564.347   -16591213.959 8 -12928168.28723
  21699938.6444  -11985388.33446  -9098587.22561
  23612969.6514   13690046.27244  10667546.92661
  20607645.6514  -19905907.63647 -15390757.09963
 91  3 30  1  4 59.9990000  0  5G15G 2G13G19G 6
  23385721.589    -4290182.246 5  -3297158.13921
  20780301.222   -16587344.852 8 -12925153.38623
  21691005.5114  -12032330.28346  -9135165.24661
  23621059.526    13732558.744 4  10700673.42621
  20603925.5734  -19925453.47147 -15405987.58763
 91  3 30  1  5 14.9990000  0  5G15G 2G13G19G 6
  23385424.011    -4291758.152 5  -3298386.09421
  20781045.808   -16583429.938 8 -12922102.79123
  21682093.2224  -12079165.09646  -9171659.78461
  23629160.917    13775129.181 4  10733845.08921
  20600222.7924  -19944915.96847 -15421153.13663
 91  3 30  1  5 29.9990000  0  5G15G 2G13G19G 6
  23385152.2304   -4293190.50446  -3299502.17761
  20781800.9564  -16579464.64648 -12919012.94263
  21673201.9404  -12125887.90346  -9208067.05561
  23637274.065    13817761.993 4  10767065.36021
  20596535.8234  -19964290.30047 -15436249.98563
 91  3 30  1  5 44.9990000  0  5G15G 2G13G19G 6
  23384907.9724   -4294480.99145  -3300507.72361
  20782564.2304  -16575450.55648 -12915885.07063
  21664331.737   -12172499.947 6  -9244388.01821
  23645397.269    13860455.280 4  10800332.74021
  20592865.2534  -19983577.84047 -15451279.20063
 91  3 30  1  5 59.9990000  0  5G15G 2G13G19G 6
  23384685.081    -4295628.708 5  -3301402.00521
  20783337.6834  -16571386.78448 -12912718.48764
  21655483.355   -12219000.296 6  -9280621.94321
  23653539.589    13903209.721 4  10833647.79221
  20589211.4014  -20002777.48847 -15466239.93463
 91  3 30  1  6 14.9990000  0  5G15G 2G13G19G 6
  23384499.198    -4296630.774 6  -3302182.80321
  20784120.7534  -16567270.53947 -12909511.01464
  21646656.9564  -12265385.81746  -9316766.38861
  23661683.2224   13946028.24944  10867012.76361
  20585575.3944  -20021886.11147 -15481129.74163
 91  3 30  1  6 29.9990000  0  5G15G 2G13G19G 6
  23384336.300    -4297493.562 6  -3302855.08021
  20784912.2454  -16563108.40747 -12906267.78763
  21637849.394   -12311662.763 6  -9352826.23721
  23669844.6834   13988904.12144  10900422.40561
  20581955.1284  -20040909.91147 -15495953.45263
 91  3 30  1  6 44.9990000  0  5G15G 2G13G19G 6
  23384193.8474   -4298215.87445  -3303417.88861
  20785713.9564  -16558899.62647 -12902988.20963
  21629064.440   -12357829.821 6  -9388800.45721
  23678011.073    14031837.767 4  10933877.07521
  20578351.6054  -20059847.76347 -15510710.19063
 91  3 30  1  6 59.9990000  0  5G15G 2G13G19G 6
  23384082.948    -4298796.989 5  -3303870.68321
  20786524.1284  -16554643.14147 -12899671.45663
  21620299.995   -12403885.985 6  -9424688.26821
  23686195.464    14074830.203 4  10967377.57121
  20574763.448   -20078698.499 7 -15525399.05023
 91  3 30  1  7 14.9990000  0  5G15G 2G13G19G 6
  23383998.550    -4299235.847 6  -3304212.60321
  20787343.1984  -16550338.21247 -12896316.95963
  21611557.5814  -12449829.97746  -9460488.66361
  23694385.847    14117882.102 5  11000924.40321
  20571193.730   -20097460.922 7 -15540019.09723
 91  3 30  1  7 29.9990000  0  5G15G 2G13G19G 6
  23383944.480    -4299535.252 6  -3304445.88421
  20788171.2534  -16545987.79647 -12892927.02163
  21602835.901   -12495664.448 6  -9496203.73021
  23702590.128    14160990.534 5  11034515.26621
  20567639.612   -20116137.687 7 -15554572.39723
 91  3 30  1  7 44.9990000  0  5G15G 2G13G19G 6
  23383912.5584   -4299692.61246
  20789008.0194  -16541589.38847 -12889499.68463
  21594133.847   -12541386.430 6  -9531831.14221
  23710802.9564   14204157.95145  11068152.08761
  20564102.675   -20134725.960 7 -15569056.73923
 91  3 30  1  7 59.9990000  0  5G15G 2G13G19G 6
  23383909.6594   -4299705.72346
  20789854.2694  -16537140.82347 -12886033.26863
  21585455.808   -12586993.750 6  -9567369.20621
  23719031.292    14247386.113 4  11101836.27221
  20560583.1984  -20153223.35547 -15583470.26663
 91  3 30  1  8 14.9990000  0  5G15G 2G13G19G 6
  23383936.7304   -4299579.15946
  20790709.3234  -16532646.43847 -12882531.14563
  21576797.425   -12632490.378 6  -9602821.01221
  23727265.511    14290670.672 4  11135564.39621
  20557079.3944  -20171634.02247 -15597816.20963
 91  3 30  1  8 29.9990000  0  5G15G 2G13G19G 6
  23383989.5194   -4299307.23546
  20791573.8154  -16528100.76847 -12878989.05963
  21568162.417   -12677870.443 6  -9638181.99321
  23735519.058    14334016.969 4  11169340.62221
  20553594.2844  -20189952.12547 -15612090.02663
 91  3 30  1  8 44.9990000  0  5G15G 2G13G19G 6
  23384066.7924   -4298892.51446  -3303944.88361
  20792448.6444  -16523506.42547 -12875409.04863
  21559548.401   -12723136.395 6  -9673454.06321
  23743773.9954   14377422.18944  11203162.74961
  20550124.3944  -20208180.05147 -15626293.57563
 91  3 30  1  8 59.9990000  0  5G15G 2G13G19G 6
  23384170.8704   -4298338.53846  -3303513.17861
  20793332.1124  -16518867.17547 -12871794.04664
  21550956.355   -12768291.685 6  -9708639.89321
  23752049.683    14420882.395 4  11237027.73221
  20546671.9874  -20226321.19847 -15640429.50463
 91  3 30  1  9 14.9990000  0  5G15G 2G13G19G 6
  23384306.9644   -4297646.33745  -3302973.77061
  20794222.0734  -16514184.11147 -12868144.90264
  21542383.956   -12813337.279 6  -9743740.24521
  23760325.8864   14464396.38044  11270934.62961
  20543236.042   -20244376.447 7 -15654498.50923
 91  3 30  1  9 29.9990000  0  5G15G 2G13G19G 6
  23384460.995    -4296811.585 5  -3302323.30121
  20795122.8704  -16509453.28547 -12864458.54264
  21533833.573   -12858268.588 6  -9778751.55221
  23768616.8314   14507968.32444  11304886.68161
  20539818.011   -20262341.283 7 -15668497.06023
 91  3 30  1  9 44.9990000  0  5G15G 2G13G19G 6
  23384650.0504   -4295837.68645  -3301564.38561
  20796031.5194  -16504678.09947 -12860737.61264
  21525303.972   -12903088.760 6  -9813676.25721
  23776918.2694   14551594.44144  11338880.95461
  20536415.683   -20280219.019 7 -15682427.74523
 91  3 30  1  9 59.9990000  0  5G15G 2G13G19G 6
  23384858.886    -4294717.068 5  -3300691.15121
  20796949.9334  -16499851.21747 -12856976.40064
  21516797.190   -12947790.391 6  -9848508.58921
  23785236.159    14595281.887 4  11372922.99621
  20533032.2924  -20298001.88747 -15696284.49763
 91  3 30  1 10 14.9990000  0  5G15G 2G13G19G 6
  23385101.112    -4293456.211 6  -3299708.63021
  20797877.0814  -16494978.72347 -12853179.64764
  21508312.995   -12992379.196 6  -9883253.00521
  23793554.331    14639024.541 4  11407008.08021
  20529665.737   -20315695.808 7 -15710071.94123
 91  3 30  1 10 29.9990000  0  5G15G 2G13G19G 6
  23385369.9094   -4292053.32846  -3298615.43961
  20798813.9484  -16490058.89247 -12849346.00764
  21499849.511   -13036853.291 6  -9917908.04621
  23801892.2534   14682823.82543  11441137.29061
  20526315.5974  -20333298.81147 -15723788.53963
 91  3 30  1 10 44.9990000  0  5G15G 2G13G19G 6
  23385662.9094   -4290508.66746  -3297411.78661
  20799758.6284  -16485092.19747 -12845475.85164
  21491408.144   -13081212.730 6  -9952473.73821
  23810235.612    14726679.276 4  11475310.26121
  20522983.378   -20350810.999 7 -15737434.37323
 91  3 30  1 10 59.9990000  0  5G15G 2G13G19G 6
  23385980.855    -4288821.127 6  -3296096.79421
  20800713.4174  -16480077.63247 -12841568.39764
  21482989.198   -13125456.326 6  -9986949.15821
  23818596.058    14770591.681 3  11509527.60121
  20519667.151   -20368231.087 7 -15751008.44223
 91  3 30  1 11 14.9990000  0  5G15G 2G13G19G 6
  23386328.7764   -4286993.81046  -3294672.87961
  20801675.6904  -16475018.27447 -12837626.03864
  21474590.878   -13169586.663 6 -10021336.32721
  23826959.8944   14814557.83844  11543786.81261
  20516369.2144  -20385561.96547 -15764512.99463
 91  3 30  1 11 29.9990000  0  5G15G 2G13G19G 6
  23386704.1984   -4285020.39146  -3293135.12061
  20802648.7224  -16469907.80347 -12833643.84964
  21466215.097   -13213597.331 6 -10055630.24721
  23835338.823    14858583.769 3  11578092.62821
  20513089.4954  -20402797.02247 -15777942.88063
 91  3 30  1 11 44.9990000  0  5G15G 2G13G19G 6
  23387107.3554   -4282900.16746  -3291482.96161
  20803630.9334  -16464745.57647 -12829621.33463
  21457863.722   -13257487.202 6 -10089830.03921
  23843726.0814   14902670.14843  11612445.54361
  20509828.4874  -20419935.25947 -15791297.31663
 91  3 30  1 11 59.9990000  0  5G15G 2G13G19G 6
  23387537.6124   -4280638.30845  -3289720.44761
  20804621.6124  -16459536.94347 -12825562.65563
  21449533.995   -13301261.366 6 -10123939.66621
  23852128.6904   14946811.60143  11646841.39461
  20506584.8004  -20436981.61147 -15804580.15763
 91  3 30  1 12 14.9990000  0  5G15G 2G13G19G 6
  23387997.7694   -4278233.41646  -3287846.48261
  20805621.6054  -16454280.59947 -12821466.79863
  21441226.269   -13344918.436 6 -10157958.06221
  23860535.4094   14991009.16443  11681280.89561
  20503358.5424  -20453934.72447 -15817790.33863
 91  3 30  1 12 29.9990000  0  5G15G 2G13G19G 6
  23388486.0974   -4275685.20446  -3285860.82561
  20806631.0504  -16448976.54447 -12817333.76064
  21432940.2064  -13388458.07546 -10191884.94661
  23868958.237    15035262.850 3  11715764.19021
  20500150.4804  -20470794.02847 -15830927.41763
 91  3 30  1 12 44.9990000  0  5G15G 2G13G19G 6
  23388996.144    -4272992.833 6  -3283762.82921
  20807649.573   -16443623.902 7 -12813162.85623
  21424677.917   -13431879.216 6 -10225719.49321
  23877390.1594   15079573.23643  11750291.64261
  20496960.6674  -20487558.48747 -15843990.59563
 91  3 30  1 12 59.9990000  0  5G15G 2G13G19G 6
  23389533.042    -4270156.142 6  -3281552.38721
  20808677.9954  -16438222.42447 -12808953.90363
  21416437.675   -13475181.159 6 -10259461.15921
  23885834.8314   15123940.43443  11784863.38661
  20493788.3474  -20504227.60347 -15856979.48163
 91  3 30  1 13 14.9990000  0  5G15G 2G13G19G 6
  23390103.1674   -4267177.28146  -3279231.15761
  20809714.394   -16432774.378 7 -12804708.66124
  21408219.9484  -13518366.16946 -10293111.70761
  23894288.917    15168362.093 3  11819477.54521
  20490633.4954  -20520803.29447 -15869895.57163
 91  3 30  1 13 29.9990000  0  5G15G 2G13G19G 6
  23390695.8004   -4264051.32546  -3276795.30961
  20810760.542   -16427274.782 7 -12800423.25023
  21400024.175   -13561428.779 6 -10326666.88721
  23902754.784    15212842.993 3  11854137.87221
  20487498.5504  -20537280.38147 -15882734.82663
 91  3 30  1 13 44.9990000  0  5G15G 2G13G19G 6
  23391319.2844   -4260781.39245  -3274247.27261
  20811815.1754  -16421727.08447 -12796100.35964
  21391853.065   -13604372.114 6 -10360129.11021
  23911223.065    15257379.625 3  11888841.60521
  20484381.1124  -20553661.95047 -15895499.65063
 91  3 30  1 13 59.9990000  0  5G15G 2G13G19G 6
  23391964.5344   -4257369.61945  -3271588.71961
  20812880.7144  -16416133.10747 -12791741.40964
  21383704.081   -13647197.852 6 -10393499.70521
  23919714.175    15301970.096 3  11923587.31121
  20481281.3944  -20569949.61247 -15908191.29863
 91  3 30  1 14 14.9990000  0  5G15G 2G13G19G 6
  23392645.972    -4253810.868 5  -3268815.61421
  20813955.3474  -16410487.85347 -12787342.49864
  21375578.136   -13689900.579 6 -10426774.44321
  23928208.4014   15346619.14643  11958378.67961
  20478200.6204  -20586138.04747 -15920805.62263
 91  3 30  1 14 29.9990000  0  5G15G 2G13G19G 6
  23393351.7764   -4250105.67745  -3265928.41161
  20815039.347   -16404791.879 7 -12782904.06723
  21367474.644   -13732480.676 6 -10459953.63521
  23936717.1204   15391326.14143  11993215.18161
  20475139.5814  -20602227.36047 -15933342.71663
 91  3 30  1 14 44.9990000  0  5G15G 2G13G19G 6
  23394080.8394   -4246257.07245  -3262929.46561
  20816133.237   -16399048.297 7 -12778428.53624
  21359395.175   -13774941.135 6 -10493039.59221
  23945233.9644   15436087.72543  12028094.21661
  20472095.7374  -20618220.66847 -15945804.99963
 91  3 30  1 14 59.9990000  0  5G15G 2G13G19G 6
  23394840.214    -4242264.335 5  -3259818.20421
  20817235.042   -16393256.507 7 -12773915.43923
  21351338.222   -13817280.925 6 -10526031.52421
  23953763.2374   15480904.39543  12063016.19961
  20469071.0344  -20634116.93547 -15958191.67063
 91  3 30  1 15 14.9990000  0  5G15G 2G13G19G 6
  23395628.0194   -4238127.17845  -3256594.41261
  20818346.972   -16387416.108 8 -12769364.46724
  21343302.753   -13859499.500 6 -10558929.01121
  23962302.917    15525776.561 3  12097981.38621
  20466064.8154  -20649915.42447 -15970502.14863
 91  3 30  1 15 29.9990000  0  5G15G 2G13G19G 6
  23396442.683    -4233841.603 5  -3253254.97321
  20819467.542   -16381523.225 7 -12764772.59623
  21335293.1444  -13901592.45746 -10591728.59961
  23970854.8474   15570707.90143  12132992.71961
  20463077.8864  -20665612.04747 -15982733.25063
 91  3 30  1 15 44.9990000  0  5G15G 2G13G19G 6
  23397285.472    -4229415.885 5  -3249806.31421
  20820597.542   -16375586.298 7 -12760146.40824
  21327306.120   -13943568.122 6 -10624436.79721
  23979410.050    15615689.732 3  12168043.35621
  20460109.0194  -20681214.92847 -15994891.31163
 91  3 30  1 15 59.9990000  0  5G15G 2G13G19G 6
  23398155.526    -4224844.947 5  -3246244.51821
  20821736.3394  -16369600.10547 -12755481.83264
  21319341.089   -13985421.296 7 -10657049.55121
  23987981.878    15660726.860 3  12203137.12221
  20457158.0584  -20696718.72147 -16006972.15863
 91  3 30  1 16 14.9990000  0  5G15G 2G13G19G 6
  23399053.222    -4220124.727 5  -3242566.39921
  20822885.542   -16363560.703 7 -12750775.79223
  21311400.089   -14027147.551 7 -10689563.40721
  23996562.339    15705823.313 3  12238277.10721
  20454227.9644  -20712119.05747 -16018972.39063
 91  3 30  1 16 29.9990000  0  5G15G 2G13G19G 6
  23399980.4954   -4215260.53845  -3238776.09861
  20824043.956   -16357473.441 7 -12746032.45723
  21303483.464   -14068751.998 7 -10721982.34821
  24005158.230    15750973.451 3  12273458.91521
  20451315.6284  -20727421.07747 -16030896.00963
 91  3 30  1 16 44.9990000  0  5G15G 2G13G19G 6
  23400935.870    -4210250.169 5  -3234871.87921
  20825211.808   -16351336.007 7 -12741250.02823
  21295590.097   -14110232.051 7 -10754304.36321
  24013759.339    15796179.531 4  12308684.33521
  20448422.5584  -20742622.28847 -16042741.07763
 91  3 30  1 16 59.9990000  0  5G15G 2G13G19G 6
  23401913.159    -4205098.573 6  -3230857.62421
  20826388.3084  -16345153.57447 -12736432.53763
  21287719.050   -14151592.562 7 -10786533.22121
  24022369.714    15841436.453 3  12343949.34921
  20445547.7144  -20757727.49147 -16054511.34063
 91  3 30  1 17 14.9990000  0  5G15G 2G13G19G 6
  23402923.0504   -4199800.04646  -3226728.87561
  20827573.3784  -16338920.06047 -12731575.24463
  21279872.511   -14192827.636 7 -10818664.34521
  24030993.8554   15886749.85044  12379258.40361
  20442693.5034  -20772730.34547 -16066201.84963
 91  3 30  1 17 29.9990000  0  5G15G 2G13G19G 6
  23403959.5114   -4194355.46946  -3222486.31961
  20828769.519   -16332636.669 7 -12726679.08423
  21272050.058   -14233938.083 7 -10850698.34921
  24039628.065    15932118.496 4  12414610.47921
  20439857.964   -20787631.791 7 -16077813.34623
 91  3 30  1 17 44.9990000  0  5G15G 2G13G19G 6
  23405022.7694   -4188766.56846  -3218131.30561
  20829974.9404  -16326305.18347 -12721745.44963
  21264250.3704  -14274925.11547 -10882636.19361
  24048270.565    15977540.370 4  12450004.05221
  20437040.050   -20802433.264 7 -16089346.93523
 91  3 30  1 17 59.9990000  0  5G15G 2G13G19G 6
  23406113.128    -4183030.199 6  -3213661.36921
  20831189.5114  -16319922.48347 -12716771.91064
  21256473.722   -14315785.337 7 -10914475.21421
  24056926.8084   16023018.46443  12485441.42261
  20434243.9804  -20817131.31447 -16100799.93563
 91  3 30  1 18 14.9990000  0  5G15G 2G13G19G 6
  23407235.206    -4177147.102 5  -3209077.12521
  20832412.6204  -16313489.30547 -12711759.03864
  21248724.0424  -14356519.46347 -10946216.00161
  24065587.987    16068551.910 3  12520921.92921
  20431467.2924  -20831726.58447 -16112172.84263
 91  3 30  1 18 29.9990000  0  5G15G 2G13G19G 6
  23408379.151    -4171117.728 5  -3204378.88421
  20833647.1124  -16307006.07247 -12706707.15664
  21240995.1984  -14397127.64747 -10977858.63861
  24074269.237    16114140.234 3  12556445.17921
  20428708.0034  -20846219.00647 -16123465.61263
 91  3 30  1 18 44.9990000  0  5G15G 2G13G19G 6
  23409553.128    -4164939.174 5  -3199564.40721
  20834891.433   -16300469.795 7 -12701613.94324
  21233291.784   -14437606.763 7 -11009400.70621
  24082950.8004   16159786.07243  12592013.27461
  20425971.6054  -20860605.64247 -16134675.95063
 91  3 30  1 18 59.9990000  0  5G15G 2G13G19G 6
  23410759.5114   -4158615.97345  -3194637.21561
  20836143.862   -16293885.085 7 -12696482.98724
  21225612.6054  -14477960.97047 -11040845.44661
  24091653.6674   16205484.65243  12627622.42961
  20423252.3624  -20874890.56147 -16145807.02663
 91  3 30  1 19 14.9990000  0  5G15G 2G13G19G 6
  23411993.394    -4152142.882 5  -3189593.23421
  20837406.448   -16287246.911 7 -12691310.37424
  21217958.1754  -14518184.97747 -11072188.72961
  24100356.1834   16251240.96143  12663276.59561
  20420555.011   -20889068.410 7 -16156854.67423
 91  3 30  1 19 29.9990000  0  5G15G 2G13G19G 6
  23413252.472    -4145525.151 5
  20838680.183   -16280560.125 7
  21210327.8234  -14558283.79047 -11103434.45761
  24109075.448    16297049.898 3  12698971.76521
  20417876.503   -20903143.942 7 -16167822.60123
 91  3 30  1 19 44.9990000  0  5G15G 2G13G19G 6
  23414539.6904   -4138760.44645
  20839960.558   -16273822.719 7
  21202722.1444  -14598255.08347 -11134580.82161
  24117796.894    16342913.423 3  12734709.45921
  20415217.909   -20917115.000 7 -16178709.11523
 91  3 30  1 19 59.9990000  0  5G15G 2G13G19G 6
  23415854.4874   -4131846.59545  -3173777.84161
  20841253.7224  -16267032.38247 -12675558.75864
  21195139.940   -14638096.059 7 -11165625.63821
  24126538.534    16388833.676 3  12770491.37421
  20412579.464   -20930978.796 7 -16189512.05223
 91  3 30  1 20 14.9990000  0  5G15G 2G13G19G 6
  23417196.355    -4124786.087 6  -3168276.13821
  20842555.6364  -16260191.46547 -12670228.16564
  21187583.097   -14677808.774 7 -11196570.51321
  24135284.276    16434808.252 3  12806315.62621
  20409962.230   -20944737.358 7 -16200232.98023
 91  3 30  1 20 29.9990000  0  4G15G 2G13G 6
  23418566.323    -4117577.334 6  -3162658.91321
  20843867.7224  -16253298.72347 -12664857.19264
  21180050.0114  -14717391.89347 -11227414.40761
  20407363.690   -20958389.202 7 -16210870.75523
 91  3 30  1 20 44.9990000  0  4G15G 2G13G 6
  23419969.097    -4110220.096 5  -3156925.97621
  20845189.0264  -16246353.87247 -12659445.61764
  21172543.0264  -14756844.77247 -11258156.81361
  20404785.1514  -20971933.86247 -16221425.00663
 91  3 30  1 20 59.9990000  0  4G15G 2G13G 6
  23421397.9804   -4102720.23345  -3151081.89061
  20846518.8474  -16239362.70747 -12653997.94864
  21165059.019   -14796173.059 7 -11288802.13021
  20402228.378   -20985376.768 7 -16231899.97323
 91  3 30  1 21 14.9990000  0  4G15G 2G13G 6
  23422849.972    -4095069.596 5  -3145120.33621
  20847860.480   -16232316.792 7 -12648507.61224
  21157600.5654  -14835368.21647 -11319343.71561
  20399690.800   -20998709.473 7 -16242289.06823
 91  3 30  1 21 29.9990000  0  4G15G 2G13G 6
  23424338.339    -4087272.151 5  -3139044.39921
  20849210.144   -16225220.422 8 -12642977.95824
  21150165.5344  -14874434.24247 -11349784.67961
  20397173.9804  -21011935.71547 -16252595.20263
 91  3 30  1 21 44.9990000  0  4G15G 2G13G 6
  23425845.440    -4079325.994 5  -3132852.55021
  20850571.823   -16218071.409 7 -12637407.29023
  21142757.1834  -14913368.81847 -11380123.21561
  20394677.3624  -21025053.37747 -16262816.73063
 91  3 30  1 21 59.9990000  0  4G15G 2G13G 6
  23427390.151    -4071233.992 5  -3126547.07321
  20851941.1674  -16210872.85347 -12631798.01664
  21135372.5424  -14952174.77647 -11410361.53261
  20392201.1124  -21038065.02247 -16272955.64763
 91  3 30  1 22 14.9990000  0  4G15G 2G13G 6
  23428956.808    -4062992.630 5  -3120125.21721
  20853320.964   -16203621.103 7 -12626147.29123
  21128012.9804  -14990848.15147 -11440496.53961
  20389746.5034  -21050966.73347 -16283008.89963
 91  3 30  1 22 29.9990000  0  4G15G 2G13G 6
  23430550.6834   -4054603.18046  -3113587.95961
  20854711.011   -16196317.546 7 -12620456.19624
  21120678.6284  -15029390.17547 -11470529.19861
  20387311.6754  -21063759.65447 -16292977.38163
 91  3 30  1 22 44.9990000  0  4G15G 2G13G 6
  23432177.980    -4046064.376 6  -3106934.33121
  20856110.534   -16188960.783 7 -12614723.64224
  21113369.7144  -15067799.09447 -11500458.13961
  20384898.2844  -21076442.04647 -16302859.73363
 91  3 30  1 22 59.9990000  0  4G15G 2G13G 6
  23433831.808    -4037378.015 6  -3100165.70521
  20857520.065   -16181552.404 7 -12608950.86824
  21106085.3864  -15106076.76347 -11530284.80361
  20382505.7614  -21089015.60847 -16312657.28363
 91  3 30  1 23 14.9990000  0  4G15G 2G13G 6
  23435513.5814   -4028540.19245  -3093279.07361
  20858940.284   -16174088.750 7 -12603135.02124
  21098827.6834  -15144218.76147 -11560005.75061
  20380134.730   -21101476.010 7 -16322366.66123
 91  3 30  1 23 29.9990000  0  4G15G 2G13G 6
  23437224.167    -4019555.870 6  -3086278.28221
  20860370.011   -16166574.658 7 -12597279.87224
  21091593.8944  -15182229.67447 -11589624.55761
  20377784.1594  -21113827.98947 -16331991.55663
 91  3 30  1 23 44.9990000  0  4G15G 2G13G 6
  23438961.534    -4010422.400 5  -3079161.26421
  20861809.503   -16159007.516 7 -12591383.38724
  21084386.4174  -15220106.97947 -11619139.26061
  20375454.2694  -21126068.67447 -16341529.72163
 91  3 30  1 23 59.9990000  0  4G15G 2G13G 6
  23440727.784    -4001140.794 5  -3071928.81621
  20863259.4254  -16151388.42447 -12585446.42164
  21077203.2454  -15257851.47447 -11648550.46661
  20373146.230   -21138198.891 7 -16350981.81423
 91  3 30  1 24 14.9990000  0  4G15G 2G13G 6
  23442523.3394   -3991709.34045  -3064579.63461
  20864719.2694  -16143715.52847 -12579467.53163
  21070046.5734  -15295461.09147 -11677856.57761
  20370860.089   -21150216.432 7 -16360346.11023
 91  3 30  1 24 29.9990000  0  4G15G 2G13G 6
  23444342.175    -3982129.249 5  -3057114.60921
  20866190.761   -16135990.027 7 -12573447.65023
  21062914.526   -15332937.044 7 -11707058.54321
  20368593.8944  -21162122.34647 -16369623.41863
 91  3 30  1 24 44.9990000  0  4G15G 2G13G 6
  23446193.6124   -3972399.79945  -3049533.20661
  20867671.042   -16128211.060 7 -12567386.10923
  21055809.6124  -15370278.11147 -11736155.39261
  20366349.855   -21173915.575 7 -16378812.92622
 91  3 30  1 24 59.9990000  0  4G15G 2G13G 6
  23448077.144    -3962522.396 5  -3041836.50721
  20869159.4564  -16120379.66147 -12561283.70863
  21048729.3154  -15407485.34547 -11765147.95861
  20364127.4484  -21185596.99547 -16387915.30863
 91  3 30  1 25 14.9990000  0  4G15G 2G13G 6
  23449981.659    -3952497.627 5  -3034024.97421
  20870661.105   -16112496.752 7 -12555141.16423
  21041673.495   -15444559.171 7 -11794036.57821
  20361925.456   -21197167.241 7 -16396931.05323
 91  3 30  1 25 29.9990000  0  4G15G 2G13G 6
  23451918.0504   -3942324.11345  -3026097.54861
  20872170.909   -16104561.099 7 -12548957.53023
  21034643.667   -15481498.379 7 -11822820.29321
  20359744.4804  -21208624.68247 -16405858.90363
 91  3 30  1 25 44.9990000  0  4G15G 2G13G 6
  23453881.847    -3932002.928 5  -3018055.05321
  20873690.855   -16096573.517 7 -12542733.42923
  21027640.417   -15518303.465 7 -11851499.50021
  20357586.089   -21219970.067 7 -16414699.43923
 91  3 30  1 25 59.9990000  0  4G15G 2G13G 6
  23455876.7694   -3921532.41545  -3009896.18561
  20875221.503   -16088532.293 7 -12536467.52823
  21020662.8234  -15554972.50347 -11880072.69661
  20355448.3154  -21231201.12247 -16423450.88363
 91  3 30  1 26 14.9990000  0  4G15G 2G13G 6
  23457893.7764   -3910911.30945  -3001619.98261
  20876762.534   -16080436.119 7 -12530158.80723
  21013710.776   -15591504.123 7 -11908538.81421
  20353333.776   -21242316.423 7 -16432112.13023
 91  3 30  1 26 29.9990000  0  4G15G 2G13G 6
  23459945.862    -3900136.939 5  -2993224.34921
  20878313.683   -16072282.188 7 -12523805.08223
  21006785.847   -15627895.216 7 -11936895.43321
  20351240.6594  -21253313.04047 -16440680.89563
 91  3 30  1 26 44.9990000  0  4G15G 2G13G 6
  23462027.831    -3889211.972 5  -2984711.37521
  20879875.081   -16064073.339 7 -12517408.56424
  20999886.909   -15664148.223 7 -11965144.45621
  20349170.315   -21264193.504 7 -16449159.15523
 91  3 30  1 26 59.9990000  0  4G15G 2G13G 6
  23464133.253    -3878133.719 5  -2976078.96321
  20881447.714   -16055806.647 7 -12510966.97723
  20993014.800   -15700260.081 7 -11993283.48921
  20347122.683   -21274954.623 7 -16457544.42123
 91  3 30  1 27 14.9990000  0  4G15G 2G13G 6
  23466267.5424   -3866907.25545  -2967331.05961
  20883031.9014  -16047487.14647 -12504484.23863
  20986168.948   -15736235.824 7 -12021316.45821
  20345095.831   -21285601.054 7 -16465840.31923
 91  3 30  1 27 29.9990000  0  4G15G 2G13G 6
  23468431.183    -3855527.723 5  -2958463.86821
  20884626.245   -16039110.036 7 -12497956.61123
  20979350.253   -15772070.167 7 -12049239.24821
  20343093.2694  -21296127.75347 -16474042.91263
 91  3 30  1 27 44.9990000  0  4G15G 2G13G 6
  23470626.370    -3844000.670 5  -2949481.74021
  20886230.0504  -16030680.69547 -12491388.28564
  20972557.347   -15807768.845 7 -12077056.32521
  20341112.7764  -21306540.09147 -16482156.39163
 91  3 30  1 27 59.9990000  0  4G15G 2G13G 6
  23472849.925    -3832323.376 5  -2940382.53421
  20887843.9174  -16022196.28747 -12484777.05163
  20965790.386   -15843328.426 7 -12104765.01121
  20339153.3084  -21316834.87647 -16490178.27263
 91  3 30  1 28 14.9990000  0  4G15G 2G13G 6
  23475103.6984   -3820493.08745  -2931164.11961
  20889469.8704  -16013654.39947 -12478121.02363
  20959050.0814  -15878746.44047 -12132363.39061
  20337216.409   -21327009.367 7 -16498106.42223
 91  3 30  1 28 29.9990000  0  4G15G 2G13G 6
  23477384.722    -3808512.435 5  -2921828.53821
  20891105.620   -16005057.321 7 -12471421.99023
  20952336.644   -15914024.944 7 -12159853.06121
  20335301.667   -21337065.622 7 -16505942.44623
 91  3 30  1 28 44.9990000  0  4G15G 2G13G 6
  23479689.612    -3796381.090 5  -2912375.53021
  20892752.995   -15996404.742 7 -12464679.71124
  20945649.737   -15949163.758 7 -12187233.88221
  20333411.948   -21347003.102 7 -16513685.91422
 91  3 30  1 28 59.9990000  0  4G15G 2G13G 6
  23482025.7454   -3784099.37545  -2902805.33661
  20894409.956   -15987696.795 7 -12457894.28723
  20938990.276   -15984162.503 7 -12214505.55621
  20331543.128   -21356821.782 7 -16521336.80922
 91  3 30  1 29 14.9990000  0  4G15G 2G13G 6
  23484396.1204   -3771668.05145  -2893118.57761
  20896076.3474  -15978934.45947 -12451066.48363
  20932356.980   -16019022.050 7 -12241668.75921
  20329697.112   -21366522.426 7 -16528895.72623
 91  3 30  1 29 29.9990000  0  4G15G 2G13G 6
  23486786.550    -3759082.409 5  -2883311.56721
  20897755.4804  -15970112.74647 -12444192.41163
  20925749.925   -16053737.225 7 -12268719.47121
  20327874.761   -21376099.720 7 -16536358.52723
 91  3 30  1 29 44.9990000  0  4G15G 2G13G 6
  23489213.7454   -3746343.87045  -2873385.41461
  20899445.2924  -15961232.94247 -12437273.07763
  20919171.761   -16088309.214 7 -12295658.61221
  20326075.737   -21385554.828 7 -16543726.11923
 91  3 30  1 29 59.9990000  0  4G15G 2G13G 6
  23491662.144    -3733448.681 5  -2863337.20321
  20901146.5584  -15952291.12047 -12430305.41663
  20912620.198   -16122733.794 7 -12322482.88121
  20324300.589   -21394883.510 7 -16550995.19623
 91  3 30  1 30 14.9990000  0  4G15G 2G13G 6
  23494148.4404   -3720401.27845  -2853170.39261
  20902858.6364  -15943291.74647 -12423292.91164
  20906096.722   -16157015.349 7 -12349195.70621
  20322548.698   -21404089.795 7 -16558168.90223
 91  3 30  1 30 29.9990000  0  4G15G 2G13G 6
  23496661.128    -3707200.365 5  -2842883.93921
  20904582.5734  -15934233.44347 -12416234.48464
  20899600.730   -16191152.595 7 -12375796.08121
  20320820.558   -21413172.328 7 -16565246.17322
 91  3 30  1 30 44.9990000  0  4G15G 2G13G 6
  23499201.159    -3693846.402 5  -2832478.24421
  20906318.3084  -15925116.73547 -12409130.55263
  20893132.097   -16225145.646 7 -12402284.09821
  20319115.0654  -21422131.34047 -16572227.19562
 91  3 30  1 30 59.9990000  0  4G15G 2G13G 6
  23501769.3864   -3680344.38945  -2821957.18661
  20908062.8554  -15915946.56547 -12401984.95764
  20886689.980   -16258999.084 7 -12428663.33121
  20317433.5654  -21430971.55447 -16579115.64762
 91  3 30  1 31 14.9990000  0  4G15G 2G13G 6
  23504369.565    -3666688.873 5  -2811316.49921
  20909819.4874  -15906717.16747 -12394793.21263
  20880274.753   -16292707.168 7 -12454929.29721
  20315775.4644  -21439686.80747 -16585906.72663
 91  3 30  1 31 29.9990000  0  4G15G 2G13G 6
  23506996.1834   -3652883.22945  -2800558.86061
  20911586.4404  -15897432.16247 -12387558.13663
  20873886.847   -16326273.366 7 -12481084.69921
  20314138.011   -21448280.598 7 -16592603.16023
 91  3 30  1 31 44.9990000  0  4G15G 2G13G 6
  23509654.3474   -3638926.00045  -2789683.07061
  20913363.3084  -15888089.64447 -12380278.24763
  20867527.386   -16359695.781 7 -12507128.06521
  20312527.7534  -21456750.88047 -16599203.35462
 91  3 30  1 31 59.9990000  0  4G15G 2G13G 6
  23512336.4804   -3624817.01845  -2778689.05361
  20915152.9644  -15878689.44647 -12372953.40963
  20861194.589   -16392973.895 7 -12533058.99221
  20310937.862   -21465097.236 7 -16605706.98322
 91  3 30  1 32 14.9990000  0  4G15G 2G13G 6
  23515050.7694   -3610557.23045  -2767577.52661
  20916952.2764  -15869232.15747 -12365584.08963
  20854888.714   -16426108.056 7 -12558877.75121
  20309375.3784  -21473320.02947 -16612114.32462
 91  3 30  1 32 29.9990000  0  4G15G 2G13G 6
  23517792.714    -3596141.470 5  -2756344.45521
  20918763.8864  -15859712.92147 -12358166.49663
  20848612.065   -16459093.212 7 -12584580.39421
  20307833.5654  -21481414.13247 -16618421.39262
 91  3 30  1 32 44.9990000  0  4G15G 2G13G 6
  23520567.1594   -3581573.89145  -2744993.08561
  20920585.1514  -15850135.88047 -12350703.86363
  20842363.480   -16491933.564 7 -12610170.20421
  20306318.0344  -21489383.40647 -16624631.18363
 91  3 30  1 32 59.9990000  0  4G15G 2G13G 6
  23523371.5424   -3566851.64645  -2733521.20161
  20922419.6984  -15840498.00347 -12343193.82264
  20836141.847   -16524626.053 7 -12635644.80221
  20304824.784   -21497224.760 7 -16630741.30623
 91  3 30  1 33 14.9990000  0  4G15G 2G13G 6
  23526197.6364   -3551976.68445  -2721930.30761
  20924266.4254  -15830800.94647 -12335637.66963
  20829948.3944  -16557172.27747 -12661005.42661
  20303356.292   -21504939.681 7 -16636752.91023
 91  3 30  1 33 29.9990000  0  4G15G 2G13G 6
  23529059.980    -3536945.843 5  -2710217.94721
  20926122.0344  -15821041.32647 -12328032.76463
  20823783.487   -16589568.715 7 -12686249.33321
  20301914.394   -21512524.493 7 -16642663.13123
 91  3 30  1 33 44.9990000  0  4G15G 2G13G 6
  23531947.8554   -3521756.06445  -2698381.75161
  20927991.5734  -15811216.29447 -12320376.89263
  20817648.230   -16621811.993 7 -12711373.89021
  20300495.394   -21519975.900 7 -16648469.39923
 91  3 30  1 33 59.9990000  0  4G15G 2G13G 6
  23534869.6364   -3506414.04545  -2686426.92361
  20929873.0504  -15801332.36247 -12312675.12263
  20811540.3474  -16653908.33647 -12736383.95861
  20299102.1984  -21527300.12947 -16654176.56663
 91  3 30  1 34 14.9990000  0  4G15G 2G13G 6
  23537814.3234   -3490915.82645  -2674350.38461
  20931765.8154  -15791385.56347 -12304924.36863
  20805460.8704  -16685854.07647 -12761276.67161
  20297733.159   -21534493.306 7 -16659781.61623
 91  3 30  1 34 29.9990000  0  4G15G 2G13G 6
  23540796.1834   -3475267.62545  -2662156.98161
  20933669.6984  -15781381.96147 -12297129.35063
  20799409.9644  -16717654.99047 -12786056.54061
  20296387.9174  -21541561.00047 -16665288.88362
 91  3 30  1 34 44.9990000  0  4G15G 2G13G 6
  23543805.1204   -3459464.74045  -2649843.03261
  20935584.5114  -15771316.71248 -12289286.29063
  20793387.089   -16749306.103 7 -12810719.67221
  20295067.683   -21548498.308 7 -16670694.55722
 91  3 30  1 34 59.9990000  0  4G15G 2G13G 6
  23546839.026    -3443506.111 5  -2637407.72821
  20937512.7534  -15761188.52248 -12281394.19063
  20787392.730   -16780806.255 7 -12835265.17721
  20293772.901   -21555303.924 7 -16675997.60823
 91  3 30  1 35 14.9990000  0  4G15G 2G13G 6
  23549903.7844   -3427391.67545  -2624851.00061
  20939453.0894  -15750997.16748 -12273452.86763
  20781427.683   -16812154.751 7 -12859692.50621
  20292502.7844  -21561977.14047 -16681197.49162
 91  3 30  1 35 29.9990000  0  4G15G 2G13G 6
  23552999.4874   -3411121.36745  -2612172.83661
  20941403.2614  -15740742.61647 -12265462.30363
  20775491.0034  -16843351.27547 -12884001.41761
  20291258.269   -21568517.655 7 -16686293.97422
 91  3 30  1 35 44.9990000  0  4G15G 2G13G 6
  23556126.300    -3394692.296 5  -2599370.94021
  20943367.1444  -15730421.76747 -12257420.07463
  20769583.2224  -16874392.91947 -12908189.64361
  20290040.386   -21574922.382 7 -16691284.65122
 91  3 30  1 35 59.9990000  0  4G15G 2G13G 6
  23559283.144    -3378105.056 5  -2586445.79621
  20945343.3004  -15720035.23547 -12249326.66563
  20763705.4404  -16905280.11047 -12932257.51561
  20288847.644   -21581191.582 7 -16696169.71922
 91  3 30  1 36 14.9990000  0  4G15G 2G13G 6
  23562470.253    -3361359.267 5  -2573397.10721
  20947332.667   -15709582.615 7 -12241181.75923
  20757856.6674  -16936012.35347 -12956204.64561
  20287679.839   -21587324.702 7 -16700948.75122
 91  3 30  1 36 29.9990000  0  4G15G 2G13G 6
  23565686.925    -3344457.339 5  -2560226.75621
  20949333.6124  -15699066.12047 -12232987.07763
  20752038.2064  -16966591.46547 -12980032.45861
  20286537.690   -21593323.696 7 -16705623.27122
 91  3 30  1 36 44.9990000  0  4G15G 2G13G 6
  23568934.628    -3327400.409 5  -2546935.62221
  20951346.2694  -15688486.87047 -12224743.49663
  20746247.5424  -16997018.58747 -13003741.83361
  20285422.644   -21599189.411 7 -16710193.93723
 91  3 30  1 36 59.9990000  0  4G15G 2G13G 6
  23572210.269    -3310184.777 5  -2533520.82121
  20953372.9644  -15677841.01347 -12216448.01663
  20740487.7374  -17027289.76347 -13027329.70061
  20284332.073   -21604917.869 7 -16714657.65122
 91  3 30  1 37 14.9990000  0  4G15G 2G13G 6
  23575514.5974   -3292813.40145  -2519984.66861
  20955411.0264  -15667131.31747 -12208102.79063
  20734756.3084  -17057407.93747 -13050798.33761
  20283266.331   -21610511.583 7 -16719016.36723
 91  3 30  1 37 29.9990000  0  4G15G 2G13G 6
  23578852.9404   -3275285.37345  -2506326.45961
  20957460.9564  -15656356.52647 -12199706.84363
  20729054.0654  -17087371.46947 -13074146.48361
  20282229.237   -21615969.203 7 -16723269.03622
 91  3 30  1 37 44.9990000  0  4G15G 2G13G 6
  23582216.0814   -3257596.91545  -2492543.23561
  20959525.151   -15645512.810 7 -12191257.18423
  20723382.1284  -17117176.32147 -13097370.97361
  20281216.159   -21621286.613 7 -16727412.44823
 91  3 30  1 37 59.9990000  0  4G15G 2G13G 6
  23585611.925    -3239751.235 5  -2478637.50121
  20961600.448   -15634603.304 7 -12182756.25823
  20717740.6984  -17146825.49747 -13120474.15961
  20280231.542   -21626466.636 7 -16731448.80823
 91  3 30  1 38 14.9990000  0  4G15G 2G13G 6
  23589036.5344   -3221746.63145  -2464607.94061
  20963689.620   -15623626.168 7 -12174202.62723
  20712128.1754  -17176317.19247 -13143454.63262
  20279271.245   -21631507.454 7 -16735376.69823
 91  3 30  1 38 29.9990000  0  4G15G 2G13G 6
  23592495.9014   -3203584.24245  -2450455.43161
  20965790.972   -15612582.620 7 -12165597.25023
  20706545.6834  -17205652.28447 -13166313.08462
  20278339.136   -21636409.845 7 -16739196.72123
 91  3 30  1 38 44.9990000  0  4G15G 2G13G 6
  23595981.0034   -3185264.23545  -2436180.10361
  20967904.651   -15601472.700 7 -12156940.16123
  20700993.4094  -17234830.77447 -13189049.50461
  20277433.042   -21641173.697 7 -16742908.79723
 91  3 30  1 38 59.9990000  0  4G15G 2G13G 6
  23599496.5034   -3166782.61845  -2421778.85161
  20970032.894   -15590292.196 7 -12148228.06623
  20695470.8004  -17263848.64447 -13211660.76561
  20276553.433   -21645794.767 7 -16746509.60722
 91  3 30  1 39 14.9990000  0  4G15G 2G13G 6
  23603045.8004   -3148142.56045  -2407254.12261
  20972172.948   -15579043.938 7 -12139463.17623
  20689979.3624  -17292708.54247 -13234148.93062
  20275700.448   -21650275.532 7 -16750001.09622
 91  3 30  1 39 29.9990000  0  4G15G 2G13G 6
  23606622.2614   -3129345.10445  -2392606.74561
  20974326.589   -15567728.943 7 -12130646.28623
  20684516.8314  -17321411.23247 -13256514.59561
  20274874.222   -21654616.913 7 -16753383.97322
 91  3 30  1 39 44.9990000  0  4G15G 2G13G 6
  23610231.4874   -3110389.79345  -2377836.37861
  20976492.980   -15556346.607 8 -12121776.91823
  20679085.0734  -17349955.85547 -13278757.09561
  20274074.714   -21658817.901 7 -16756657.45622
 91  3 30  1 39 59.9990000  0  4G15G 2G13G 6
  23613870.019    -3091273.314 5  -2362940.41121
  20978672.386   -15544893.194 8 -12112852.16723
  20673683.7614  -17378339.09147 -13300873.83462
  20273303.3314  -21662874.91947 -16759818.75462
 91  3 30  1 40 14.9990000  0  4G15G 2G13G 6
  23617535.8624   -3071997.30145  -2347920.14261
  20980864.292   -15533370.560 8 -12103873.47923
  20668313.2304  -17406562.25347 -13322865.84662
  20272557.980   -21666789.316 7 -16762868.91822
 91  3 30  1 40 29.9990000  0  4G15G 2G13G 6
  23621234.8704   -3052563.01845  -2332776.54061
  20983070.190   -15521779.890 8 -12094841.77723
  20662973.9564  -17434626.41447 -13344733.95962
  20271839.980   -21670562.204 7 -16765808.80922
 91  3 30  1 40 44.9990000  0  4G15G 2G13G 6
  23624960.933    -3032969.243 5  -2317508.64721
  20985289.401   -15510119.560 7 -12085755.79723
  20657663.6834  -17462530.14347 -13366477.06061
  20271149.120   -21674191.800 7 -16768637.04922
 91  3 30  1 40 59.9990000  0  4G15G 2G13G 6
  23628721.011    -3013215.186 5  -2302115.85921
  20987521.4174  -15498388.67347 -12076614.83563
  20652383.8554  -17490272.28047 -13388094.25362
  20270485.495   -21677677.024 7 -16771352.78922
 91  3 30  1 41 14.9990000  0  4G15G 2G13G 6
  23632510.7064   -2993296.85845  -2286595.07961
  20989767.253   -15486583.448 7 -12067415.94723
  20647136.1364  -17517848.90247 -13409582.46461
  20269851.331   -21681013.668 7 -16773952.75622
 91  3 30  1 41 29.9990000  0  4G15G 2G13G 6
  23636333.081    -2973218.366 5  -2270949.48621
  20992027.065   -15474707.601 7 -12058162.02923
  20641919.5114  -17545263.74847 -13430944.61962
  20269242.980   -21684205.401 7 -16776439.80123
 91  3 30  1 41 44.9990000  0  4G15G 2G13G 6
  23640183.440    -2952980.166 5  -2255179.44421
  20994301.542   -15462761.213 7 -12048853.13723
  20636733.5654  -17572516.88747 -13452180.76862
  20268663.112   -21687252.257 7 -16778813.95622
 91  3 30  1 41 59.9990000  0  4G15G 2G13G 6
  23644065.4254   -2932585.22645  -2239287.26061
  20996587.659   -15450747.212 7 -12039491.55823
  20631577.4484  -17599611.05047 -13473293.03961
  20268111.003   -21690156.804 7 -16781077.21722
 91  3 30  1 42 14.9990000  0  4G15G 2G13G 6
  23647975.8554   -2912029.75645  -2223270.00361
  20998886.831   -15438661.681 7 -12030074.24523
  20626452.1984  -17626542.10047 -13494278.21362
  20267585.651   -21692915.008 7 -16783226.44622
 91  3 30  1 42 29.9990000  0  4G15G 2G13G 6
  23651918.3394   -2891312.67645  -2207126.82561
  21001199.362   -15426503.291 7 -12020600.15923
  20621359.6054  -17653308.80547 -13515135.32661
  20267089.378   -21695525.498 7 -16785260.57422
 91  3 30  1 42 44.9990000  0  4G15G 2G13G 6
  23655889.0584   -2870438.63745  -2190861.34161
  21003527.245   -15414276.456 7 -12011072.74023
  20616296.0114  -17679915.52447 -13535867.77461
  20266620.144   -21697992.441 7 -16787182.84722
 91  3 30  1 42 59.9990000  0  4G15G 2G13G 6
  23659891.4014   -2849411.42745  -2174476.50661
  21005865.987   -15401985.071 7 -12001495.02323
  20611262.7924  -17706366.01647 -13556478.48861
  20266177.940   -21700319.452 7 -16788996.08223
 91  3 30  1 43 14.9990000  0  4G15G 2G13G 6
  23663924.3084   -2828224.71045  -2157967.37761
  21008219.370   -15389622.504 7 -11991861.84123
  20606259.4564  -17732653.33647 -13576962.05462
  20265761.737   -21702499.634 7 -16790694.90523
 91  3 30  1 43 29.9990000  0  4G15G 2G13G 6
  23667984.6754   -2806879.46045  -2141334.71261
  21010585.292   -15377189.335 8 -11982173.64423
  20601288.6514  -17758778.03147 -13597318.90461
  20265375.339   -21704533.488 7 -16792279.70423
 91  3 30  1 43 44.9990000  0  4G15G 2G13G 6
  23672075.6984   -2785374.72445  -2124577.78161
  21012964.589   -15364684.462 8 -11972429.57423
  20596348.4254  -17784739.28347 -13617548.38962
  20265016.222   -21706419.766 7 -16793749.51222
 91  3 30  1 43 59.9990000  0  4G15G 2G13G 6
  23676197.8864   -2763716.67245  -2107701.38161
  21015356.753   -15352113.994 8 -11962634.39023
  20591437.9874  -17810543.14147 -13637655.23262
  20264685.120   -21708164.559 7 -16795109.06923
 91  3 30  1 44 14.9990000  0  4G15G 2G13G 6
  23680349.4254   -2741900.24945  -2090701.56361
  21017761.980   -15339472.997 7 -11952784.25223
  20586558.198   -17836184.425 7 -13657635.39921
  20264380.370   -21709762.411 7 -16796354.12523
 91  3 30  1 44 29.9990000  0  4G15G 2G13G 6
  23684531.605    -2719928.236 5  -2073580.50621
  21020180.315   -15326763.839 7 -11942880.99623
  20581709.440   -17861665.311 7 -13677490.57722
  20264103.440   -21711215.780 7 -16797486.59822
 91  3 30  1 44 44.9990000  0  4G15G 2G13G 6
  23688741.7144   -2697806.01045  -2056342.40361
  21022610.636   -15313991.729 7 -11932928.69123
  20576890.7454  -17886990.99347 -13697224.81861
  20263854.620   -21712529.457 7 -16798510.22222
 91  3 30  1 44 59.9990000  0  4G15G 2G13G 6
  23692979.5194   -2675530.18245  -2038984.61861
  21025053.558   -15301153.327 7 -11922924.72123
  20572101.9254  -17912158.14447 -13716835.53162
  20263631.550   -21713699.970 7 -16799422.29622
 91  3 30  1 45 14.9990000  0  4G15G 2G13G 6
  23697248.7844   -2653108.21045  -2021512.95061
  21027507.472   -15288255.864 7 -11912874.73523
  20567341.0504  -17937173.81147 -13736328.20561
  20263433.909   -21714734.502 7 -16800228.41322
 91  3 30  1 45 29.9990000  0  4G15G 2G13G 6
  23701542.8474   -2630539.46745  -2003926.92661
  21029973.128   -15275298.447 7 -11902778.03323
  20562609.5344  -17962037.09947 -13755702.13961
  20263264.917   -21715631.923 7 -16800927.68822
 91  3 30  1 45 44.9990000  0  4G15G 2G13G 6
  23705864.050    -2607824.116 5  -1986226.63621
  21032451.0344  -15262280.96847 -11892634.53263
  20557906.800   -17986747.976 7 -13774957.31321
  20263119.925   -21716392.050 7 -16801519.97522
 91  3 30  1 45 59.9990000  0  4G15G 2G13G 6
  23710215.3864   -2584964.08745  -1968413.62561
  21034939.1754  -15249205.26847 -11882445.66563
  20553233.097   -18011308.057 7 -13794094.98222
  20263000.386   -21717016.467 7 -16802006.51622
 91  3 30  1 46 14.9990000  0  4G15G 2G13G 6
  23714592.7064   -2561961.40645  -1950489.44761
  21037437.9644  -15236072.97447 -11872212.69963
  20548588.0194  -18035718.82547 -13813116.30761
  20262905.651   -21717506.628 7 -16802388.44322
 91  3 30  1 46 29.9990000  0  4G15G 2G13G 6
  23718994.0194   -2538818.58645  -1932456.08461
  21039947.3154  -15222886.65247 -11861937.63663
  20543970.558   -18059982.632 7 -13832023.11421
  20262836.8864  -21717864.79547 -16802667.51462
 91  3 30  1 46 44.9990000  0  4G15G 2G13G 6
  23723425.1514   -2515542.02645  -1914318.49361
  21042466.105   -15209652.461 7 -11851625.26723
  20539379.9404  -18084106.15847 -13850820.60961
  20262795.433   -21718097.173 7 -16802848.57822
 91  3 30  1 46 59.9990000  0  4G15G 2G13G 6
  23727879.8864   -2492135.44645  -1896079.60061
  21044993.050   -15196374.034 7 -11841278.42623
  20534815.698   -18108092.677 7 -13869511.34922
  20262771.261   -21718207.141 7
 91  3 30  1 47 14.9990000  0  4G15G 2G13G 6
  23732356.206    -2468601.741 5  -1877741.61621
  21047527.362   -15183053.804 7 -11830899.01223
  20530276.940   -18131944.619 7 -13888097.22622
  20262775.745   -21718197.140 7
 91  3 30  1 47 29.9990000  0  4G15G 2G13G 6
  23736858.3314   -2444949.45445  -1859311.26561
  21050067.870   -15169700.113 7 -11820493.52423
  20525762.401   -18155670.249 7 -13906584.67622
  20262797.151   -21718075.248 7
 91  3 30  1 47 44.9990000  0  4G15G 2G13G 6
  23741380.8154   -2421181.18945  -1840790.50961
  21052614.706   -15156315.551 7 -11810063.98123
  20521271.331   -18179272.202 7 -13924975.75122
  20262839.964   -21717843.813 7
 91  3 30  1 47 59.9990000  0  4G15G 2G13G 6
  23745925.1124   -2397301.83645  -1822183.21961
  21055167.323   -15142904.657 7 -11799613.92023
  20516801.972   -18202754.820 7 -13943273.84022
  20262905.972   -21717507.320 7
 91  3 30  1 48 14.9990000  0  4G15G 2G13G 6
  23750488.870    -2373316.025 5  -1803492.95721
  21057723.706   -15129472.009 7 -11789146.90423
  20512355.3864  -18226122.69247 -13961482.51961
  20262987.394   -21717070.043 7 -16802048.11222
 91  3 30  1 48 29.9990000  0  4G15G 2G13G 6
  23755072.8864   -2349233.13345  -1784727.05061
  21060282.308   -15116026.818 7 -11778670.11723
  20507928.144   -18249385.204 7 -13979609.09321
  20263090.050   -21716541.246 7 -16801636.04123
 91  3 30  1 48 44.9990000  0  4G15G 2G13G 6
  23759673.073    -2325055.809 5  -1765887.55921
  21062843.058   -15102571.526 7 -11768185.46123
  20503521.0344  -18272544.45147 -13997655.20861
  20263206.386   -21715923.039 7 -16801154.30522
 91  3 30  1 48 59.9990000  0  4G15G 2G13G 6
  23764288.8704   -2300793.66345  -1746981.95361
  21065403.0194  -15089115.71247 -11757700.40163
  20499131.534   -18295610.105 7 -14015628.39622
  20263340.487   -21715224.928 7 -16800610.31022
 91  3 30  1 49 14.9990000  0  4G15G 2G13G 6
  23768924.159    -2276445.501 5  -1728009.36821
  21067963.8624  -15075657.80247 -11747213.70763
  20494760.495   -18318580.636 7 -14033527.45822
  20263488.7844  -21714445.30647 -16800002.80362
 91  3 30  1 49 29.9990000  0  4G15G 2G13G 6
  23773569.792    -2252028.443 5  -1708983.05421
  21070522.2534  -15062214.69247 -11736738.54563
  20490404.784   -18341472.994 7 -14051365.60222
  20263648.019   -21713600.768 7 -16799344.70722
 91  3 30  1 49 44.9990000  0  4G15G 2G13G 6
  23778228.315    -2227551.662 5  -1689910.22321
  21073075.8314  -15048795.22147 -11726281.80563
  20486061.128   -18364295.825 7 -14069149.57722
  20263820.870   -21712700.017 7 -16798642.81022
 91  3 30  1 49 59.9990000  0  4G15G 2G13G 6
  23782898.456    -2203013.091 5  -1670789.23921
  21075624.964   -15035397.200 7 -11715841.77823
  20481732.136   -18387046.919 7 -14086877.64822
  20264003.042   -21711740.626 7 -16797895.20922
 91  3 30  1 50 14.9990000  0  4G15G 2G13G 6
  23787575.6674   -2178425.91745  -1651630.39061
  21078168.370   -15022033.628 7 -11705428.59123
  20477413.933   -18409739.057 7 -14104559.77922
  20264194.230   -21710735.521 7 -16797111.99122
 91  3 30  1 50 29.9990000  0  4G15G 2G13G 6
  23792261.7064   -2153792.42345  -1632435.43861
  21080703.9724  -15008706.44747 -11695043.77063
  20473105.901   -18432374.355 7 -14122197.62822
  20264394.112   -21709686.633 7 -16796294.65822
 91  3 30  1 50 44.9990000  0  4G15G 2G13G 6
  23796959.3234   -2129120.76745  -1613210.76361
  21083231.1754  -14995423.66247 -11684693.54563
  20468808.401   -18454960.991 7 -14139797.55222
  20264600.347   -21708601.789 7 -16795449.31022
 91  3 30  1 50 59.9990000  0  4G15G 2G13G 6
  23801659.534    -2104414.328 5  -1593958.97021
  21085750.2614  -14982188.41647 -11674380.36163
  20464518.917   -18477501.876 7 -14157361.82221
  20264813.464   -21707484.028 7 -16794578.31322
 91  3 30  1 51 14.9990000  0  4G15G 2G13G 6
  23806366.972    -2079675.288 5  -1574681.79121
  21088259.0344  -14969003.00447 -11664106.00263
  20460237.612   -18499999.305 7 -14174892.23922
  20265031.776   -21706335.293 7 -16793683.17822
 91  3 30  1 51 29.9990000  0  4G15G 2G13G 6
  23811080.206    -2054908.193 5  -1555382.75421
  21090758.7924  -14955871.39047 -11653873.56663
  20455963.5584  -18522456.99747 -14192391.68162
  20265255.144   -21705159.379 7 -16792766.86822
 91  3 30  1 51 44.9990000  0  4G15G 2G13G 6
  23815799.1054   -2030118.99545  -1536066.47861
  21093246.042   -14942799.305 7 -11643687.51223
  20451696.175   -18544880.576 7 -14209864.54822
  20265484.050   -21703961.894 7 -16791833.74922
 91  3 30  1 51 59.9990000  0  4G15G 2G13G 6
  23820518.0894   -2005312.30345  -1516736.60661
  21095721.6284  -14929791.30447 -11633551.39963
  20447435.0814  -18567274.86347 -14227314.58962
  20265714.526   -21702747.400 7 -16790887.37722
 91  3 30  1 52 14.9990000  0  4G15G 2G13G 6
  23825242.3554   -1980488.22745  -1497393.17161
  21098183.6204  -14916847.44347 -11623465.27263
  20443178.964   -18589639.961 7 -14244741.88822
  20265947.815   -21701515.680 7 -16789927.57522
 91  3 30  1 52 29.9990000  0  4G15G 2G13G 6
  23829966.4644   -1955650.05244  -1478038.74161
  21100634.4874  -14903970.81847 -11613431.53563
  20438927.964   -18611978.875 7 -14262148.78322
  20266185.831   -21700269.784 7 -16788956.72122
 91  3 30  1 52 44.9990000  0  4G15G 2G13G 6
  23834697.3784   -1930798.49944  -1458673.89261
  21103072.1674  -14891161.41947 -11603450.18663
  20434682.714   -18634291.672 7 -14279535.32522
  20266425.839   -21699009.593 7 -16787974.73622
 91  3 30  1 52 59.9990000  0  4G15G 2G13G 6
  23839429.8154   -1905930.23045  -1439295.98761
  21105497.5194  -14878415.80447 -11593518.53063
  20430441.597   -18656574.730 7 -14296898.69522
  20266669.081   -21697731.586 7 -16786978.86422
 91  3 30  1 53 14.9990000  0  4G15G 2G13G 6
  23844163.315    -1881049.231 5  -1419908.19021
  21107910.6204  -14865737.70547 -11583639.48563
  20426205.730   -18678832.010 7 -14314241.97722
  20266915.401   -21696439.307 7 -16785971.87422
 91  3 30  1 53 29.9990000  0  4G15G 2G13G 6
  23848903.9094   -1856149.03645  -1400505.44461
  21110311.550   -14853120.565 7 -11573807.93523
  20421976.456   -18701056.773 7 -14331559.92122
  20267163.909   -21695126.010 7 -16784948.50422
 91  3 30  1 53 44.9990000  0  4G15G 2G13G 6
  23853646.4254   -1831229.73045  -1381087.79461
  21112700.9404  -14840564.42747 -11564023.92263
  20417754.003   -18723249.066 7 -14348852.56822
  20267418.784   -21693791.582 7 -16783908.66722
 91  3 30  1 53 59.9990000  0  4G15G 2G13G 6
  23858392.3394   -1806286.53045  -1361651.52561
  21115078.7304  -14828064.01947 -11554283.33763
  20413539.206   -18745403.751 7 -14366115.90522
  20267677.980   -21692430.803 7 -16782848.29722
 91  3 30  1 54 14.9990000  0  4G15G 2G13G 6
  23863143.534    -1781314.634 5  -1342192.89221
  21117448.847   -14815614.264 7 -11544582.22023
  20409330.558   -18767515.655 7 -14383345.90322
  20267943.589   -21691038.409 7 -16781763.29222
 91  3 30  1 54 29.9990000  0  4G15G 2G13G 6
  23867902.4804   -1756312.51345  -1322710.72461
  21119807.378   -14803213.517 7 -11534919.28923
  20405130.925   -18789583.104 7 -14400541.26922
  20268214.847   -21689612.560 7 -16780652.21923
 91  3 30  1 54 44.9990000  0  4G15G 2G13G 6
  23872664.9954   -1731278.35145  -1303203.58361
  21122158.7374  -14790859.83847 -11525293.03663
  20400940.651   -18811603.961 7 -14417700.33522
  20268492.0504  -21688151.17547 -16779513.44962
 91  3 30  1 54 59.9990000  0  4G15G 2G13G 6
  23877435.8314   -1706210.04445  -1283669.83061
  21124501.542   -14778550.493 7 -11515701.32523
  20396759.409   -18833575.793 7 -14434821.18122
  20268776.9334  -21686651.54547 -16778344.87962
 91  3 30  1 55 14.9990000  0  4G15G 2G13G 6
  23882212.1674   -1681102.09445  -1264105.18761
  21126836.4724  -14766280.12347 -11506139.98863
  20392588.644   -18855493.042 7 -14451899.50622
  20269070.581   -21685107.954 7 -16777142.05623
 91  3 30  1 55 29.9990000  0  4G15G 2G13G 6
  23887000.3234   -1655951.08845  -1244507.00961
  21129163.8944  -14754045.11647 -11496606.20963
  20388428.730   -18877352.387 7 -14468932.70822
  20269374.315   -21683516.801 7 -16775902.18322
 91  3 30  1 55 44.9990000  0  4G15G 2G13G 6
  23891796.2304   -1630755.58645  -1224874.15661
  21131485.5504  -14741843.73347 -11487098.63963
  20384280.198   -18899151.944 7 -14485919.32322
  20269686.034   -21681876.216 7 -16774623.79123
 91  3 30  1 55 59.9990000  0  3G 2G13G 6
  21133803.0034  -14729667.09847 -11477610.35763
  20380145.315   -18920882.869 7 -14502852.45922
  20270009.065   -21680177.196 7 -16773299.86522
 91  3 30  1 56 14.9990000  0  3G 2G13G 6
  21136116.4874  -14717512.44947 -11468139.19763
  20376023.925   -18942542.345 7 -14519729.92222
  20270343.894   -21678417.007 7 -16771928.27022
 91  3 30  1 56 29.9990000  0  3G 2G13G 6
  21138427.370   -14705369.196 7 -11458676.91023
  20371917.784   -18964119.951 7 -14536543.58922
  20270693.105   -21676584.812 7 -16770500.56822
 91  3 30  1 56 44.9990000  0  3G 2G13G 6
  21140735.409   -14693236.721 7 -11449223.02323
  20367826.222   -18985615.140 7 -14553293.03322
  20271055.917   -21674679.942 7 -16769016.24022
 91  3 30  1 56 59.9990000  0  3G 2G13G 6
  21143042.433   -14681118.065 7 -11439779.90223
  20363750.550   -19007030.687 7 -14569980.42522
  20271429.894   -21672705.225 7 -16767477.47522
 91  3 30  1 57 14.9990000  0  3G 2G13G 6
  21145346.4014  -14669001.96147 -11430338.77263
  20359693.730   -19028355.305 7 -14586596.96022
  20271823.472   -21670649.327 7 -16765875.46122
 91  3 30  1 57 29.9990000  0  3G 2G13G 6
  21147653.425   -14656886.265 7 -11420897.95823
  20355653.487   -19049587.026 7 -14603141.10221
  20272228.495   -21668509.966 7 -16764208.41022
 91  3 30  1 57 44.9990000  0  3G 2G13G 6
  21149958.800   -14644768.208 7 -11411455.30123
  20351630.644   -19070723.170 7 -14619610.77922
  20272652.995   -21666284.425 7 -16762474.21022
 91  3 30  1 57 59.9990000  0  3G 2G13G 6
  21152266.073   -14632644.054 7 -11402007.89323
  20347628.386   -19091759.975 7 -14636003.04322
  20273093.331   -21663968.658 7 -16760669.70322
 91  3 30  1 58 14.9990000  0  3G 2G13G 6
  21154575.175   -14620513.581 7 -11392555.56023
  20343643.089   -19112697.344 7 -14652317.82722
  20273550.276   -21661562.435 7 -16758794.70222
 91  3 30  1 58 29.9990000  0  3G 2G13G 6
  21156884.870   -14608368.964 7 -11383092.21023
  20339680.136   -19133527.478 7 -14668549.05022
  20274028.261   -21659057.836 7 -16756843.04722
 91  3 30  1 58 44.9990000  0  3G 2G13G 6
  21159198.5974  -14596210.50347 -11373618.07463
  20335735.855   -19154250.231 7 -14684696.59922
  20274523.909   -21656454.941 7 -16754814.80122
 91  3 30  1 58 59.9990000  0  3G 2G13G 6
  21161517.042   -14584031.893 7 -11364128.23723
  20331813.800   -19174859.513 7 -14700755.73122
  20275038.612   -21653747.576 7 -16752705.14922
 91  3 30  1 59 14.9990000  0  3G 2G13G 6
  21163838.409   -14571832.021 7 -11354621.83223
  20327914.081   -19195354.515 7 -14716725.81422
  20275573.151   -21650934.311 7 -16750512.97322
